<?xml version="1.0" encoding="UTF-8" standalone="no" ?>
<gpx xmlns="http://www.topografix.com/GPX/1/1" xmlns:xsi="http://www.w3.org/2001/XMLSchema-instance" xsi:schemaLocation="http://www.topografix.com/GPX/1/1 http://www.topografix.com/GPX/1/1/gpx.xsd" version="1.1" creator="VisuGPX - https://www.visugpx.com">
  <metadata>
    <name>Nabonne - Port-la-Nouvelle</name>
  </metadata>
  <trk>
    <name><![CDATA[Randonnée du 28/08/2018 à 16:17]]></name>
    <trkseg>
      <trkpt lat="43.01384" lon="3.0539">
        <ele>1</ele>
        <time>2018-08-28T16:17:33+02:00</time>
      </trkpt>
      <trkpt lat="43.01405" lon="3.05405">
        <ele>1</ele>
        <time>2018-08-28T16:17:44+02:00</time>
      </trkpt>
      <trkpt lat="43.01427" lon="3.05422">
        <ele>1</ele>
        <time>2018-08-28T16:17:52+02:00</time>
      </trkpt>
      <trkpt lat="43.0145" lon="3.05437">
        <ele>1</ele>
        <time>2018-08-28T16:18:00+02:00</time>
      </trkpt>
      <trkpt lat="43.01473" lon="3.05455">
        <ele>1</ele>
        <time>2018-08-28T16:18:07+02:00</time>
      </trkpt>
      <trkpt lat="43.01493" lon="3.05473">
        <ele>1</ele>
        <time>2018-08-28T16:18:14+02:00</time>
      </trkpt>
      <trkpt lat="43.01496" lon="3.05504">
        <ele>1</ele>
        <time>2018-08-28T16:18:25+02:00</time>
      </trkpt>
      <trkpt lat="43.01511" lon="3.05529">
        <ele>1</ele>
        <time>2018-08-28T16:18:32+02:00</time>
      </trkpt>
      <trkpt lat="43.01537" lon="3.05533">
        <ele>1</ele>
        <time>2018-08-28T16:18:39+02:00</time>
      </trkpt>
      <trkpt lat="43.01558" lon="3.05523">
        <ele>1</ele>
        <time>2018-08-28T16:18:44+02:00</time>
      </trkpt>
      <trkpt lat="43.01582" lon="3.05528">
        <ele>1</ele>
        <time>2018-08-28T16:18:50+02:00</time>
      </trkpt>
      <trkpt lat="43.01604" lon="3.05542">
        <ele>1</ele>
        <time>2018-08-28T16:18:56+02:00</time>
      </trkpt>
      <trkpt lat="43.01626" lon="3.05554">
        <ele>1</ele>
        <time>2018-08-28T16:19:02+02:00</time>
      </trkpt>
      <trkpt lat="43.01651" lon="3.05569">
        <ele>1</ele>
        <time>2018-08-28T16:19:08+02:00</time>
      </trkpt>
      <trkpt lat="43.01671" lon="3.05583">
        <ele>1</ele>
        <time>2018-08-28T16:19:13+02:00</time>
      </trkpt>
      <trkpt lat="43.01692" lon="3.05594">
        <ele>1</ele>
        <time>2018-08-28T16:19:18+02:00</time>
      </trkpt>
      <trkpt lat="43.01717" lon="3.05607">
        <ele>1</ele>
        <time>2018-08-28T16:19:24+02:00</time>
      </trkpt>
      <trkpt lat="43.01738" lon="3.05619">
        <ele>1</ele>
        <time>2018-08-28T16:19:30+02:00</time>
      </trkpt>
      <trkpt lat="43.0176" lon="3.0563">
        <ele>1</ele>
        <time>2018-08-28T16:19:36+02:00</time>
      </trkpt>
      <trkpt lat="43.01784" lon="3.05645">
        <ele>1</ele>
        <time>2018-08-28T16:19:43+02:00</time>
      </trkpt>
      <trkpt lat="43.01805" lon="3.05658">
        <ele>1</ele>
        <time>2018-08-28T16:19:50+02:00</time>
      </trkpt>
      <trkpt lat="43.01826" lon="3.05671">
        <ele>1</ele>
        <time>2018-08-28T16:19:58+02:00</time>
      </trkpt>
      <trkpt lat="43.01848" lon="3.05683">
        <ele>1</ele>
        <time>2018-08-28T16:20:06+02:00</time>
      </trkpt>
      <trkpt lat="43.01869" lon="3.05697">
        <ele>1</ele>
        <time>2018-08-28T16:20:34+02:00</time>
      </trkpt>
      <trkpt lat="43.01886" lon="3.05672">
        <ele>1</ele>
        <time>2018-08-28T16:20:43+02:00</time>
      </trkpt>
      <trkpt lat="43.01899" lon="3.05643">
        <ele>1</ele>
        <time>2018-08-28T16:20:51+02:00</time>
      </trkpt>
      <trkpt lat="43.01913" lon="3.05613">
        <ele>1</ele>
        <time>2018-08-28T16:20:58+02:00</time>
      </trkpt>
      <trkpt lat="43.01923" lon="3.05585">
        <ele>1</ele>
        <time>2018-08-28T16:21:04+02:00</time>
      </trkpt>
      <trkpt lat="43.01933" lon="3.05557">
        <ele>1.5</ele>
        <time>2018-08-28T16:21:10+02:00</time>
      </trkpt>
      <trkpt lat="43.01945" lon="3.05527">
        <ele>1</ele>
        <time>2018-08-28T16:21:17+02:00</time>
      </trkpt>
      <trkpt lat="43.01956" lon="3.05496">
        <ele>1</ele>
        <time>2018-08-28T16:21:23+02:00</time>
      </trkpt>
      <trkpt lat="43.01965" lon="3.05461">
        <ele>1</ele>
        <time>2018-08-28T16:21:30+02:00</time>
      </trkpt>
      <trkpt lat="43.01972" lon="3.0543">
        <ele>1</ele>
        <time>2018-08-28T16:21:36+02:00</time>
      </trkpt>
      <trkpt lat="43.01983" lon="3.05402">
        <ele>1</ele>
        <time>2018-08-28T16:21:41+02:00</time>
      </trkpt>
      <trkpt lat="43.01991" lon="3.0537">
        <ele>1</ele>
        <time>2018-08-28T16:21:48+02:00</time>
      </trkpt>
      <trkpt lat="43.02001" lon="3.05336">
        <ele>1</ele>
        <time>2018-08-28T16:21:54+02:00</time>
      </trkpt>
      <trkpt lat="43.02008" lon="3.05305">
        <ele>1</ele>
        <time>2018-08-28T16:22:00+02:00</time>
      </trkpt>
      <trkpt lat="43.02019" lon="3.05277">
        <ele>2.3</ele>
        <time>2018-08-28T16:22:05+02:00</time>
      </trkpt>
      <trkpt lat="43.02026" lon="3.05244">
        <ele>1</ele>
        <time>2018-08-28T16:22:11+02:00</time>
      </trkpt>
      <trkpt lat="43.02031" lon="3.05214">
        <ele>1</ele>
        <time>2018-08-28T16:22:16+02:00</time>
      </trkpt>
      <trkpt lat="43.02042" lon="3.05184">
        <ele>1.8</ele>
        <time>2018-08-28T16:22:22+02:00</time>
      </trkpt>
      <trkpt lat="43.0205" lon="3.05154">
        <ele>1</ele>
        <time>2018-08-28T16:22:27+02:00</time>
      </trkpt>
      <trkpt lat="43.02059" lon="3.05121">
        <ele>1</ele>
        <time>2018-08-28T16:22:33+02:00</time>
      </trkpt>
      <trkpt lat="43.02066" lon="3.05087">
        <ele>1</ele>
        <time>2018-08-28T16:22:39+02:00</time>
      </trkpt>
      <trkpt lat="43.02075" lon="3.05055">
        <ele>1.3</ele>
        <time>2018-08-28T16:22:45+02:00</time>
      </trkpt>
      <trkpt lat="43.02084" lon="3.05024">
        <ele>1</ele>
        <time>2018-08-28T16:22:51+02:00</time>
      </trkpt>
      <trkpt lat="43.02094" lon="3.04995">
        <ele>1</ele>
        <time>2018-08-28T16:22:56+02:00</time>
      </trkpt>
      <trkpt lat="43.02095" lon="3.04962">
        <ele>1</ele>
        <time>2018-08-28T16:23:01+02:00</time>
      </trkpt>
      <trkpt lat="43.02104" lon="3.0493">
        <ele>1</ele>
        <time>2018-08-28T16:23:07+02:00</time>
      </trkpt>
      <trkpt lat="43.02115" lon="3.04897">
        <ele>1</ele>
        <time>2018-08-28T16:23:13+02:00</time>
      </trkpt>
      <trkpt lat="43.02125" lon="3.04868">
        <ele>2</ele>
        <time>2018-08-28T16:23:18+02:00</time>
      </trkpt>
      <trkpt lat="43.02137" lon="3.04837">
        <ele>1</ele>
        <time>2018-08-28T16:23:24+02:00</time>
      </trkpt>
      <trkpt lat="43.02147" lon="3.04807">
        <ele>1</ele>
        <time>2018-08-28T16:23:30+02:00</time>
      </trkpt>
      <trkpt lat="43.02158" lon="3.04777">
        <ele>1.3</ele>
        <time>2018-08-28T16:23:36+02:00</time>
      </trkpt>
      <trkpt lat="43.02168" lon="3.04745">
        <ele>1</ele>
        <time>2018-08-28T16:23:42+02:00</time>
      </trkpt>
      <trkpt lat="43.02179" lon="3.04713">
        <ele>1</ele>
        <time>2018-08-28T16:23:47+02:00</time>
      </trkpt>
      <trkpt lat="43.02191" lon="3.04683">
        <ele>1.1</ele>
        <time>2018-08-28T16:23:53+02:00</time>
      </trkpt>
      <trkpt lat="43.02197" lon="3.04651">
        <ele>1</ele>
        <time>2018-08-28T16:23:59+02:00</time>
      </trkpt>
      <trkpt lat="43.0221" lon="3.04621">
        <ele>2</ele>
        <time>2018-08-28T16:24:05+02:00</time>
      </trkpt>
      <trkpt lat="43.02218" lon="3.04591">
        <ele>1.4</ele>
        <time>2018-08-28T16:24:11+02:00</time>
      </trkpt>
      <trkpt lat="43.02227" lon="3.04559">
        <ele>1</ele>
        <time>2018-08-28T16:24:17+02:00</time>
      </trkpt>
      <trkpt lat="43.02235" lon="3.04527">
        <ele>1</ele>
        <time>2018-08-28T16:24:23+02:00</time>
      </trkpt>
      <trkpt lat="43.02242" lon="3.04498">
        <ele>1.3</ele>
        <time>2018-08-28T16:24:28+02:00</time>
      </trkpt>
      <trkpt lat="43.02256" lon="3.0447">
        <ele>1</ele>
        <time>2018-08-28T16:24:34+02:00</time>
      </trkpt>
      <trkpt lat="43.02265" lon="3.04436">
        <ele>1</ele>
        <time>2018-08-28T16:24:42+02:00</time>
      </trkpt>
      <trkpt lat="43.02272" lon="3.04402">
        <ele>1</ele>
        <time>2018-08-28T16:24:48+02:00</time>
      </trkpt>
      <trkpt lat="43.02284" lon="3.04373">
        <ele>1</ele>
        <time>2018-08-28T16:24:55+02:00</time>
      </trkpt>
      <trkpt lat="43.023" lon="3.04351">
        <ele>1.7</ele>
        <time>2018-08-28T16:25:00+02:00</time>
      </trkpt>
      <trkpt lat="43.02311" lon="3.04322">
        <ele>1.4</ele>
        <time>2018-08-28T16:25:05+02:00</time>
      </trkpt>
      <trkpt lat="43.02315" lon="3.04288">
        <ele>1</ele>
        <time>2018-08-28T16:25:11+02:00</time>
      </trkpt>
      <trkpt lat="43.02328" lon="3.04256">
        <ele>2</ele>
        <time>2018-08-28T16:25:17+02:00</time>
      </trkpt>
      <trkpt lat="43.02341" lon="3.04225">
        <ele>1</ele>
        <time>2018-08-28T16:25:23+02:00</time>
      </trkpt>
      <trkpt lat="43.02358" lon="3.04205">
        <ele>2.4</ele>
        <time>2018-08-28T16:25:31+02:00</time>
      </trkpt>
      <trkpt lat="43.02385" lon="3.04212">
        <time>2018-08-28T16:25:39+02:00</time>
      </trkpt>
      <trkpt lat="43.02409" lon="3.04228">
        <ele>1</ele>
        <time>2018-08-28T16:25:45+02:00</time>
      </trkpt>
      <trkpt lat="43.02435" lon="3.0424">
        <ele>1</ele>
        <time>2018-08-28T16:25:50+02:00</time>
      </trkpt>
      <trkpt lat="43.02459" lon="3.04248">
        <ele>1</ele>
        <time>2018-08-28T16:25:55+02:00</time>
      </trkpt>
      <trkpt lat="43.0248" lon="3.04261">
        <ele>1</ele>
        <time>2018-08-28T16:26:01+02:00</time>
      </trkpt>
      <trkpt lat="43.02501" lon="3.04248">
        <ele>1</ele>
        <time>2018-08-28T16:26:07+02:00</time>
      </trkpt>
      <trkpt lat="43.02524" lon="3.04243">
        <ele>1</ele>
        <time>2018-08-28T16:26:14+02:00</time>
      </trkpt>
      <trkpt lat="43.02548" lon="3.04247">
        <ele>1</ele>
        <time>2018-08-28T16:26:20+02:00</time>
      </trkpt>
      <trkpt lat="43.02569" lon="3.04235">
        <ele>1</ele>
        <time>2018-08-28T16:26:28+02:00</time>
      </trkpt>
      <trkpt lat="43.0259" lon="3.0425">
        <ele>1</ele>
        <time>2018-08-28T16:26:36+02:00</time>
      </trkpt>
      <trkpt lat="43.02612" lon="3.04263">
        <ele>1</ele>
        <time>2018-08-28T16:26:43+02:00</time>
      </trkpt>
      <trkpt lat="43.02632" lon="3.04277">
        <ele>1</ele>
        <time>2018-08-28T16:26:49+02:00</time>
      </trkpt>
      <trkpt lat="43.02653" lon="3.0429">
        <ele>1</ele>
        <time>2018-08-28T16:26:55+02:00</time>
      </trkpt>
      <trkpt lat="43.02677" lon="3.04304">
        <ele>1</ele>
        <time>2018-08-28T16:27:01+02:00</time>
      </trkpt>
      <trkpt lat="43.02699" lon="3.04315">
        <ele>1</ele>
        <time>2018-08-28T16:27:07+02:00</time>
      </trkpt>
      <trkpt lat="43.02721" lon="3.04332">
        <ele>1</ele>
        <time>2018-08-28T16:27:13+02:00</time>
      </trkpt>
      <trkpt lat="43.02745" lon="3.04347">
        <ele>1</ele>
        <time>2018-08-28T16:27:19+02:00</time>
      </trkpt>
      <trkpt lat="43.02767" lon="3.04358">
        <ele>1</ele>
        <time>2018-08-28T16:27:25+02:00</time>
      </trkpt>
      <trkpt lat="43.02786" lon="3.04374">
        <ele>1</ele>
        <time>2018-08-28T16:27:31+02:00</time>
      </trkpt>
      <trkpt lat="43.02808" lon="3.04386">
        <ele>1</ele>
        <time>2018-08-28T16:27:37+02:00</time>
      </trkpt>
      <trkpt lat="43.02831" lon="3.04397">
        <ele>1</ele>
        <time>2018-08-28T16:27:43+02:00</time>
      </trkpt>
      <trkpt lat="43.02852" lon="3.04407">
        <ele>1</ele>
        <time>2018-08-28T16:27:49+02:00</time>
      </trkpt>
      <trkpt lat="43.02875" lon="3.04421">
        <ele>1</ele>
        <time>2018-08-28T16:27:56+02:00</time>
      </trkpt>
      <trkpt lat="43.02895" lon="3.04439">
        <ele>1</ele>
        <time>2018-08-28T16:28:03+02:00</time>
      </trkpt>
      <trkpt lat="43.02916" lon="3.04453">
        <ele>1</ele>
        <time>2018-08-28T16:28:09+02:00</time>
      </trkpt>
      <trkpt lat="43.02939" lon="3.04469">
        <ele>1</ele>
        <time>2018-08-28T16:28:16+02:00</time>
      </trkpt>
      <trkpt lat="43.02963" lon="3.04484">
        <ele>1</ele>
        <time>2018-08-28T16:28:23+02:00</time>
      </trkpt>
      <trkpt lat="43.02983" lon="3.04498">
        <ele>1</ele>
        <time>2018-08-28T16:28:29+02:00</time>
      </trkpt>
      <trkpt lat="43.03006" lon="3.04513">
        <ele>1</ele>
        <time>2018-08-28T16:28:36+02:00</time>
      </trkpt>
      <trkpt lat="43.03027" lon="3.04524">
        <ele>1</ele>
        <time>2018-08-28T16:28:42+02:00</time>
      </trkpt>
      <trkpt lat="43.03047" lon="3.04541">
        <ele>1</ele>
        <time>2018-08-28T16:28:48+02:00</time>
      </trkpt>
      <trkpt lat="43.03069" lon="3.04551">
        <ele>1</ele>
        <time>2018-08-28T16:28:54+02:00</time>
      </trkpt>
      <trkpt lat="43.03091" lon="3.04564">
        <ele>1</ele>
        <time>2018-08-28T16:29:00+02:00</time>
      </trkpt>
      <trkpt lat="43.03112" lon="3.04578">
        <ele>1</ele>
        <time>2018-08-28T16:29:06+02:00</time>
      </trkpt>
      <trkpt lat="43.03136" lon="3.04591">
        <ele>1</ele>
        <time>2018-08-28T16:29:13+02:00</time>
      </trkpt>
      <trkpt lat="43.03158" lon="3.04605">
        <ele>1</ele>
        <time>2018-08-28T16:29:19+02:00</time>
      </trkpt>
      <trkpt lat="43.0318" lon="3.04619">
        <ele>1</ele>
        <time>2018-08-28T16:29:25+02:00</time>
      </trkpt>
      <trkpt lat="43.03201" lon="3.04632">
        <ele>1</ele>
        <time>2018-08-28T16:29:31+02:00</time>
      </trkpt>
      <trkpt lat="43.03222" lon="3.04645">
        <ele>1</ele>
        <time>2018-08-28T16:29:37+02:00</time>
      </trkpt>
      <trkpt lat="43.03243" lon="3.04658">
        <ele>1</ele>
        <time>2018-08-28T16:29:43+02:00</time>
      </trkpt>
      <trkpt lat="43.03264" lon="3.04674">
        <ele>1</ele>
        <time>2018-08-28T16:29:49+02:00</time>
      </trkpt>
      <trkpt lat="43.03288" lon="3.04687">
        <ele>1</ele>
        <time>2018-08-28T16:29:55+02:00</time>
      </trkpt>
      <trkpt lat="43.0331" lon="3.047">
        <ele>1</ele>
        <time>2018-08-28T16:30:01+02:00</time>
      </trkpt>
      <trkpt lat="43.03331" lon="3.04713">
        <ele>1</ele>
        <time>2018-08-28T16:30:07+02:00</time>
      </trkpt>
      <trkpt lat="43.03352" lon="3.04726">
        <ele>1</ele>
        <time>2018-08-28T16:30:13+02:00</time>
      </trkpt>
      <trkpt lat="43.03374" lon="3.04739">
        <ele>1</ele>
        <time>2018-08-28T16:30:19+02:00</time>
      </trkpt>
      <trkpt lat="43.03396" lon="3.04753">
        <ele>1</ele>
        <time>2018-08-28T16:30:26+02:00</time>
      </trkpt>
      <trkpt lat="43.03417" lon="3.04767">
        <ele>1</ele>
        <time>2018-08-28T16:30:32+02:00</time>
      </trkpt>
      <trkpt lat="43.03439" lon="3.04777">
        <ele>1</ele>
        <time>2018-08-28T16:30:37+02:00</time>
      </trkpt>
      <trkpt lat="43.03462" lon="3.04792">
        <ele>1</ele>
        <time>2018-08-28T16:30:43+02:00</time>
      </trkpt>
      <trkpt lat="43.03484" lon="3.04806">
        <ele>1</ele>
        <time>2018-08-28T16:30:49+02:00</time>
      </trkpt>
      <trkpt lat="43.03507" lon="3.04818">
        <ele>1.5</ele>
        <time>2018-08-28T16:30:55+02:00</time>
      </trkpt>
      <trkpt lat="43.03529" lon="3.04831">
        <ele>1</ele>
        <time>2018-08-28T16:31:01+02:00</time>
      </trkpt>
      <trkpt lat="43.03548" lon="3.04849">
        <ele>1</ele>
        <time>2018-08-28T16:31:07+02:00</time>
      </trkpt>
      <trkpt lat="43.03569" lon="3.04865">
        <ele>1</ele>
        <time>2018-08-28T16:31:13+02:00</time>
      </trkpt>
      <trkpt lat="43.03594" lon="3.04879">
        <ele>1</ele>
        <time>2018-08-28T16:31:19+02:00</time>
      </trkpt>
      <trkpt lat="43.03616" lon="3.04896">
        <ele>1</ele>
        <time>2018-08-28T16:31:25+02:00</time>
      </trkpt>
      <trkpt lat="43.0364" lon="3.04912">
        <ele>1</ele>
        <time>2018-08-28T16:31:31+02:00</time>
      </trkpt>
      <trkpt lat="43.03662" lon="3.04925">
        <ele>1</ele>
        <time>2018-08-28T16:31:37+02:00</time>
      </trkpt>
      <trkpt lat="43.03688" lon="3.04939">
        <ele>1</ele>
        <time>2018-08-28T16:31:43+02:00</time>
      </trkpt>
      <trkpt lat="43.03709" lon="3.04959">
        <ele>1</ele>
        <time>2018-08-28T16:31:50+02:00</time>
      </trkpt>
      <trkpt lat="43.03732" lon="3.04974">
        <ele>1</ele>
        <time>2018-08-28T16:31:56+02:00</time>
      </trkpt>
      <trkpt lat="43.03755" lon="3.04988">
        <ele>1</ele>
        <time>2018-08-28T16:32:02+02:00</time>
      </trkpt>
      <trkpt lat="43.03775" lon="3.05002">
        <ele>1</ele>
        <time>2018-08-28T16:32:08+02:00</time>
      </trkpt>
      <trkpt lat="43.03798" lon="3.05015">
        <ele>1</ele>
        <time>2018-08-28T16:32:14+02:00</time>
      </trkpt>
      <trkpt lat="43.03819" lon="3.05029">
        <ele>1</ele>
        <time>2018-08-28T16:32:20+02:00</time>
      </trkpt>
      <trkpt lat="43.03841" lon="3.05044">
        <ele>1</ele>
        <time>2018-08-28T16:32:26+02:00</time>
      </trkpt>
      <trkpt lat="43.03864" lon="3.05059">
        <ele>1</ele>
        <time>2018-08-28T16:32:32+02:00</time>
      </trkpt>
      <trkpt lat="43.03886" lon="3.05074">
        <ele>1</ele>
        <time>2018-08-28T16:32:38+02:00</time>
      </trkpt>
      <trkpt lat="43.03907" lon="3.05085">
        <ele>1</ele>
        <time>2018-08-28T16:32:43+02:00</time>
      </trkpt>
      <trkpt lat="43.03928" lon="3.051">
        <ele>1</ele>
        <time>2018-08-28T16:32:49+02:00</time>
      </trkpt>
      <trkpt lat="43.03951" lon="3.05114">
        <ele>1</ele>
        <time>2018-08-28T16:32:55+02:00</time>
      </trkpt>
      <trkpt lat="43.03974" lon="3.05127">
        <ele>1</ele>
        <time>2018-08-28T16:33:01+02:00</time>
      </trkpt>
      <trkpt lat="43.03997" lon="3.05143">
        <ele>1</ele>
        <time>2018-08-28T16:33:07+02:00</time>
      </trkpt>
      <trkpt lat="43.04019" lon="3.05157">
        <ele>1</ele>
        <time>2018-08-28T16:33:13+02:00</time>
      </trkpt>
      <trkpt lat="43.04042" lon="3.05172">
        <ele>1</ele>
        <time>2018-08-28T16:33:19+02:00</time>
      </trkpt>
      <trkpt lat="43.04063" lon="3.05187">
        <ele>1</ele>
        <time>2018-08-28T16:33:25+02:00</time>
      </trkpt>
      <trkpt lat="43.04086" lon="3.052">
        <ele>1</ele>
        <time>2018-08-28T16:33:31+02:00</time>
      </trkpt>
      <trkpt lat="43.04107" lon="3.05214">
        <ele>1</ele>
        <time>2018-08-28T16:33:37+02:00</time>
      </trkpt>
      <trkpt lat="43.04129" lon="3.05229">
        <ele>1</ele>
        <time>2018-08-28T16:33:43+02:00</time>
      </trkpt>
      <trkpt lat="43.04152" lon="3.05245">
        <ele>1</ele>
        <time>2018-08-28T16:33:50+02:00</time>
      </trkpt>
      <trkpt lat="43.04174" lon="3.05259">
        <ele>1</ele>
        <time>2018-08-28T16:33:56+02:00</time>
      </trkpt>
      <trkpt lat="43.04196" lon="3.05272">
        <ele>1</ele>
        <time>2018-08-28T16:34:02+02:00</time>
      </trkpt>
      <trkpt lat="43.04217" lon="3.05285">
        <ele>1</ele>
        <time>2018-08-28T16:34:08+02:00</time>
      </trkpt>
      <trkpt lat="43.04238" lon="3.05299">
        <ele>1</ele>
        <time>2018-08-28T16:34:15+02:00</time>
      </trkpt>
      <trkpt lat="43.0426" lon="3.05317">
        <ele>1</ele>
        <time>2018-08-28T16:34:23+02:00</time>
      </trkpt>
      <trkpt lat="43.04282" lon="3.05327">
        <ele>1</ele>
        <time>2018-08-28T16:34:30+02:00</time>
      </trkpt>
      <trkpt lat="43.04304" lon="3.0534">
        <ele>1</ele>
        <time>2018-08-28T16:34:38+02:00</time>
      </trkpt>
      <trkpt lat="43.04328" lon="3.05354">
        <ele>1</ele>
        <time>2018-08-28T16:34:45+02:00</time>
      </trkpt>
      <trkpt lat="43.0435" lon="3.05366">
        <ele>1</ele>
        <time>2018-08-28T16:34:51+02:00</time>
      </trkpt>
      <trkpt lat="43.04372" lon="3.05378">
        <ele>1</ele>
        <time>2018-08-28T16:34:57+02:00</time>
      </trkpt>
      <trkpt lat="43.04394" lon="3.05392">
        <ele>1</ele>
        <time>2018-08-28T16:35:03+02:00</time>
      </trkpt>
      <trkpt lat="43.04414" lon="3.05409">
        <ele>1</ele>
        <time>2018-08-28T16:35:09+02:00</time>
      </trkpt>
      <trkpt lat="43.04435" lon="3.05424">
        <ele>1</ele>
        <time>2018-08-28T16:35:15+02:00</time>
      </trkpt>
      <trkpt lat="43.04455" lon="3.0544">
        <ele>1</ele>
        <time>2018-08-28T16:35:21+02:00</time>
      </trkpt>
      <trkpt lat="43.0448" lon="3.05452">
        <ele>1</ele>
        <time>2018-08-28T16:35:29+02:00</time>
      </trkpt>
      <trkpt lat="43.04501" lon="3.0547">
        <ele>1</ele>
        <time>2018-08-28T16:35:35+02:00</time>
      </trkpt>
      <trkpt lat="43.04525" lon="3.05479">
        <ele>1</ele>
        <time>2018-08-28T16:35:42+02:00</time>
      </trkpt>
      <trkpt lat="43.04545" lon="3.05496">
        <ele>1</ele>
        <time>2018-08-28T16:35:49+02:00</time>
      </trkpt>
      <trkpt lat="43.04566" lon="3.05509">
        <ele>1</ele>
        <time>2018-08-28T16:35:55+02:00</time>
      </trkpt>
      <trkpt lat="43.04587" lon="3.05523">
        <ele>1</ele>
        <time>2018-08-28T16:36:01+02:00</time>
      </trkpt>
      <trkpt lat="43.04608" lon="3.05537">
        <ele>1</ele>
        <time>2018-08-28T16:36:07+02:00</time>
      </trkpt>
      <trkpt lat="43.04631" lon="3.05548">
        <ele>1</ele>
        <time>2018-08-28T16:36:13+02:00</time>
      </trkpt>
      <trkpt lat="43.04652" lon="3.05565">
        <ele>1</ele>
        <time>2018-08-28T16:36:22+02:00</time>
      </trkpt>
      <trkpt lat="43.04675" lon="3.05575">
        <ele>1</ele>
        <time>2018-08-28T16:36:28+02:00</time>
      </trkpt>
      <trkpt lat="43.04698" lon="3.05589">
        <ele>1</ele>
        <time>2018-08-28T16:36:37+02:00</time>
      </trkpt>
      <trkpt lat="43.04718" lon="3.05604">
        <ele>1</ele>
        <time>2018-08-28T16:36:48+02:00</time>
      </trkpt>
      <trkpt lat="43.04738" lon="3.05621">
        <ele>1</ele>
        <time>2018-08-28T16:37:12+02:00</time>
      </trkpt>
      <trkpt lat="43.04722" lon="3.05599">
        <ele>1</ele>
        <time>2018-08-28T16:46:26+02:00</time>
      </trkpt>
      <trkpt lat="43.04701" lon="3.05588">
        <ele>1</ele>
        <time>2018-08-28T16:46:43+02:00</time>
      </trkpt>
      <trkpt lat="43.04722" lon="3.05576">
        <ele>1</ele>
        <time>2018-08-28T16:48:43+02:00</time>
      </trkpt>
      <trkpt lat="43.04745" lon="3.05563">
        <ele>1</ele>
        <time>2018-08-28T16:49:01+02:00</time>
      </trkpt>
      <trkpt lat="43.04759" lon="3.05535">
        <ele>1</ele>
        <time>2018-08-28T16:49:15+02:00</time>
      </trkpt>
      <trkpt lat="43.04771" lon="3.05508">
        <ele>2</ele>
        <time>2018-08-28T16:49:24+02:00</time>
      </trkpt>
      <trkpt lat="43.04784" lon="3.05477">
        <ele>2</ele>
        <time>2018-08-28T16:49:33+02:00</time>
      </trkpt>
      <trkpt lat="43.04792" lon="3.05446">
        <ele>2</ele>
        <time>2018-08-28T16:49:42+02:00</time>
      </trkpt>
      <trkpt lat="43.04793" lon="3.05414">
        <ele>3</ele>
        <time>2018-08-28T16:49:50+02:00</time>
      </trkpt>
      <trkpt lat="43.04783" lon="3.05385">
        <ele>4</ele>
        <time>2018-08-28T16:50:00+02:00</time>
      </trkpt>
      <trkpt lat="43.04775" lon="3.05355">
        <ele>4</ele>
        <time>2018-08-28T16:50:14+02:00</time>
      </trkpt>
      <trkpt lat="43.04779" lon="3.05324">
        <ele>5</ele>
        <time>2018-08-28T16:50:26+02:00</time>
      </trkpt>
      <trkpt lat="43.04782" lon="3.05292">
        <ele>5</ele>
        <time>2018-08-28T16:50:36+02:00</time>
      </trkpt>
      <trkpt lat="43.04788" lon="3.0526">
        <ele>6</ele>
        <time>2018-08-28T16:50:47+02:00</time>
      </trkpt>
      <trkpt lat="43.04795" lon="3.05228">
        <ele>6</ele>
        <time>2018-08-28T16:50:58+02:00</time>
      </trkpt>
      <trkpt lat="43.048" lon="3.05193">
        <ele>7</ele>
        <time>2018-08-28T16:51:08+02:00</time>
      </trkpt>
      <trkpt lat="43.04809" lon="3.05159">
        <ele>7</ele>
        <time>2018-08-28T16:51:15+02:00</time>
      </trkpt>
      <trkpt lat="43.0482" lon="3.05132">
        <ele>7</ele>
        <time>2018-08-28T16:51:24+02:00</time>
      </trkpt>
      <trkpt lat="43.04842" lon="3.05119">
        <ele>8</ele>
        <time>2018-08-28T16:51:32+02:00</time>
      </trkpt>
      <trkpt lat="43.04864" lon="3.05111">
        <ele>8</ele>
        <time>2018-08-28T16:51:39+02:00</time>
      </trkpt>
      <trkpt lat="43.04886" lon="3.05101">
        <ele>8</ele>
        <time>2018-08-28T16:51:48+02:00</time>
      </trkpt>
      <trkpt lat="43.04909" lon="3.05091">
        <ele>8</ele>
        <time>2018-08-28T16:51:56+02:00</time>
      </trkpt>
      <trkpt lat="43.04929" lon="3.05073">
        <ele>8</ele>
        <time>2018-08-28T16:52:04+02:00</time>
      </trkpt>
      <trkpt lat="43.04946" lon="3.05051">
        <ele>9</ele>
        <time>2018-08-28T16:52:11+02:00</time>
      </trkpt>
      <trkpt lat="43.04959" lon="3.05023">
        <ele>9</ele>
        <time>2018-08-28T16:52:19+02:00</time>
      </trkpt>
      <trkpt lat="43.04968" lon="3.04993">
        <ele>10</ele>
        <time>2018-08-28T16:52:26+02:00</time>
      </trkpt>
      <trkpt lat="43.0498" lon="3.04961">
        <ele>10</ele>
        <time>2018-08-28T16:52:34+02:00</time>
      </trkpt>
      <trkpt lat="43.04987" lon="3.04932">
        <ele>10</ele>
        <time>2018-08-28T16:52:43+02:00</time>
      </trkpt>
      <trkpt lat="43.04985" lon="3.04899">
        <ele>11</ele>
        <time>2018-08-28T16:52:52+02:00</time>
      </trkpt>
      <trkpt lat="43.04988" lon="3.04868">
        <ele>11</ele>
        <time>2018-08-28T16:52:59+02:00</time>
      </trkpt>
      <trkpt lat="43.04994" lon="3.04837">
        <ele>11</ele>
        <time>2018-08-28T16:53:08+02:00</time>
      </trkpt>
      <trkpt lat="43.05002" lon="3.04805">
        <ele>12</ele>
        <time>2018-08-28T16:53:17+02:00</time>
      </trkpt>
      <trkpt lat="43.05016" lon="3.04778">
        <ele>13</ele>
        <time>2018-08-28T16:53:26+02:00</time>
      </trkpt>
      <trkpt lat="43.0503" lon="3.04753">
        <ele>13</ele>
        <time>2018-08-28T16:53:35+02:00</time>
      </trkpt>
      <trkpt lat="43.05047" lon="3.04728">
        <ele>14</ele>
        <time>2018-08-28T16:53:44+02:00</time>
      </trkpt>
      <trkpt lat="43.05067" lon="3.04711">
        <ele>14</ele>
        <time>2018-08-28T16:53:53+02:00</time>
      </trkpt>
      <trkpt lat="43.05086" lon="3.04692">
        <ele>15</ele>
        <time>2018-08-28T16:54:01+02:00</time>
      </trkpt>
      <trkpt lat="43.05106" lon="3.04673">
        <ele>15</ele>
        <time>2018-08-28T16:54:09+02:00</time>
      </trkpt>
      <trkpt lat="43.05127" lon="3.04658">
        <ele>15</ele>
        <time>2018-08-28T16:54:16+02:00</time>
      </trkpt>
      <trkpt lat="43.05149" lon="3.04647">
        <ele>15</ele>
        <time>2018-08-28T16:54:24+02:00</time>
      </trkpt>
      <trkpt lat="43.05173" lon="3.04638">
        <ele>15</ele>
        <time>2018-08-28T16:54:32+02:00</time>
      </trkpt>
      <trkpt lat="43.05197" lon="3.04631">
        <ele>15</ele>
        <time>2018-08-28T16:54:40+02:00</time>
      </trkpt>
      <trkpt lat="43.05222" lon="3.04627">
        <ele>15</ele>
        <time>2018-08-28T16:54:48+02:00</time>
      </trkpt>
      <trkpt lat="43.05248" lon="3.04624">
        <ele>15</ele>
        <time>2018-08-28T16:54:56+02:00</time>
      </trkpt>
      <trkpt lat="43.0527" lon="3.04625">
        <ele>14</ele>
        <time>2018-08-28T16:55:03+02:00</time>
      </trkpt>
      <trkpt lat="43.05293" lon="3.04628">
        <ele>14</ele>
        <time>2018-08-28T16:55:10+02:00</time>
      </trkpt>
      <trkpt lat="43.05317" lon="3.04619">
        <ele>15</ele>
        <time>2018-08-28T16:55:18+02:00</time>
      </trkpt>
      <trkpt lat="43.05335" lon="3.04599">
        <ele>15</ele>
        <time>2018-08-28T16:55:24+02:00</time>
      </trkpt>
      <trkpt lat="43.05354" lon="3.04577">
        <ele>15</ele>
        <time>2018-08-28T16:55:31+02:00</time>
      </trkpt>
      <trkpt lat="43.05373" lon="3.04556">
        <ele>15</ele>
        <time>2018-08-28T16:55:39+02:00</time>
      </trkpt>
      <trkpt lat="43.05392" lon="3.04536">
        <ele>15</ele>
        <time>2018-08-28T16:55:46+02:00</time>
      </trkpt>
      <trkpt lat="43.05413" lon="3.04519">
        <ele>15</ele>
        <time>2018-08-28T16:55:55+02:00</time>
      </trkpt>
      <trkpt lat="43.05432" lon="3.045">
        <ele>15</ele>
        <time>2018-08-28T16:56:02+02:00</time>
      </trkpt>
      <trkpt lat="43.05449" lon="3.04479">
        <ele>15</ele>
        <time>2018-08-28T16:56:09+02:00</time>
      </trkpt>
      <trkpt lat="43.05467" lon="3.04458">
        <ele>15</ele>
        <time>2018-08-28T16:56:18+02:00</time>
      </trkpt>
      <trkpt lat="43.05487" lon="3.04439">
        <ele>15</ele>
        <time>2018-08-28T16:56:26+02:00</time>
      </trkpt>
      <trkpt lat="43.05497" lon="3.04411">
        <ele>16</ele>
        <time>2018-08-28T16:56:33+02:00</time>
      </trkpt>
      <trkpt lat="43.05511" lon="3.04384">
        <ele>16</ele>
        <time>2018-08-28T16:56:41+02:00</time>
      </trkpt>
      <trkpt lat="43.05531" lon="3.04369">
        <ele>14</ele>
        <time>2018-08-28T16:56:51+02:00</time>
      </trkpt>
      <trkpt lat="43.05543" lon="3.04342">
        <ele>11</ele>
        <time>2018-08-28T16:58:01+02:00</time>
      </trkpt>
      <trkpt lat="43.05543" lon="3.04309">
        <ele>12</ele>
        <time>2018-08-28T16:58:09+02:00</time>
      </trkpt>
      <trkpt lat="43.05538" lon="3.04278">
        <ele>12</ele>
        <time>2018-08-28T16:58:16+02:00</time>
      </trkpt>
      <trkpt lat="43.05528" lon="3.0425">
        <ele>14</ele>
        <time>2018-08-28T16:58:25+02:00</time>
      </trkpt>
      <trkpt lat="43.05521" lon="3.04219">
        <ele>13</ele>
        <time>2018-08-28T16:58:34+02:00</time>
      </trkpt>
      <trkpt lat="43.05519" lon="3.04186">
        <ele>12</ele>
        <time>2018-08-28T16:58:42+02:00</time>
      </trkpt>
      <trkpt lat="43.05527" lon="3.04157">
        <ele>11</ele>
        <time>2018-08-28T16:58:50+02:00</time>
      </trkpt>
      <trkpt lat="43.05536" lon="3.04126">
        <ele>10</ele>
        <time>2018-08-28T16:58:57+02:00</time>
      </trkpt>
      <trkpt lat="43.05551" lon="3.04102">
        <ele>9</ele>
        <time>2018-08-28T16:59:05+02:00</time>
      </trkpt>
      <trkpt lat="43.05568" lon="3.04081">
        <ele>9</ele>
        <time>2018-08-28T16:59:11+02:00</time>
      </trkpt>
      <trkpt lat="43.05582" lon="3.04053">
        <ele>10</ele>
        <time>2018-08-28T16:59:18+02:00</time>
      </trkpt>
      <trkpt lat="43.05601" lon="3.04031">
        <ele>11</ele>
        <time>2018-08-28T16:59:25+02:00</time>
      </trkpt>
      <trkpt lat="43.05618" lon="3.04008">
        <ele>13</ele>
        <time>2018-08-28T16:59:34+02:00</time>
      </trkpt>
      <trkpt lat="43.05639" lon="3.03989">
        <ele>15</ele>
        <time>2018-08-28T16:59:43+02:00</time>
      </trkpt>
      <trkpt lat="43.05659" lon="3.0397">
        <ele>14</ele>
        <time>2018-08-28T16:59:51+02:00</time>
      </trkpt>
      <trkpt lat="43.05683" lon="3.03965">
        <ele>13</ele>
        <time>2018-08-28T17:00:02+02:00</time>
      </trkpt>
      <trkpt lat="43.05704" lon="3.03955">
        <ele>12</ele>
        <time>2018-08-28T17:00:10+02:00</time>
      </trkpt>
      <trkpt lat="43.05725" lon="3.03942">
        <ele>11</ele>
        <time>2018-08-28T17:00:17+02:00</time>
      </trkpt>
      <trkpt lat="43.05746" lon="3.03926">
        <ele>10</ele>
        <time>2018-08-28T17:00:27+02:00</time>
      </trkpt>
      <trkpt lat="43.05767" lon="3.0391">
        <ele>10</ele>
        <time>2018-08-28T17:00:36+02:00</time>
      </trkpt>
      <trkpt lat="43.05787" lon="3.03895">
        <ele>11</ele>
        <time>2018-08-28T17:00:45+02:00</time>
      </trkpt>
      <trkpt lat="43.05809" lon="3.03883">
        <ele>11</ele>
        <time>2018-08-28T17:00:53+02:00</time>
      </trkpt>
      <trkpt lat="43.05828" lon="3.03864">
        <ele>13</ele>
        <time>2018-08-28T17:01:01+02:00</time>
      </trkpt>
      <trkpt lat="43.05847" lon="3.03843">
        <ele>13</ele>
        <time>2018-08-28T17:01:08+02:00</time>
      </trkpt>
      <trkpt lat="43.05867" lon="3.03822">
        <ele>13</ele>
        <time>2018-08-28T17:01:16+02:00</time>
      </trkpt>
      <trkpt lat="43.05882" lon="3.03799">
        <ele>15</ele>
        <time>2018-08-28T17:01:25+02:00</time>
      </trkpt>
      <trkpt lat="43.05894" lon="3.03772">
        <ele>17</ele>
        <time>2018-08-28T17:01:35+02:00</time>
      </trkpt>
      <trkpt lat="43.05903" lon="3.0374">
        <ele>18</ele>
        <time>2018-08-28T17:01:47+02:00</time>
      </trkpt>
      <trkpt lat="43.05921" lon="3.0372">
        <ele>19</ele>
        <time>2018-08-28T17:01:58+02:00</time>
      </trkpt>
      <trkpt lat="43.05935" lon="3.03696">
        <ele>19</ele>
        <time>2018-08-28T17:02:08+02:00</time>
      </trkpt>
      <trkpt lat="43.0595" lon="3.03673">
        <ele>19</ele>
        <time>2018-08-28T17:02:18+02:00</time>
      </trkpt>
      <trkpt lat="43.05958" lon="3.03644">
        <ele>19</ele>
        <time>2018-08-28T17:03:02+02:00</time>
      </trkpt>
      <trkpt lat="43.05957" lon="3.03609">
        <ele>22</ele>
        <time>2018-08-28T17:03:51+02:00</time>
      </trkpt>
      <trkpt lat="43.05954" lon="3.03578">
        <ele>24</ele>
        <time>2018-08-28T17:03:59+02:00</time>
      </trkpt>
      <trkpt lat="43.05972" lon="3.0356">
        <ele>25</ele>
        <time>2018-08-28T17:04:06+02:00</time>
      </trkpt>
      <trkpt lat="43.05997" lon="3.03551">
        <ele>20</ele>
        <time>2018-08-28T17:04:14+02:00</time>
      </trkpt>
      <trkpt lat="43.0601" lon="3.03522">
        <ele>19</ele>
        <time>2018-08-28T17:04:20+02:00</time>
      </trkpt>
      <trkpt lat="43.06021" lon="3.03488">
        <ele>18</ele>
        <time>2018-08-28T17:04:25+02:00</time>
      </trkpt>
      <trkpt lat="43.06029" lon="3.03458">
        <ele>21</ele>
        <time>2018-08-28T17:04:30+02:00</time>
      </trkpt>
      <trkpt lat="43.06044" lon="3.03431">
        <ele>20</ele>
        <time>2018-08-28T17:04:37+02:00</time>
      </trkpt>
      <trkpt lat="43.06055" lon="3.03405">
        <ele>22</ele>
        <time>2018-08-28T17:06:26+02:00</time>
      </trkpt>
      <trkpt lat="43.06064" lon="3.03372">
        <ele>22</ele>
        <time>2018-08-28T17:06:37+02:00</time>
      </trkpt>
      <trkpt lat="43.06068" lon="3.03338">
        <ele>22</ele>
        <time>2018-08-28T17:06:47+02:00</time>
      </trkpt>
      <trkpt lat="43.06072" lon="3.03306">
        <ele>23</ele>
        <time>2018-08-28T17:06:56+02:00</time>
      </trkpt>
      <trkpt lat="43.06074" lon="3.03274">
        <ele>25</ele>
        <time>2018-08-28T17:07:04+02:00</time>
      </trkpt>
      <trkpt lat="43.06085" lon="3.03246">
        <ele>25</ele>
        <time>2018-08-28T17:07:12+02:00</time>
      </trkpt>
      <trkpt lat="43.06099" lon="3.03219">
        <ele>24</ele>
        <time>2018-08-28T17:07:21+02:00</time>
      </trkpt>
      <trkpt lat="43.06111" lon="3.03193">
        <ele>26</ele>
        <time>2018-08-28T17:07:31+02:00</time>
      </trkpt>
      <trkpt lat="43.06114" lon="3.03159">
        <ele>26</ele>
        <time>2018-08-28T17:08:15+02:00</time>
      </trkpt>
      <trkpt lat="43.06121" lon="3.03128">
        <ele>24</ele>
        <time>2018-08-28T17:08:22+02:00</time>
      </trkpt>
      <trkpt lat="43.06126" lon="3.03098">
        <ele>23</ele>
        <time>2018-08-28T17:08:29+02:00</time>
      </trkpt>
      <trkpt lat="43.06123" lon="3.03065">
        <ele>25</ele>
        <time>2018-08-28T17:08:38+02:00</time>
      </trkpt>
      <trkpt lat="43.06101" lon="3.03054">
        <ele>29</ele>
        <time>2018-08-28T17:09:29+02:00</time>
      </trkpt>
      <trkpt lat="43.06081" lon="3.03033">
        <ele>30</ele>
        <time>2018-08-28T17:09:36+02:00</time>
      </trkpt>
      <trkpt lat="43.06064" lon="3.03011">
        <ele>30</ele>
        <time>2018-08-28T17:09:43+02:00</time>
      </trkpt>
      <trkpt lat="43.06045" lon="3.02992">
        <ele>30</ele>
        <time>2018-08-28T17:09:49+02:00</time>
      </trkpt>
      <trkpt lat="43.06023" lon="3.02978">
        <ele>30</ele>
        <time>2018-08-28T17:09:55+02:00</time>
      </trkpt>
      <trkpt lat="43.06001" lon="3.02963">
        <ele>30</ele>
        <time>2018-08-28T17:10:02+02:00</time>
      </trkpt>
      <trkpt lat="43.05979" lon="3.02946">
        <ele>30</ele>
        <time>2018-08-28T17:10:11+02:00</time>
      </trkpt>
      <trkpt lat="43.0596" lon="3.02928">
        <ele>30</ele>
        <time>2018-08-28T17:10:20+02:00</time>
      </trkpt>
      <trkpt lat="43.05939" lon="3.0291">
        <ele>30</ele>
        <time>2018-08-28T17:10:30+02:00</time>
      </trkpt>
      <trkpt lat="43.05919" lon="3.02896">
        <ele>30</ele>
        <time>2018-08-28T17:10:41+02:00</time>
      </trkpt>
      <trkpt lat="43.05898" lon="3.02881">
        <ele>30</ele>
        <time>2018-08-28T17:10:52+02:00</time>
      </trkpt>
      <trkpt lat="43.05881" lon="3.02901">
        <ele>30</ele>
        <time>2018-08-28T17:12:17+02:00</time>
      </trkpt>
      <trkpt lat="43.05858" lon="3.02912">
        <ele>30</ele>
        <time>2018-08-28T17:12:24+02:00</time>
      </trkpt>
      <trkpt lat="43.05836" lon="3.02928">
        <ele>30</ele>
        <time>2018-08-28T17:12:31+02:00</time>
      </trkpt>
      <trkpt lat="43.05822" lon="3.02953">
        <ele>30</ele>
        <time>2018-08-28T17:12:38+02:00</time>
      </trkpt>
      <trkpt lat="43.05801" lon="3.02964">
        <ele>29</ele>
        <time>2018-08-28T17:12:59+02:00</time>
      </trkpt>
      <trkpt lat="43.05821" lon="3.0298">
        <ele>30</ele>
        <time>2018-08-28T17:17:50+02:00</time>
      </trkpt>
      <trkpt lat="43.0584" lon="3.03002">
        <ele>30</ele>
        <time>2018-08-28T17:17:59+02:00</time>
      </trkpt>
      <trkpt lat="43.05859" lon="3.03026">
        <ele>30</ele>
        <time>2018-08-28T17:18:07+02:00</time>
      </trkpt>
      <trkpt lat="43.05878" lon="3.03048">
        <ele>30</ele>
        <time>2018-08-28T17:18:14+02:00</time>
      </trkpt>
      <trkpt lat="43.05898" lon="3.03066">
        <ele>30</ele>
        <time>2018-08-28T17:18:20+02:00</time>
      </trkpt>
      <trkpt lat="43.05919" lon="3.03085">
        <ele>30</ele>
        <time>2018-08-28T17:18:26+02:00</time>
      </trkpt>
      <trkpt lat="43.0591" lon="3.03117">
        <ele>30</ele>
        <time>2018-08-28T17:18:33+02:00</time>
      </trkpt>
      <trkpt lat="43.05896" lon="3.03145">
        <ele>29</ele>
        <time>2018-08-28T17:18:41+02:00</time>
      </trkpt>
      <trkpt lat="43.05881" lon="3.0317">
        <ele>30</ele>
        <time>2018-08-28T17:18:48+02:00</time>
      </trkpt>
      <trkpt lat="43.05862" lon="3.03196">
        <ele>30</ele>
        <time>2018-08-28T17:18:55+02:00</time>
      </trkpt>
      <trkpt lat="43.05846" lon="3.03222">
        <ele>29</ele>
        <time>2018-08-28T17:19:00+02:00</time>
      </trkpt>
      <trkpt lat="43.05833" lon="3.03247">
        <ele>30</ele>
        <time>2018-08-28T17:19:05+02:00</time>
      </trkpt>
      <trkpt lat="43.05814" lon="3.0327">
        <ele>30</ele>
        <time>2018-08-28T17:19:12+02:00</time>
      </trkpt>
      <trkpt lat="43.05793" lon="3.0328">
        <ele>30</ele>
        <time>2018-08-28T17:19:20+02:00</time>
      </trkpt>
      <trkpt lat="43.05771" lon="3.03291">
        <ele>29</ele>
        <time>2018-08-28T17:19:26+02:00</time>
      </trkpt>
      <trkpt lat="43.0575" lon="3.03306">
        <ele>30</ele>
        <time>2018-08-28T17:19:32+02:00</time>
      </trkpt>
      <trkpt lat="43.05726" lon="3.03323">
        <ele>30</ele>
        <time>2018-08-28T17:19:39+02:00</time>
      </trkpt>
      <trkpt lat="43.05707" lon="3.03343">
        <ele>29</ele>
        <time>2018-08-28T17:19:46+02:00</time>
      </trkpt>
      <trkpt lat="43.05688" lon="3.03359">
        <ele>29</ele>
        <time>2018-08-28T17:19:52+02:00</time>
      </trkpt>
      <trkpt lat="43.05669" lon="3.03381">
        <ele>29</ele>
        <time>2018-08-28T17:19:58+02:00</time>
      </trkpt>
      <trkpt lat="43.05653" lon="3.03402">
        <ele>28</ele>
        <time>2018-08-28T17:20:04+02:00</time>
      </trkpt>
      <trkpt lat="43.05637" lon="3.03427">
        <ele>28</ele>
        <time>2018-08-28T17:20:11+02:00</time>
      </trkpt>
      <trkpt lat="43.0562" lon="3.03453">
        <ele>28</ele>
        <time>2018-08-28T17:20:18+02:00</time>
      </trkpt>
      <trkpt lat="43.05602" lon="3.03479">
        <ele>26</ele>
        <time>2018-08-28T17:20:26+02:00</time>
      </trkpt>
      <trkpt lat="43.05593" lon="3.03506">
        <ele>26</ele>
        <time>2018-08-28T17:20:32+02:00</time>
      </trkpt>
      <trkpt lat="43.05578" lon="3.03531">
        <ele>25</ele>
        <time>2018-08-28T17:20:38+02:00</time>
      </trkpt>
      <trkpt lat="43.05568" lon="3.0356">
        <ele>24</ele>
        <time>2018-08-28T17:20:44+02:00</time>
      </trkpt>
      <trkpt lat="43.05557" lon="3.03591">
        <ele>24</ele>
        <time>2018-08-28T17:20:51+02:00</time>
      </trkpt>
      <trkpt lat="43.05549" lon="3.03619">
        <ele>25</ele>
        <time>2018-08-28T17:20:57+02:00</time>
      </trkpt>
      <trkpt lat="43.05536" lon="3.03648">
        <ele>25</ele>
        <time>2018-08-28T17:21:04+02:00</time>
      </trkpt>
      <trkpt lat="43.0552" lon="3.0367">
        <ele>25</ele>
        <time>2018-08-28T17:21:11+02:00</time>
      </trkpt>
      <trkpt lat="43.05502" lon="3.03693">
        <ele>24</ele>
        <time>2018-08-28T17:21:17+02:00</time>
      </trkpt>
      <trkpt lat="43.05483" lon="3.03716">
        <ele>25</ele>
        <time>2018-08-28T17:21:23+02:00</time>
      </trkpt>
      <trkpt lat="43.05466" lon="3.03737">
        <ele>25</ele>
        <time>2018-08-28T17:21:28+02:00</time>
      </trkpt>
      <trkpt lat="43.05455" lon="3.03767">
        <ele>25</ele>
        <time>2018-08-28T17:21:34+02:00</time>
      </trkpt>
      <trkpt lat="43.05435" lon="3.03788">
        <ele>25</ele>
        <time>2018-08-28T17:21:41+02:00</time>
      </trkpt>
      <trkpt lat="43.05413" lon="3.03804">
        <ele>25</ele>
        <time>2018-08-28T17:21:48+02:00</time>
      </trkpt>
      <trkpt lat="43.0539" lon="3.03816">
        <ele>25</ele>
        <time>2018-08-28T17:21:54+02:00</time>
      </trkpt>
      <trkpt lat="43.05368" lon="3.03827">
        <ele>25</ele>
        <time>2018-08-28T17:21:59+02:00</time>
      </trkpt>
      <trkpt lat="43.0535" lon="3.0385">
        <ele>24</ele>
        <time>2018-08-28T17:22:04+02:00</time>
      </trkpt>
      <trkpt lat="43.05332" lon="3.03872">
        <ele>24</ele>
        <time>2018-08-28T17:22:09+02:00</time>
      </trkpt>
      <trkpt lat="43.05324" lon="3.03903">
        <ele>24</ele>
        <time>2018-08-28T17:22:13+02:00</time>
      </trkpt>
      <trkpt lat="43.05323" lon="3.03937">
        <ele>23</ele>
        <time>2018-08-28T17:22:19+02:00</time>
      </trkpt>
      <trkpt lat="43.05321" lon="3.03973">
        <ele>22</ele>
        <time>2018-08-28T17:22:26+02:00</time>
      </trkpt>
      <trkpt lat="43.05323" lon="3.04008">
        <ele>21</ele>
        <time>2018-08-28T17:22:33+02:00</time>
      </trkpt>
      <trkpt lat="43.05319" lon="3.04038">
        <ele>20</ele>
        <time>2018-08-28T17:22:44+02:00</time>
      </trkpt>
      <trkpt lat="43.05323" lon="3.04069">
        <ele>19</ele>
        <time>2018-08-28T17:22:53+02:00</time>
      </trkpt>
      <trkpt lat="43.05334" lon="3.04097">
        <ele>16</ele>
        <time>2018-08-28T17:23:00+02:00</time>
      </trkpt>
      <trkpt lat="43.05347" lon="3.04131">
        <ele>14</ele>
        <time>2018-08-28T17:23:07+02:00</time>
      </trkpt>
      <trkpt lat="43.05368" lon="3.04149">
        <ele>14</ele>
        <time>2018-08-28T17:23:13+02:00</time>
      </trkpt>
      <trkpt lat="43.05393" lon="3.0416">
        <ele>15</ele>
        <time>2018-08-28T17:23:18+02:00</time>
      </trkpt>
      <trkpt lat="43.05411" lon="3.04179">
        <ele>16</ele>
        <time>2018-08-28T17:23:25+02:00</time>
      </trkpt>
      <trkpt lat="43.05427" lon="3.04203">
        <ele>15</ele>
        <time>2018-08-28T17:23:33+02:00</time>
      </trkpt>
      <trkpt lat="43.05441" lon="3.04228">
        <ele>16</ele>
        <time>2018-08-28T17:23:39+02:00</time>
      </trkpt>
      <trkpt lat="43.05452" lon="3.04257">
        <ele>15</ele>
        <time>2018-08-28T17:23:45+02:00</time>
      </trkpt>
      <trkpt lat="43.05457" lon="3.04292">
        <ele>14</ele>
        <time>2018-08-28T17:23:53+02:00</time>
      </trkpt>
      <trkpt lat="43.05469" lon="3.04319">
        <ele>14</ele>
        <time>2018-08-28T17:23:59+02:00</time>
      </trkpt>
      <trkpt lat="43.05487" lon="3.04346">
        <ele>15</ele>
        <time>2018-08-28T17:24:06+02:00</time>
      </trkpt>
      <trkpt lat="43.055" lon="3.04375">
        <ele>16</ele>
        <time>2018-08-28T17:24:15+02:00</time>
      </trkpt>
      <trkpt lat="43.05493" lon="3.04406">
        <ele>15</ele>
        <time>2018-08-28T17:24:22+02:00</time>
      </trkpt>
      <trkpt lat="43.05509" lon="3.0443">
        <ele>16</ele>
        <time>2018-08-28T17:24:36+02:00</time>
      </trkpt>
      <trkpt lat="43.05531" lon="3.04442">
        <ele>15</ele>
        <time>2018-08-28T17:24:47+02:00</time>
      </trkpt>
      <trkpt lat="43.05546" lon="3.04467">
        <ele>14</ele>
        <time>2018-08-28T17:24:59+02:00</time>
      </trkpt>
      <trkpt lat="43.05547" lon="3.04499">
        <ele>14</ele>
        <time>2018-08-28T17:25:10+02:00</time>
      </trkpt>
      <trkpt lat="43.05536" lon="3.04531">
        <ele>14</ele>
        <time>2018-08-28T17:25:20+02:00</time>
      </trkpt>
      <trkpt lat="43.05525" lon="3.04558">
        <ele>15</ele>
        <time>2018-08-28T17:25:29+02:00</time>
      </trkpt>
      <trkpt lat="43.05509" lon="3.04585">
        <ele>15</ele>
        <time>2018-08-28T17:25:38+02:00</time>
      </trkpt>
      <trkpt lat="43.0549" lon="3.04604">
        <ele>15</ele>
        <time>2018-08-28T17:25:46+02:00</time>
      </trkpt>
      <trkpt lat="43.05473" lon="3.04627">
        <ele>15</ele>
        <time>2018-08-28T17:25:54+02:00</time>
      </trkpt>
      <trkpt lat="43.05455" lon="3.0465">
        <ele>15</ele>
        <time>2018-08-28T17:26:03+02:00</time>
      </trkpt>
      <trkpt lat="43.05434" lon="3.04661">
        <ele>15</ele>
        <time>2018-08-28T17:26:11+02:00</time>
      </trkpt>
      <trkpt lat="43.0541" lon="3.04674">
        <ele>15</ele>
        <time>2018-08-28T17:26:19+02:00</time>
      </trkpt>
      <trkpt lat="43.05391" lon="3.04694">
        <ele>15</ele>
        <time>2018-08-28T17:26:25+02:00</time>
      </trkpt>
      <trkpt lat="43.0537" lon="3.04707">
        <ele>14</ele>
        <time>2018-08-28T17:26:31+02:00</time>
      </trkpt>
      <trkpt lat="43.05354" lon="3.04729">
        <ele>13</ele>
        <time>2018-08-28T17:26:36+02:00</time>
      </trkpt>
      <trkpt lat="43.05337" lon="3.04755">
        <ele>10</ele>
        <time>2018-08-28T17:26:50+02:00</time>
      </trkpt>
      <trkpt lat="43.05314" lon="3.04752">
        <ele>8</ele>
        <time>2018-08-28T17:27:00+02:00</time>
      </trkpt>
      <trkpt lat="43.05292" lon="3.04743">
        <ele>7</ele>
        <time>2018-08-28T17:27:06+02:00</time>
      </trkpt>
      <trkpt lat="43.05269" lon="3.04729">
        <ele>8</ele>
        <time>2018-08-28T17:27:13+02:00</time>
      </trkpt>
      <trkpt lat="43.05245" lon="3.04726">
        <ele>9</ele>
        <time>2018-08-28T17:27:19+02:00</time>
      </trkpt>
      <trkpt lat="43.05222" lon="3.04729">
        <ele>9</ele>
        <time>2018-08-28T17:27:30+02:00</time>
      </trkpt>
      <trkpt lat="43.05209" lon="3.04756">
        <ele>10</ele>
        <time>2018-08-28T17:27:37+02:00</time>
      </trkpt>
      <trkpt lat="43.05196" lon="3.04784">
        <ele>10</ele>
        <time>2018-08-28T17:27:45+02:00</time>
      </trkpt>
      <trkpt lat="43.05176" lon="3.04805">
        <ele>12</ele>
        <time>2018-08-28T17:27:53+02:00</time>
      </trkpt>
      <trkpt lat="43.05158" lon="3.04829">
        <ele>13</ele>
        <time>2018-08-28T17:28:01+02:00</time>
      </trkpt>
      <trkpt lat="43.0516" lon="3.04863">
        <ele>13</ele>
        <time>2018-08-28T17:28:13+02:00</time>
      </trkpt>
      <trkpt lat="43.0517" lon="3.04893">
        <ele>12</ele>
        <time>2018-08-28T17:28:22+02:00</time>
      </trkpt>
      <trkpt lat="43.05174" lon="3.04924">
        <ele>11</ele>
        <time>2018-08-28T17:28:29+02:00</time>
      </trkpt>
      <trkpt lat="43.05173" lon="3.04958">
        <ele>11</ele>
        <time>2018-08-28T17:28:36+02:00</time>
      </trkpt>
      <trkpt lat="43.05172" lon="3.0499">
        <ele>10</ele>
        <time>2018-08-28T17:28:44+02:00</time>
      </trkpt>
      <trkpt lat="43.05171" lon="3.05025">
        <ele>10</ele>
        <time>2018-08-28T17:28:52+02:00</time>
      </trkpt>
      <trkpt lat="43.0517" lon="3.05056">
        <ele>10</ele>
        <time>2018-08-28T17:28:58+02:00</time>
      </trkpt>
      <trkpt lat="43.05169" lon="3.05088">
        <ele>9</ele>
        <time>2018-08-28T17:29:05+02:00</time>
      </trkpt>
      <trkpt lat="43.05169" lon="3.0512">
        <ele>9</ele>
        <time>2018-08-28T17:29:14+02:00</time>
      </trkpt>
      <trkpt lat="43.05171" lon="3.05152">
        <ele>7</ele>
        <time>2018-08-28T17:29:21+02:00</time>
      </trkpt>
      <trkpt lat="43.05167" lon="3.05183">
        <ele>7</ele>
        <time>2018-08-28T17:29:28+02:00</time>
      </trkpt>
      <trkpt lat="43.05155" lon="3.05211">
        <ele>7</ele>
        <time>2018-08-28T17:29:35+02:00</time>
      </trkpt>
      <trkpt lat="43.05137" lon="3.05234">
        <ele>7</ele>
        <time>2018-08-28T17:29:44+02:00</time>
      </trkpt>
      <trkpt lat="43.0512" lon="3.05255">
        <ele>7</ele>
        <time>2018-08-28T17:29:52+02:00</time>
      </trkpt>
      <trkpt lat="43.05105" lon="3.05283">
        <ele>6</ele>
        <time>2018-08-28T17:30:00+02:00</time>
      </trkpt>
      <trkpt lat="43.05085" lon="3.05304">
        <ele>5</ele>
        <time>2018-08-28T17:30:07+02:00</time>
      </trkpt>
      <trkpt lat="43.05069" lon="3.05331">
        <ele>5</ele>
        <time>2018-08-28T17:30:13+02:00</time>
      </trkpt>
      <trkpt lat="43.05051" lon="3.05352">
        <ele>4</ele>
        <time>2018-08-28T17:30:18+02:00</time>
      </trkpt>
      <trkpt lat="43.05032" lon="3.05375">
        <ele>3</ele>
        <time>2018-08-28T17:30:24+02:00</time>
      </trkpt>
      <trkpt lat="43.05018" lon="3.05402">
        <ele>3</ele>
        <time>2018-08-28T17:30:30+02:00</time>
      </trkpt>
      <trkpt lat="43.05003" lon="3.05429">
        <ele>2</ele>
        <time>2018-08-28T17:30:37+02:00</time>
      </trkpt>
      <trkpt lat="43.04986" lon="3.05453">
        <ele>1</ele>
        <time>2018-08-28T17:30:44+02:00</time>
      </trkpt>
      <trkpt lat="43.04968" lon="3.05472">
        <ele>1</ele>
        <time>2018-08-28T17:30:52+02:00</time>
      </trkpt>
      <trkpt lat="43.04946" lon="3.05485">
        <ele>1</ele>
        <time>2018-08-28T17:31:01+02:00</time>
      </trkpt>
      <trkpt lat="43.04925" lon="3.05503">
        <ele>1</ele>
        <time>2018-08-28T17:31:12+02:00</time>
      </trkpt>
      <trkpt lat="43.04901" lon="3.05502">
        <ele>1</ele>
        <time>2018-08-28T17:31:18+02:00</time>
      </trkpt>
      <trkpt lat="43.04879" lon="3.05491">
        <ele>1</ele>
        <time>2018-08-28T17:31:24+02:00</time>
      </trkpt>
      <trkpt lat="43.04858" lon="3.05474">
        <ele>1</ele>
        <time>2018-08-28T17:31:31+02:00</time>
      </trkpt>
      <trkpt lat="43.04844" lon="3.05446">
        <ele>2</ele>
        <time>2018-08-28T17:31:38+02:00</time>
      </trkpt>
      <trkpt lat="43.04834" lon="3.05415">
        <ele>4</ele>
        <time>2018-08-28T17:31:45+02:00</time>
      </trkpt>
      <trkpt lat="43.04812" lon="3.05397">
        <ele>3</ele>
        <time>2018-08-28T17:31:54+02:00</time>
      </trkpt>
      <trkpt lat="43.04794" lon="3.05414">
        <ele>3</ele>
        <time>2018-08-28T17:32:13+02:00</time>
      </trkpt>
      <trkpt lat="43.04785" lon="3.05446">
        <ele>3</ele>
        <time>2018-08-28T17:32:22+02:00</time>
      </trkpt>
      <trkpt lat="43.04775" lon="3.05477">
        <ele>2</ele>
        <time>2018-08-28T17:32:29+02:00</time>
      </trkpt>
      <trkpt lat="43.04765" lon="3.05505">
        <ele>2</ele>
        <time>2018-08-28T17:32:36+02:00</time>
      </trkpt>
      <trkpt lat="43.04758" lon="3.05537">
        <ele>1</ele>
        <time>2018-08-28T17:32:45+02:00</time>
      </trkpt>
      <trkpt lat="43.04747" lon="3.05566">
        <ele>1</ele>
        <time>2018-08-28T17:32:57+02:00</time>
      </trkpt>
      <trkpt lat="43.04736" lon="3.05594">
        <ele>1</ele>
        <time>2018-08-28T17:33:56+02:00</time>
      </trkpt>
      <trkpt lat="43.04749" lon="3.05622">
        <ele>1</ele>
        <time>2018-08-28T17:36:37+02:00</time>
      </trkpt>
      <trkpt lat="43.04769" lon="3.05637">
        <ele>1</ele>
        <time>2018-08-28T17:36:47+02:00</time>
      </trkpt>
      <trkpt lat="43.04789" lon="3.05651">
        <ele>1</ele>
        <time>2018-08-28T17:38:35+02:00</time>
      </trkpt>
      <trkpt lat="43.04811" lon="3.05665">
        <ele>1</ele>
        <time>2018-08-28T17:39:22+02:00</time>
      </trkpt>
      <trkpt lat="43.04833" lon="3.0568">
        <ele>1</ele>
        <time>2018-08-28T17:39:31+02:00</time>
      </trkpt>
      <trkpt lat="43.04855" lon="3.05692">
        <ele>1</ele>
        <time>2018-08-28T17:40:48+02:00</time>
      </trkpt>
      <trkpt lat="43.04875" lon="3.05705">
        <ele>1</ele>
        <time>2018-08-28T17:40:57+02:00</time>
      </trkpt>
      <trkpt lat="43.04896" lon="3.05719">
        <ele>1</ele>
        <time>2018-08-28T17:41:44+02:00</time>
      </trkpt>
      <trkpt lat="43.04918" lon="3.05733">
        <ele>1</ele>
        <time>2018-08-28T17:41:53+02:00</time>
      </trkpt>
      <trkpt lat="43.04939" lon="3.05746">
        <ele>1</ele>
        <time>2018-08-28T17:42:47+02:00</time>
      </trkpt>
      <trkpt lat="43.04959" lon="3.05761">
        <ele>1</ele>
        <time>2018-08-28T17:44:06+02:00</time>
      </trkpt>
      <trkpt lat="43.0498" lon="3.05778">
        <ele>1</ele>
        <time>2018-08-28T17:44:14+02:00</time>
      </trkpt>
      <trkpt lat="43.05001" lon="3.0579">
        <ele>1</ele>
        <time>2018-08-28T17:44:21+02:00</time>
      </trkpt>
      <trkpt lat="43.05023" lon="3.05799">
        <ele>1</ele>
        <time>2018-08-28T17:44:26+02:00</time>
      </trkpt>
      <trkpt lat="43.05045" lon="3.05806">
        <ele>1</ele>
        <time>2018-08-28T17:44:31+02:00</time>
      </trkpt>
      <trkpt lat="43.0507" lon="3.0581">
        <ele>1</ele>
        <time>2018-08-28T17:44:37+02:00</time>
      </trkpt>
      <trkpt lat="43.05094" lon="3.05811">
        <ele>1</ele>
        <time>2018-08-28T17:44:42+02:00</time>
      </trkpt>
      <trkpt lat="43.05121" lon="3.05814">
        <ele>1</ele>
        <time>2018-08-28T17:44:48+02:00</time>
      </trkpt>
      <trkpt lat="43.05146" lon="3.0581">
        <ele>1</ele>
        <time>2018-08-28T17:44:54+02:00</time>
      </trkpt>
      <trkpt lat="43.05173" lon="3.05805">
        <ele>1</ele>
        <time>2018-08-28T17:45:00+02:00</time>
      </trkpt>
      <trkpt lat="43.05196" lon="3.05801">
        <ele>1</ele>
        <time>2018-08-28T17:45:05+02:00</time>
      </trkpt>
      <trkpt lat="43.0522" lon="3.05794">
        <ele>1</ele>
        <time>2018-08-28T17:45:11+02:00</time>
      </trkpt>
      <trkpt lat="43.05248" lon="3.05791">
        <ele>1</ele>
        <time>2018-08-28T17:45:18+02:00</time>
      </trkpt>
      <trkpt lat="43.05273" lon="3.05789">
        <ele>1</ele>
        <time>2018-08-28T17:45:24+02:00</time>
      </trkpt>
      <trkpt lat="43.05297" lon="3.05784">
        <ele>1</ele>
        <time>2018-08-28T17:45:29+02:00</time>
      </trkpt>
      <trkpt lat="43.05321" lon="3.05774">
        <ele>1</ele>
        <time>2018-08-28T17:45:34+02:00</time>
      </trkpt>
      <trkpt lat="43.05343" lon="3.05761">
        <ele>1</ele>
        <time>2018-08-28T17:45:39+02:00</time>
      </trkpt>
      <trkpt lat="43.05366" lon="3.05739">
        <ele>1</ele>
        <time>2018-08-28T17:45:44+02:00</time>
      </trkpt>
      <trkpt lat="43.05383" lon="3.05715">
        <ele>1</ele>
        <time>2018-08-28T17:45:48+02:00</time>
      </trkpt>
      <trkpt lat="43.05397" lon="3.05685">
        <ele>1</ele>
        <time>2018-08-28T17:45:53+02:00</time>
      </trkpt>
      <trkpt lat="43.05408" lon="3.05652">
        <ele>1</ele>
        <time>2018-08-28T17:45:58+02:00</time>
      </trkpt>
      <trkpt lat="43.05412" lon="3.05618">
        <ele>1</ele>
        <time>2018-08-28T17:46:03+02:00</time>
      </trkpt>
      <trkpt lat="43.05413" lon="3.05584">
        <ele>1</ele>
        <time>2018-08-28T17:46:08+02:00</time>
      </trkpt>
      <trkpt lat="43.05408" lon="3.05549">
        <ele>1</ele>
        <time>2018-08-28T17:46:13+02:00</time>
      </trkpt>
      <trkpt lat="43.054" lon="3.05515">
        <ele>1</ele>
        <time>2018-08-28T17:46:18+02:00</time>
      </trkpt>
      <trkpt lat="43.05391" lon="3.05482">
        <ele>1</ele>
        <time>2018-08-28T17:46:23+02:00</time>
      </trkpt>
      <trkpt lat="43.05384" lon="3.05449">
        <ele>1</ele>
        <time>2018-08-28T17:46:28+02:00</time>
      </trkpt>
      <trkpt lat="43.05378" lon="3.05419">
        <ele>1</ele>
        <time>2018-08-28T17:46:32+02:00</time>
      </trkpt>
      <trkpt lat="43.05372" lon="3.05388">
        <ele>1</ele>
        <time>2018-08-28T17:46:36+02:00</time>
      </trkpt>
      <trkpt lat="43.05363" lon="3.05353">
        <ele>1</ele>
        <time>2018-08-28T17:46:41+02:00</time>
      </trkpt>
      <trkpt lat="43.05358" lon="3.05321">
        <ele>1</ele>
        <time>2018-08-28T17:46:46+02:00</time>
      </trkpt>
      <trkpt lat="43.05356" lon="3.05286">
        <ele>1</ele>
        <time>2018-08-28T17:46:51+02:00</time>
      </trkpt>
      <trkpt lat="43.05359" lon="3.05252">
        <ele>1</ele>
        <time>2018-08-28T17:46:56+02:00</time>
      </trkpt>
      <trkpt lat="43.0537" lon="3.05218">
        <ele>1</ele>
        <time>2018-08-28T17:47:01+02:00</time>
      </trkpt>
      <trkpt lat="43.05385" lon="3.05188">
        <ele>1</ele>
        <time>2018-08-28T17:47:06+02:00</time>
      </trkpt>
      <trkpt lat="43.054" lon="3.05158">
        <ele>1</ele>
        <time>2018-08-28T17:47:11+02:00</time>
      </trkpt>
      <trkpt lat="43.05414" lon="3.05131">
        <ele>1</ele>
        <time>2018-08-28T17:47:15+02:00</time>
      </trkpt>
      <trkpt lat="43.05429" lon="3.051">
        <ele>1</ele>
        <time>2018-08-28T17:47:21+02:00</time>
      </trkpt>
      <trkpt lat="43.05442" lon="3.05068">
        <ele>1</ele>
        <time>2018-08-28T17:47:26+02:00</time>
      </trkpt>
      <trkpt lat="43.05456" lon="3.0504">
        <ele>1</ele>
        <time>2018-08-28T17:47:31+02:00</time>
      </trkpt>
      <trkpt lat="43.0547" lon="3.05011">
        <ele>1</ele>
        <time>2018-08-28T17:47:36+02:00</time>
      </trkpt>
      <trkpt lat="43.05484" lon="3.04983">
        <ele>1</ele>
        <time>2018-08-28T17:47:41+02:00</time>
      </trkpt>
      <trkpt lat="43.05496" lon="3.04957">
        <ele>1</ele>
        <time>2018-08-28T17:47:45+02:00</time>
      </trkpt>
      <trkpt lat="43.0551" lon="3.04926">
        <ele>1</ele>
        <time>2018-08-28T17:47:50+02:00</time>
      </trkpt>
      <trkpt lat="43.05524" lon="3.04895">
        <ele>1</ele>
        <time>2018-08-28T17:47:55+02:00</time>
      </trkpt>
      <trkpt lat="43.05539" lon="3.04865">
        <ele>1</ele>
        <time>2018-08-28T17:48:00+02:00</time>
      </trkpt>
      <trkpt lat="43.05554" lon="3.04833">
        <ele>1</ele>
        <time>2018-08-28T17:48:05+02:00</time>
      </trkpt>
      <trkpt lat="43.05567" lon="3.04804">
        <ele>1</ele>
        <time>2018-08-28T17:48:10+02:00</time>
      </trkpt>
      <trkpt lat="43.05579" lon="3.04772">
        <ele>1</ele>
        <time>2018-08-28T17:48:15+02:00</time>
      </trkpt>
      <trkpt lat="43.0559" lon="3.0474">
        <ele>1</ele>
        <time>2018-08-28T17:48:20+02:00</time>
      </trkpt>
      <trkpt lat="43.056" lon="3.04707">
        <ele>1.5</ele>
        <time>2018-08-28T17:48:25+02:00</time>
      </trkpt>
      <trkpt lat="43.05607" lon="3.04675">
        <ele>1</ele>
        <time>2018-08-28T17:48:30+02:00</time>
      </trkpt>
      <trkpt lat="43.05613" lon="3.04643">
        <ele>1</ele>
        <time>2018-08-28T17:48:35+02:00</time>
      </trkpt>
      <trkpt lat="43.05619" lon="3.0461">
        <ele>1</ele>
        <time>2018-08-28T17:48:40+02:00</time>
      </trkpt>
      <trkpt lat="43.05622" lon="3.04575">
        <ele>1</ele>
        <time>2018-08-28T17:48:45+02:00</time>
      </trkpt>
      <trkpt lat="43.05623" lon="3.04545">
        <ele>1</ele>
        <time>2018-08-28T17:48:49+02:00</time>
      </trkpt>
      <trkpt lat="43.05626" lon="3.0451">
        <ele>1</ele>
        <time>2018-08-28T17:48:54+02:00</time>
      </trkpt>
      <trkpt lat="43.0563" lon="3.04474">
        <ele>1</ele>
        <time>2018-08-28T17:48:59+02:00</time>
      </trkpt>
      <trkpt lat="43.05639" lon="3.0444">
        <ele>1</ele>
        <time>2018-08-28T17:49:04+02:00</time>
      </trkpt>
      <trkpt lat="43.05648" lon="3.04405">
        <ele>1</ele>
        <time>2018-08-28T17:49:10+02:00</time>
      </trkpt>
      <trkpt lat="43.05656" lon="3.0437">
        <ele>1</ele>
        <time>2018-08-28T17:49:15+02:00</time>
      </trkpt>
      <trkpt lat="43.05668" lon="3.04337">
        <ele>1</ele>
        <time>2018-08-28T17:49:21+02:00</time>
      </trkpt>
      <trkpt lat="43.0568" lon="3.04305">
        <ele>1</ele>
        <time>2018-08-28T17:49:26+02:00</time>
      </trkpt>
      <trkpt lat="43.05695" lon="3.04277">
        <ele>1</ele>
        <time>2018-08-28T17:49:31+02:00</time>
      </trkpt>
      <trkpt lat="43.05711" lon="3.04248">
        <ele>1</ele>
        <time>2018-08-28T17:49:36+02:00</time>
      </trkpt>
      <trkpt lat="43.05727" lon="3.04221">
        <ele>1</ele>
        <time>2018-08-28T17:49:41+02:00</time>
      </trkpt>
      <trkpt lat="43.05744" lon="3.04193">
        <ele>1</ele>
        <time>2018-08-28T17:49:46+02:00</time>
      </trkpt>
      <trkpt lat="43.05763" lon="3.04168">
        <ele>1</ele>
        <time>2018-08-28T17:49:51+02:00</time>
      </trkpt>
      <trkpt lat="43.05778" lon="3.04145">
        <ele>1</ele>
        <time>2018-08-28T17:49:55+02:00</time>
      </trkpt>
      <trkpt lat="43.05793" lon="3.04116">
        <ele>1</ele>
        <time>2018-08-28T17:50:00+02:00</time>
      </trkpt>
      <trkpt lat="43.05812" lon="3.04093">
        <ele>1</ele>
        <time>2018-08-28T17:50:05+02:00</time>
      </trkpt>
      <trkpt lat="43.05828" lon="3.04063">
        <ele>1</ele>
        <time>2018-08-28T17:50:10+02:00</time>
      </trkpt>
      <trkpt lat="43.05847" lon="3.04035">
        <ele>1</ele>
        <time>2018-08-28T17:50:15+02:00</time>
      </trkpt>
      <trkpt lat="43.05863" lon="3.04007">
        <ele>1</ele>
        <time>2018-08-28T17:50:20+02:00</time>
      </trkpt>
      <trkpt lat="43.05881" lon="3.03979">
        <ele>1.2</ele>
        <time>2018-08-28T17:50:25+02:00</time>
      </trkpt>
      <trkpt lat="43.05897" lon="3.03952">
        <ele>1</ele>
        <time>2018-08-28T17:50:30+02:00</time>
      </trkpt>
      <trkpt lat="43.05913" lon="3.03926">
        <ele>1</ele>
        <time>2018-08-28T17:50:35+02:00</time>
      </trkpt>
      <trkpt lat="43.05928" lon="3.039">
        <ele>1</ele>
        <time>2018-08-28T17:50:40+02:00</time>
      </trkpt>
      <trkpt lat="43.05944" lon="3.03874">
        <ele>1</ele>
        <time>2018-08-28T17:50:45+02:00</time>
      </trkpt>
      <trkpt lat="43.05961" lon="3.03848">
        <ele>1</ele>
        <time>2018-08-28T17:50:50+02:00</time>
      </trkpt>
      <trkpt lat="43.05979" lon="3.03821">
        <ele>1</ele>
        <time>2018-08-28T17:50:55+02:00</time>
      </trkpt>
      <trkpt lat="43.05995" lon="3.03792">
        <ele>1</ele>
        <time>2018-08-28T17:51:00+02:00</time>
      </trkpt>
      <trkpt lat="43.06012" lon="3.03766">
        <ele>1</ele>
        <time>2018-08-28T17:51:05+02:00</time>
      </trkpt>
      <trkpt lat="43.06028" lon="3.03736">
        <ele>1</ele>
        <time>2018-08-28T17:51:10+02:00</time>
      </trkpt>
      <trkpt lat="43.06046" lon="3.0371">
        <ele>1</ele>
        <time>2018-08-28T17:51:15+02:00</time>
      </trkpt>
      <trkpt lat="43.06061" lon="3.03686">
        <ele>1</ele>
        <time>2018-08-28T17:51:20+02:00</time>
      </trkpt>
      <trkpt lat="43.06079" lon="3.03664">
        <ele>1</ele>
        <time>2018-08-28T17:51:25+02:00</time>
      </trkpt>
      <trkpt lat="43.06098" lon="3.03642">
        <ele>1</ele>
        <time>2018-08-28T17:51:30+02:00</time>
      </trkpt>
      <trkpt lat="43.06114" lon="3.03615">
        <ele>1</ele>
        <time>2018-08-28T17:51:35+02:00</time>
      </trkpt>
      <trkpt lat="43.0613" lon="3.0359">
        <ele>1</ele>
        <time>2018-08-28T17:51:40+02:00</time>
      </trkpt>
      <trkpt lat="43.06146" lon="3.03568">
        <ele>1</ele>
        <time>2018-08-28T17:51:45+02:00</time>
      </trkpt>
      <trkpt lat="43.06161" lon="3.03539">
        <ele>1</ele>
        <time>2018-08-28T17:51:50+02:00</time>
      </trkpt>
      <trkpt lat="43.06179" lon="3.03515">
        <ele>1</ele>
        <time>2018-08-28T17:51:55+02:00</time>
      </trkpt>
      <trkpt lat="43.06196" lon="3.03488">
        <ele>1</ele>
        <time>2018-08-28T17:52:00+02:00</time>
      </trkpt>
      <trkpt lat="43.06212" lon="3.03466">
        <ele>1</ele>
        <time>2018-08-28T17:52:05+02:00</time>
      </trkpt>
      <trkpt lat="43.06228" lon="3.03442">
        <ele>1</ele>
        <time>2018-08-28T17:52:09+02:00</time>
      </trkpt>
      <trkpt lat="43.06248" lon="3.03418">
        <ele>1</ele>
        <time>2018-08-28T17:52:14+02:00</time>
      </trkpt>
      <trkpt lat="43.06268" lon="3.03393">
        <ele>1</ele>
        <time>2018-08-28T17:52:19+02:00</time>
      </trkpt>
      <trkpt lat="43.0629" lon="3.03371">
        <ele>1</ele>
        <time>2018-08-28T17:52:24+02:00</time>
      </trkpt>
      <trkpt lat="43.06311" lon="3.03352">
        <ele>1</ele>
        <time>2018-08-28T17:52:29+02:00</time>
      </trkpt>
      <trkpt lat="43.06333" lon="3.03334">
        <ele>1</ele>
        <time>2018-08-28T17:52:34+02:00</time>
      </trkpt>
      <trkpt lat="43.06355" lon="3.03316">
        <ele>1</ele>
        <time>2018-08-28T17:52:39+02:00</time>
      </trkpt>
      <trkpt lat="43.06377" lon="3.03296">
        <ele>1</ele>
        <time>2018-08-28T17:52:44+02:00</time>
      </trkpt>
      <trkpt lat="43.06398" lon="3.03278">
        <ele>1</ele>
        <time>2018-08-28T17:52:49+02:00</time>
      </trkpt>
      <trkpt lat="43.06422" lon="3.03262">
        <ele>1</ele>
        <time>2018-08-28T17:52:54+02:00</time>
      </trkpt>
      <trkpt lat="43.06445" lon="3.03243">
        <ele>1</ele>
        <time>2018-08-28T17:52:59+02:00</time>
      </trkpt>
      <trkpt lat="43.06467" lon="3.03223">
        <ele>1</ele>
        <time>2018-08-28T17:53:04+02:00</time>
      </trkpt>
      <trkpt lat="43.06488" lon="3.03202">
        <ele>1</ele>
        <time>2018-08-28T17:53:09+02:00</time>
      </trkpt>
      <trkpt lat="43.06509" lon="3.0318">
        <ele>1</ele>
        <time>2018-08-28T17:53:14+02:00</time>
      </trkpt>
      <trkpt lat="43.06529" lon="3.03159">
        <ele>1</ele>
        <time>2018-08-28T17:53:18+02:00</time>
      </trkpt>
      <trkpt lat="43.06547" lon="3.03141">
        <ele>1</ele>
        <time>2018-08-28T17:53:23+02:00</time>
      </trkpt>
      <trkpt lat="43.06568" lon="3.03123">
        <ele>1</ele>
        <time>2018-08-28T17:53:28+02:00</time>
      </trkpt>
      <trkpt lat="43.06593" lon="3.03108">
        <ele>1</ele>
        <time>2018-08-28T17:53:33+02:00</time>
      </trkpt>
      <trkpt lat="43.06618" lon="3.03098">
        <ele>1</ele>
        <time>2018-08-28T17:53:38+02:00</time>
      </trkpt>
      <trkpt lat="43.06643" lon="3.03087">
        <ele>1</ele>
        <time>2018-08-28T17:53:43+02:00</time>
      </trkpt>
      <trkpt lat="43.06668" lon="3.03072">
        <ele>1</ele>
        <time>2018-08-28T17:53:48+02:00</time>
      </trkpt>
      <trkpt lat="43.06691" lon="3.03055">
        <ele>1</ele>
        <time>2018-08-28T17:53:53+02:00</time>
      </trkpt>
      <trkpt lat="43.06715" lon="3.03037">
        <ele>1</ele>
        <time>2018-08-28T17:53:58+02:00</time>
      </trkpt>
      <trkpt lat="43.06735" lon="3.03021">
        <ele>1</ele>
        <time>2018-08-28T17:54:02+02:00</time>
      </trkpt>
      <trkpt lat="43.06756" lon="3.03009">
        <ele>1</ele>
        <time>2018-08-28T17:54:07+02:00</time>
      </trkpt>
      <trkpt lat="43.06781" lon="3.02994">
        <ele>1</ele>
        <time>2018-08-28T17:54:12+02:00</time>
      </trkpt>
      <trkpt lat="43.06805" lon="3.02981">
        <ele>1</ele>
        <time>2018-08-28T17:54:17+02:00</time>
      </trkpt>
      <trkpt lat="43.06829" lon="3.02966">
        <ele>1</ele>
        <time>2018-08-28T17:54:22+02:00</time>
      </trkpt>
      <trkpt lat="43.06852" lon="3.02947">
        <ele>1</ele>
        <time>2018-08-28T17:54:27+02:00</time>
      </trkpt>
      <trkpt lat="43.06873" lon="3.02924">
        <ele>1</ele>
        <time>2018-08-28T17:54:32+02:00</time>
      </trkpt>
      <trkpt lat="43.06891" lon="3.02903">
        <ele>1</ele>
        <time>2018-08-28T17:54:36+02:00</time>
      </trkpt>
      <trkpt lat="43.06909" lon="3.02882">
        <ele>1</ele>
        <time>2018-08-28T17:54:40+02:00</time>
      </trkpt>
      <trkpt lat="43.06929" lon="3.02863">
        <ele>1</ele>
        <time>2018-08-28T17:54:44+02:00</time>
      </trkpt>
      <trkpt lat="43.06948" lon="3.02844">
        <ele>1</ele>
        <time>2018-08-28T17:54:48+02:00</time>
      </trkpt>
      <trkpt lat="43.06971" lon="3.02826">
        <ele>1</ele>
        <time>2018-08-28T17:54:53+02:00</time>
      </trkpt>
      <trkpt lat="43.06993" lon="3.02809">
        <ele>1</ele>
        <time>2018-08-28T17:54:57+02:00</time>
      </trkpt>
      <trkpt lat="43.07013" lon="3.02791">
        <ele>1</ele>
        <time>2018-08-28T17:55:01+02:00</time>
      </trkpt>
      <trkpt lat="43.07029" lon="3.02769">
        <ele>1</ele>
        <time>2018-08-28T17:55:05+02:00</time>
      </trkpt>
      <trkpt lat="43.07044" lon="3.02746">
        <ele>1</ele>
        <time>2018-08-28T17:55:09+02:00</time>
      </trkpt>
      <trkpt lat="43.0706" lon="3.02721">
        <ele>1</ele>
        <time>2018-08-28T17:55:13+02:00</time>
      </trkpt>
      <trkpt lat="43.07075" lon="3.02696">
        <ele>1</ele>
        <time>2018-08-28T17:55:17+02:00</time>
      </trkpt>
      <trkpt lat="43.07093" lon="3.0267">
        <ele>1</ele>
        <time>2018-08-28T17:55:21+02:00</time>
      </trkpt>
      <trkpt lat="43.07109" lon="3.02647">
        <ele>1</ele>
        <time>2018-08-28T17:55:25+02:00</time>
      </trkpt>
      <trkpt lat="43.07123" lon="3.0262">
        <ele>1</ele>
        <time>2018-08-28T17:55:29+02:00</time>
      </trkpt>
      <trkpt lat="43.07137" lon="3.02592">
        <ele>1</ele>
        <time>2018-08-28T17:55:33+02:00</time>
      </trkpt>
      <trkpt lat="43.07153" lon="3.02567">
        <ele>1</ele>
        <time>2018-08-28T17:55:37+02:00</time>
      </trkpt>
      <trkpt lat="43.07171" lon="3.02541">
        <ele>1</ele>
        <time>2018-08-28T17:55:41+02:00</time>
      </trkpt>
      <trkpt lat="43.07188" lon="3.0252">
        <ele>1</ele>
        <time>2018-08-28T17:55:45+02:00</time>
      </trkpt>
      <trkpt lat="43.07206" lon="3.02499">
        <ele>1</ele>
        <time>2018-08-28T17:55:49+02:00</time>
      </trkpt>
      <trkpt lat="43.07223" lon="3.02473">
        <ele>1</ele>
        <time>2018-08-28T17:55:53+02:00</time>
      </trkpt>
      <trkpt lat="43.07238" lon="3.02446">
        <ele>1</ele>
        <time>2018-08-28T17:55:57+02:00</time>
      </trkpt>
      <trkpt lat="43.07251" lon="3.02416">
        <ele>1</ele>
        <time>2018-08-28T17:56:01+02:00</time>
      </trkpt>
      <trkpt lat="43.07263" lon="3.02388">
        <ele>1</ele>
        <time>2018-08-28T17:56:05+02:00</time>
      </trkpt>
      <trkpt lat="43.07272" lon="3.02358">
        <ele>1</ele>
        <time>2018-08-28T17:56:09+02:00</time>
      </trkpt>
      <trkpt lat="43.07285" lon="3.0233">
        <ele>1</ele>
        <time>2018-08-28T17:56:13+02:00</time>
      </trkpt>
      <trkpt lat="43.07298" lon="3.02301">
        <ele>1</ele>
        <time>2018-08-28T17:56:17+02:00</time>
      </trkpt>
      <trkpt lat="43.07317" lon="3.0228">
        <ele>1</ele>
        <time>2018-08-28T17:56:21+02:00</time>
      </trkpt>
      <trkpt lat="43.0734" lon="3.0227">
        <ele>1</ele>
        <time>2018-08-28T17:56:25+02:00</time>
      </trkpt>
      <trkpt lat="43.07364" lon="3.02266">
        <ele>1</ele>
        <time>2018-08-28T17:56:29+02:00</time>
      </trkpt>
      <trkpt lat="43.07386" lon="3.02272">
        <ele>1</ele>
        <time>2018-08-28T17:56:33+02:00</time>
      </trkpt>
      <trkpt lat="43.07408" lon="3.02284">
        <ele>1</ele>
        <time>2018-08-28T17:56:37+02:00</time>
      </trkpt>
      <trkpt lat="43.07431" lon="3.02297">
        <ele>1</ele>
        <time>2018-08-28T17:56:41+02:00</time>
      </trkpt>
      <trkpt lat="43.07452" lon="3.02308">
        <ele>1</ele>
        <time>2018-08-28T17:56:45+02:00</time>
      </trkpt>
      <trkpt lat="43.07477" lon="3.02325">
        <ele>1</ele>
        <time>2018-08-28T17:56:50+02:00</time>
      </trkpt>
      <trkpt lat="43.07497" lon="3.02341">
        <ele>1</ele>
        <time>2018-08-28T17:56:54+02:00</time>
      </trkpt>
      <trkpt lat="43.0752" lon="3.02361">
        <ele>1</ele>
        <time>2018-08-28T17:56:59+02:00</time>
      </trkpt>
      <trkpt lat="43.0754" lon="3.02377">
        <ele>1</ele>
        <time>2018-08-28T17:57:03+02:00</time>
      </trkpt>
      <trkpt lat="43.07565" lon="3.0239">
        <ele>1</ele>
        <time>2018-08-28T17:57:08+02:00</time>
      </trkpt>
      <trkpt lat="43.07587" lon="3.02397">
        <ele>1</ele>
        <time>2018-08-28T17:57:12+02:00</time>
      </trkpt>
      <trkpt lat="43.07614" lon="3.02402">
        <ele>1</ele>
        <time>2018-08-28T17:57:17+02:00</time>
      </trkpt>
      <trkpt lat="43.07642" lon="3.02402">
        <ele>1</ele>
        <time>2018-08-28T17:57:22+02:00</time>
      </trkpt>
      <trkpt lat="43.07669" lon="3.02407">
        <ele>1</ele>
        <time>2018-08-28T17:57:27+02:00</time>
      </trkpt>
      <trkpt lat="43.07696" lon="3.02415">
        <ele>1</ele>
        <time>2018-08-28T17:57:32+02:00</time>
      </trkpt>
      <trkpt lat="43.07722" lon="3.02425">
        <ele>1</ele>
        <time>2018-08-28T17:57:37+02:00</time>
      </trkpt>
      <trkpt lat="43.07744" lon="3.02435">
        <ele>1</ele>
        <time>2018-08-28T17:57:41+02:00</time>
      </trkpt>
      <trkpt lat="43.07768" lon="3.02451">
        <ele>1</ele>
        <time>2018-08-28T17:57:46+02:00</time>
      </trkpt>
      <trkpt lat="43.07793" lon="3.02468">
        <ele>1</ele>
        <time>2018-08-28T17:57:51+02:00</time>
      </trkpt>
      <trkpt lat="43.07817" lon="3.02486">
        <ele>1</ele>
        <time>2018-08-28T17:57:56+02:00</time>
      </trkpt>
      <trkpt lat="43.07841" lon="3.02504">
        <ele>1</ele>
        <time>2018-08-28T17:58:01+02:00</time>
      </trkpt>
      <trkpt lat="43.07865" lon="3.0252">
        <ele>1</ele>
        <time>2018-08-28T17:58:06+02:00</time>
      </trkpt>
      <trkpt lat="43.07887" lon="3.02539">
        <ele>1</ele>
        <time>2018-08-28T17:58:11+02:00</time>
      </trkpt>
      <trkpt lat="43.0791" lon="3.02557">
        <ele>1</ele>
        <time>2018-08-28T17:58:16+02:00</time>
      </trkpt>
      <trkpt lat="43.07934" lon="3.02574">
        <ele>1</ele>
        <time>2018-08-28T17:58:21+02:00</time>
      </trkpt>
      <trkpt lat="43.07957" lon="3.02593">
        <ele>1</ele>
        <time>2018-08-28T17:58:26+02:00</time>
      </trkpt>
      <trkpt lat="43.0798" lon="3.02613">
        <ele>1</ele>
        <time>2018-08-28T17:58:31+02:00</time>
      </trkpt>
      <trkpt lat="43.08001" lon="3.02627">
        <ele>1</ele>
        <time>2018-08-28T17:58:35+02:00</time>
      </trkpt>
      <trkpt lat="43.08022" lon="3.02645">
        <ele>1</ele>
        <time>2018-08-28T17:58:40+02:00</time>
      </trkpt>
      <trkpt lat="43.08044" lon="3.02661">
        <ele>1</ele>
        <time>2018-08-28T17:58:45+02:00</time>
      </trkpt>
      <trkpt lat="43.08067" lon="3.02678">
        <ele>1</ele>
        <time>2018-08-28T17:58:50+02:00</time>
      </trkpt>
      <trkpt lat="43.0809" lon="3.02695">
        <ele>1</ele>
        <time>2018-08-28T17:58:55+02:00</time>
      </trkpt>
      <trkpt lat="43.08113" lon="3.02713">
        <ele>1</ele>
        <time>2018-08-28T17:59:00+02:00</time>
      </trkpt>
      <trkpt lat="43.08136" lon="3.0273">
        <ele>1</ele>
        <time>2018-08-28T17:59:05+02:00</time>
      </trkpt>
      <trkpt lat="43.08157" lon="3.02745">
        <ele>1</ele>
        <time>2018-08-28T17:59:10+02:00</time>
      </trkpt>
      <trkpt lat="43.08179" lon="3.02764">
        <ele>1</ele>
        <time>2018-08-28T17:59:15+02:00</time>
      </trkpt>
      <trkpt lat="43.08201" lon="3.02782">
        <ele>1</ele>
        <time>2018-08-28T17:59:20+02:00</time>
      </trkpt>
      <trkpt lat="43.08223" lon="3.02799">
        <ele>1</ele>
        <time>2018-08-28T17:59:25+02:00</time>
      </trkpt>
      <trkpt lat="43.08247" lon="3.02813">
        <ele>1</ele>
        <time>2018-08-28T17:59:30+02:00</time>
      </trkpt>
      <trkpt lat="43.08269" lon="3.02827">
        <ele>1</ele>
        <time>2018-08-28T17:59:35+02:00</time>
      </trkpt>
      <trkpt lat="43.08292" lon="3.0284">
        <ele>1</ele>
        <time>2018-08-28T17:59:40+02:00</time>
      </trkpt>
      <trkpt lat="43.08315" lon="3.02853">
        <ele>1</ele>
        <time>2018-08-28T17:59:45+02:00</time>
      </trkpt>
      <trkpt lat="43.08336" lon="3.02872">
        <ele>1</ele>
        <time>2018-08-28T17:59:50+02:00</time>
      </trkpt>
      <trkpt lat="43.08356" lon="3.02892">
        <ele>1</ele>
        <time>2018-08-28T17:59:55+02:00</time>
      </trkpt>
      <trkpt lat="43.08375" lon="3.02913">
        <ele>1</ele>
        <time>2018-08-28T18:00:00+02:00</time>
      </trkpt>
      <trkpt lat="43.08393" lon="3.02931">
        <ele>1</ele>
        <time>2018-08-28T18:00:04+02:00</time>
      </trkpt>
      <trkpt lat="43.08418" lon="3.0294">
        <ele>1</ele>
        <time>2018-08-28T18:00:09+02:00</time>
      </trkpt>
      <trkpt lat="43.08444" lon="3.02949">
        <ele>1</ele>
        <time>2018-08-28T18:00:14+02:00</time>
      </trkpt>
      <trkpt lat="43.08467" lon="3.02953">
        <ele>1</ele>
        <time>2018-08-28T18:00:18+02:00</time>
      </trkpt>
      <trkpt lat="43.08494" lon="3.02955">
        <ele>1</ele>
        <time>2018-08-28T18:00:23+02:00</time>
      </trkpt>
      <trkpt lat="43.08521" lon="3.0296">
        <ele>1</ele>
        <time>2018-08-28T18:00:28+02:00</time>
      </trkpt>
      <trkpt lat="43.08547" lon="3.02967">
        <ele>1</ele>
        <time>2018-08-28T18:00:33+02:00</time>
      </trkpt>
      <trkpt lat="43.08571" lon="3.02978">
        <ele>1</ele>
        <time>2018-08-28T18:00:38+02:00</time>
      </trkpt>
      <trkpt lat="43.08595" lon="3.02988">
        <ele>1</ele>
        <time>2018-08-28T18:00:43+02:00</time>
      </trkpt>
      <trkpt lat="43.08622" lon="3.02994">
        <ele>1</ele>
        <time>2018-08-28T18:00:48+02:00</time>
      </trkpt>
      <trkpt lat="43.08649" lon="3.03001">
        <ele>1</ele>
        <time>2018-08-28T18:00:53+02:00</time>
      </trkpt>
      <trkpt lat="43.08674" lon="3.03007">
        <ele>1</ele>
        <time>2018-08-28T18:00:58+02:00</time>
      </trkpt>
      <trkpt lat="43.087" lon="3.03015">
        <ele>1</ele>
        <time>2018-08-28T18:01:03+02:00</time>
      </trkpt>
      <trkpt lat="43.08727" lon="3.03023">
        <ele>1</ele>
        <time>2018-08-28T18:01:08+02:00</time>
      </trkpt>
      <trkpt lat="43.08752" lon="3.03035">
        <ele>1</ele>
        <time>2018-08-28T18:01:13+02:00</time>
      </trkpt>
      <trkpt lat="43.08777" lon="3.03049">
        <ele>1</ele>
        <time>2018-08-28T18:01:18+02:00</time>
      </trkpt>
      <trkpt lat="43.088" lon="3.03065">
        <ele>1</ele>
        <time>2018-08-28T18:01:23+02:00</time>
      </trkpt>
      <trkpt lat="43.08825" lon="3.03082">
        <ele>1</ele>
        <time>2018-08-28T18:01:28+02:00</time>
      </trkpt>
      <trkpt lat="43.08849" lon="3.03096">
        <ele>1</ele>
        <time>2018-08-28T18:01:33+02:00</time>
      </trkpt>
      <trkpt lat="43.08875" lon="3.03106">
        <ele>1</ele>
        <time>2018-08-28T18:01:38+02:00</time>
      </trkpt>
      <trkpt lat="43.08903" lon="3.0311">
        <ele>1</ele>
        <time>2018-08-28T18:01:43+02:00</time>
      </trkpt>
      <trkpt lat="43.0893" lon="3.0311">
        <ele>1</ele>
        <time>2018-08-28T18:01:48+02:00</time>
      </trkpt>
      <trkpt lat="43.08955" lon="3.03109">
        <ele>1</ele>
        <time>2018-08-28T18:01:52+02:00</time>
      </trkpt>
      <trkpt lat="43.08982" lon="3.03112">
        <ele>1</ele>
        <time>2018-08-28T18:01:57+02:00</time>
      </trkpt>
      <trkpt lat="43.0901" lon="3.03114">
        <ele>1</ele>
        <time>2018-08-28T18:02:02+02:00</time>
      </trkpt>
      <trkpt lat="43.09039" lon="3.03119">
        <ele>1</ele>
        <time>2018-08-28T18:02:07+02:00</time>
      </trkpt>
      <trkpt lat="43.09063" lon="3.03126">
        <ele>1</ele>
        <time>2018-08-28T18:02:13+02:00</time>
      </trkpt>
      <trkpt lat="43.09088" lon="3.03132">
        <ele>1</ele>
        <time>2018-08-28T18:02:18+02:00</time>
      </trkpt>
      <trkpt lat="43.09114" lon="3.03136">
        <ele>1</ele>
        <time>2018-08-28T18:02:23+02:00</time>
      </trkpt>
      <trkpt lat="43.0914" lon="3.03142">
        <ele>1</ele>
        <time>2018-08-28T18:02:28+02:00</time>
      </trkpt>
      <trkpt lat="43.09167" lon="3.03139">
        <ele>1</ele>
        <time>2018-08-28T18:02:33+02:00</time>
      </trkpt>
      <trkpt lat="43.09192" lon="3.03127">
        <ele>1</ele>
        <time>2018-08-28T18:02:38+02:00</time>
      </trkpt>
      <trkpt lat="43.09213" lon="3.03115">
        <ele>1</ele>
        <time>2018-08-28T18:02:42+02:00</time>
      </trkpt>
      <trkpt lat="43.09238" lon="3.03099">
        <ele>1</ele>
        <time>2018-08-28T18:02:47+02:00</time>
      </trkpt>
      <trkpt lat="43.09258" lon="3.03083">
        <ele>1</ele>
        <time>2018-08-28T18:02:51+02:00</time>
      </trkpt>
      <trkpt lat="43.09282" lon="3.03066">
        <ele>1</ele>
        <time>2018-08-28T18:02:56+02:00</time>
      </trkpt>
      <trkpt lat="43.09308" lon="3.03061">
        <ele>1</ele>
        <time>2018-08-28T18:03:01+02:00</time>
      </trkpt>
      <trkpt lat="43.09335" lon="3.03068">
        <ele>1</ele>
        <time>2018-08-28T18:03:06+02:00</time>
      </trkpt>
      <trkpt lat="43.0936" lon="3.03077">
        <ele>1</ele>
        <time>2018-08-28T18:03:11+02:00</time>
      </trkpt>
      <trkpt lat="43.09382" lon="3.03086">
        <ele>1</ele>
        <time>2018-08-28T18:03:15+02:00</time>
      </trkpt>
      <trkpt lat="43.09406" lon="3.03092">
        <ele>1</ele>
        <time>2018-08-28T18:03:19+02:00</time>
      </trkpt>
      <trkpt lat="43.09432" lon="3.03101">
        <ele>1</ele>
        <time>2018-08-28T18:03:24+02:00</time>
      </trkpt>
      <trkpt lat="43.09455" lon="3.03103">
        <ele>1</ele>
        <time>2018-08-28T18:03:28+02:00</time>
      </trkpt>
      <trkpt lat="43.09481" lon="3.03099">
        <ele>1</ele>
        <time>2018-08-28T18:03:33+02:00</time>
      </trkpt>
      <trkpt lat="43.09505" lon="3.03082">
        <ele>1</ele>
        <time>2018-08-28T18:03:37+02:00</time>
      </trkpt>
      <trkpt lat="43.0953" lon="3.03065">
        <ele>1</ele>
        <time>2018-08-28T18:03:42+02:00</time>
      </trkpt>
      <trkpt lat="43.09554" lon="3.03053">
        <ele>1</ele>
        <time>2018-08-28T18:03:47+02:00</time>
      </trkpt>
      <trkpt lat="43.09582" lon="3.03045">
        <ele>1</ele>
        <time>2018-08-28T18:03:52+02:00</time>
      </trkpt>
      <trkpt lat="43.09604" lon="3.03044">
        <ele>1</ele>
        <time>2018-08-28T18:03:56+02:00</time>
      </trkpt>
      <trkpt lat="43.09631" lon="3.03054">
        <ele>1</ele>
        <time>2018-08-28T18:04:01+02:00</time>
      </trkpt>
      <trkpt lat="43.09657" lon="3.03065">
        <ele>1</ele>
        <time>2018-08-28T18:04:06+02:00</time>
      </trkpt>
      <trkpt lat="43.09682" lon="3.03072">
        <ele>1</ele>
        <time>2018-08-28T18:04:11+02:00</time>
      </trkpt>
      <trkpt lat="43.09708" lon="3.0307">
        <ele>1</ele>
        <time>2018-08-28T18:04:16+02:00</time>
      </trkpt>
      <trkpt lat="43.09734" lon="3.03065">
        <ele>1</ele>
        <time>2018-08-28T18:04:21+02:00</time>
      </trkpt>
      <trkpt lat="43.09758" lon="3.03053">
        <ele>1</ele>
        <time>2018-08-28T18:04:26+02:00</time>
      </trkpt>
      <trkpt lat="43.09783" lon="3.03038">
        <ele>1</ele>
        <time>2018-08-28T18:04:31+02:00</time>
      </trkpt>
      <trkpt lat="43.09808" lon="3.03025">
        <ele>1</ele>
        <time>2018-08-28T18:04:36+02:00</time>
      </trkpt>
      <trkpt lat="43.09833" lon="3.03019">
        <ele>1</ele>
        <time>2018-08-28T18:04:41+02:00</time>
      </trkpt>
      <trkpt lat="43.09861" lon="3.03026">
        <ele>1</ele>
        <time>2018-08-28T18:04:46+02:00</time>
      </trkpt>
      <trkpt lat="43.09883" lon="3.03041">
        <ele>1</ele>
        <time>2018-08-28T18:04:51+02:00</time>
      </trkpt>
      <trkpt lat="43.09906" lon="3.03055">
        <ele>1</ele>
        <time>2018-08-28T18:04:56+02:00</time>
      </trkpt>
      <trkpt lat="43.09929" lon="3.03068">
        <ele>1</ele>
        <time>2018-08-28T18:05:01+02:00</time>
      </trkpt>
      <trkpt lat="43.09954" lon="3.03073">
        <ele>1</ele>
        <time>2018-08-28T18:05:06+02:00</time>
      </trkpt>
      <trkpt lat="43.09981" lon="3.03076">
        <ele>1</ele>
        <time>2018-08-28T18:05:11+02:00</time>
      </trkpt>
      <trkpt lat="43.10005" lon="3.03078">
        <ele>1</ele>
        <time>2018-08-28T18:05:16+02:00</time>
      </trkpt>
      <trkpt lat="43.1003" lon="3.03078">
        <ele>1</ele>
        <time>2018-08-28T18:05:21+02:00</time>
      </trkpt>
      <trkpt lat="43.10057" lon="3.03079">
        <ele>1</ele>
        <time>2018-08-28T18:05:26+02:00</time>
      </trkpt>
      <trkpt lat="43.10083" lon="3.03082">
        <ele>1</ele>
        <time>2018-08-28T18:05:31+02:00</time>
      </trkpt>
      <trkpt lat="43.10107" lon="3.03092">
        <ele>1</ele>
        <time>2018-08-28T18:05:36+02:00</time>
      </trkpt>
      <trkpt lat="43.1013" lon="3.03104">
        <ele>1</ele>
        <time>2018-08-28T18:05:41+02:00</time>
      </trkpt>
      <trkpt lat="43.10153" lon="3.03117">
        <ele>1</ele>
        <time>2018-08-28T18:05:46+02:00</time>
      </trkpt>
      <trkpt lat="43.10177" lon="3.03134">
        <ele>1</ele>
        <time>2018-08-28T18:05:51+02:00</time>
      </trkpt>
      <trkpt lat="43.102" lon="3.03149">
        <ele>1</ele>
        <time>2018-08-28T18:05:56+02:00</time>
      </trkpt>
      <trkpt lat="43.10224" lon="3.03159">
        <ele>1</ele>
        <time>2018-08-28T18:06:01+02:00</time>
      </trkpt>
      <trkpt lat="43.10251" lon="3.03162">
        <ele>1</ele>
        <time>2018-08-28T18:06:06+02:00</time>
      </trkpt>
      <trkpt lat="43.10276" lon="3.03158">
        <ele>1</ele>
        <time>2018-08-28T18:06:11+02:00</time>
      </trkpt>
      <trkpt lat="43.103" lon="3.03148">
        <ele>1</ele>
        <time>2018-08-28T18:06:16+02:00</time>
      </trkpt>
      <trkpt lat="43.10326" lon="3.03141">
        <ele>1</ele>
        <time>2018-08-28T18:06:21+02:00</time>
      </trkpt>
      <trkpt lat="43.10352" lon="3.03141">
        <ele>1</ele>
        <time>2018-08-28T18:06:26+02:00</time>
      </trkpt>
      <trkpt lat="43.10376" lon="3.03153">
        <ele>2</ele>
        <time>2018-08-28T18:06:31+02:00</time>
      </trkpt>
      <trkpt lat="43.10401" lon="3.03166">
        <ele>2</ele>
        <time>2018-08-28T18:06:36+02:00</time>
      </trkpt>
      <trkpt lat="43.10424" lon="3.03178">
        <ele>1</ele>
        <time>2018-08-28T18:06:41+02:00</time>
      </trkpt>
      <trkpt lat="43.10448" lon="3.0319">
        <ele>1</ele>
        <time>2018-08-28T18:06:46+02:00</time>
      </trkpt>
      <trkpt lat="43.10472" lon="3.03202">
        <ele>1</ele>
        <time>2018-08-28T18:06:51+02:00</time>
      </trkpt>
      <trkpt lat="43.10493" lon="3.03214">
        <ele>1</ele>
        <time>2018-08-28T18:06:56+02:00</time>
      </trkpt>
      <trkpt lat="43.10515" lon="3.03225">
        <ele>1</ele>
        <time>2018-08-28T18:07:01+02:00</time>
      </trkpt>
      <trkpt lat="43.10539" lon="3.03235">
        <ele>1</ele>
        <time>2018-08-28T18:07:06+02:00</time>
      </trkpt>
      <trkpt lat="43.10562" lon="3.03239">
        <ele>1</ele>
        <time>2018-08-28T18:07:11+02:00</time>
      </trkpt>
      <trkpt lat="43.10588" lon="3.0324">
        <ele>1</ele>
        <time>2018-08-28T18:07:16+02:00</time>
      </trkpt>
      <trkpt lat="43.10612" lon="3.03239">
        <ele>1</ele>
        <time>2018-08-28T18:07:21+02:00</time>
      </trkpt>
      <trkpt lat="43.10637" lon="3.03238">
        <ele>1</ele>
        <time>2018-08-28T18:07:26+02:00</time>
      </trkpt>
      <trkpt lat="43.10663" lon="3.03238">
        <ele>1</ele>
        <time>2018-08-28T18:07:31+02:00</time>
      </trkpt>
      <trkpt lat="43.10688" lon="3.03242">
        <ele>1</ele>
        <time>2018-08-28T18:07:36+02:00</time>
      </trkpt>
      <trkpt lat="43.10712" lon="3.03242">
        <ele>1</ele>
        <time>2018-08-28T18:07:41+02:00</time>
      </trkpt>
      <trkpt lat="43.10739" lon="3.03239">
        <ele>1</ele>
        <time>2018-08-28T18:07:46+02:00</time>
      </trkpt>
      <trkpt lat="43.10764" lon="3.03232">
        <ele>1</ele>
        <time>2018-08-28T18:07:51+02:00</time>
      </trkpt>
      <trkpt lat="43.10788" lon="3.03222">
        <ele>1</ele>
        <time>2018-08-28T18:07:56+02:00</time>
      </trkpt>
      <trkpt lat="43.10813" lon="3.0321">
        <ele>1</ele>
        <time>2018-08-28T18:08:01+02:00</time>
      </trkpt>
      <trkpt lat="43.10839" lon="3.03198">
        <ele>1</ele>
        <time>2018-08-28T18:08:06+02:00</time>
      </trkpt>
      <trkpt lat="43.10864" lon="3.03186">
        <ele>1</ele>
        <time>2018-08-28T18:08:11+02:00</time>
      </trkpt>
      <trkpt lat="43.10887" lon="3.03177">
        <ele>1</ele>
        <time>2018-08-28T18:08:16+02:00</time>
      </trkpt>
      <trkpt lat="43.1091" lon="3.03167">
        <ele>1</ele>
        <time>2018-08-28T18:08:21+02:00</time>
      </trkpt>
      <trkpt lat="43.10934" lon="3.03158">
        <ele>1</ele>
        <time>2018-08-28T18:08:26+02:00</time>
      </trkpt>
      <trkpt lat="43.10959" lon="3.03147">
        <ele>1</ele>
        <time>2018-08-28T18:08:31+02:00</time>
      </trkpt>
      <trkpt lat="43.10984" lon="3.03137">
        <ele>1</ele>
        <time>2018-08-28T18:08:36+02:00</time>
      </trkpt>
      <trkpt lat="43.11008" lon="3.03126">
        <ele>1</ele>
        <time>2018-08-28T18:08:41+02:00</time>
      </trkpt>
      <trkpt lat="43.11034" lon="3.03122">
        <ele>1</ele>
        <time>2018-08-28T18:08:46+02:00</time>
      </trkpt>
      <trkpt lat="43.11061" lon="3.03122">
        <ele>1</ele>
        <time>2018-08-28T18:08:51+02:00</time>
      </trkpt>
      <trkpt lat="43.11086" lon="3.03127">
        <ele>1</ele>
        <time>2018-08-28T18:08:56+02:00</time>
      </trkpt>
      <trkpt lat="43.11111" lon="3.03133">
        <ele>1</ele>
        <time>2018-08-28T18:09:01+02:00</time>
      </trkpt>
      <trkpt lat="43.11135" lon="3.03137">
        <ele>1</ele>
        <time>2018-08-28T18:09:06+02:00</time>
      </trkpt>
      <trkpt lat="43.11159" lon="3.03135">
        <ele>1</ele>
        <time>2018-08-28T18:09:11+02:00</time>
      </trkpt>
      <trkpt lat="43.11186" lon="3.03127">
        <ele>1</ele>
        <time>2018-08-28T18:09:17+02:00</time>
      </trkpt>
      <trkpt lat="43.11209" lon="3.03119">
        <ele>1</ele>
        <time>2018-08-28T18:09:22+02:00</time>
      </trkpt>
      <trkpt lat="43.11233" lon="3.03113">
        <ele>1</ele>
        <time>2018-08-28T18:09:27+02:00</time>
      </trkpt>
      <trkpt lat="43.11258" lon="3.03105">
        <ele>1</ele>
        <time>2018-08-28T18:09:32+02:00</time>
      </trkpt>
      <trkpt lat="43.11282" lon="3.03104">
        <ele>1</ele>
        <time>2018-08-28T18:09:37+02:00</time>
      </trkpt>
      <trkpt lat="43.11307" lon="3.03101">
        <ele>1</ele>
        <time>2018-08-28T18:09:42+02:00</time>
      </trkpt>
      <trkpt lat="43.11331" lon="3.031">
        <ele>1</ele>
        <time>2018-08-28T18:09:47+02:00</time>
      </trkpt>
      <trkpt lat="43.11355" lon="3.03096">
        <ele>1</ele>
        <time>2018-08-28T18:09:52+02:00</time>
      </trkpt>
      <trkpt lat="43.11376" lon="3.03088">
        <ele>1</ele>
        <time>2018-08-28T18:09:57+02:00</time>
      </trkpt>
      <trkpt lat="43.114" lon="3.03076">
        <ele>1</ele>
        <time>2018-08-28T18:10:02+02:00</time>
      </trkpt>
      <trkpt lat="43.11423" lon="3.0307">
        <ele>1</ele>
        <time>2018-08-28T18:10:07+02:00</time>
      </trkpt>
      <trkpt lat="43.11446" lon="3.03061">
        <ele>1</ele>
        <time>2018-08-28T18:10:12+02:00</time>
      </trkpt>
      <trkpt lat="43.1147" lon="3.03055">
        <ele>1</ele>
        <time>2018-08-28T18:10:17+02:00</time>
      </trkpt>
      <trkpt lat="43.11494" lon="3.03055">
        <ele>1</ele>
        <time>2018-08-28T18:10:22+02:00</time>
      </trkpt>
      <trkpt lat="43.11518" lon="3.03055">
        <ele>1</ele>
        <time>2018-08-28T18:10:27+02:00</time>
      </trkpt>
      <trkpt lat="43.11541" lon="3.03055">
        <ele>1</ele>
        <time>2018-08-28T18:10:32+02:00</time>
      </trkpt>
      <trkpt lat="43.11565" lon="3.03056">
        <ele>1</ele>
        <time>2018-08-28T18:10:37+02:00</time>
      </trkpt>
      <trkpt lat="43.1159" lon="3.03058">
        <ele>1</ele>
        <time>2018-08-28T18:10:42+02:00</time>
      </trkpt>
      <trkpt lat="43.11614" lon="3.03061">
        <ele>1</ele>
        <time>2018-08-28T18:10:47+02:00</time>
      </trkpt>
      <trkpt lat="43.11639" lon="3.03064">
        <ele>1</ele>
        <time>2018-08-28T18:10:52+02:00</time>
      </trkpt>
      <trkpt lat="43.11663" lon="3.03066">
        <ele>1</ele>
        <time>2018-08-28T18:10:57+02:00</time>
      </trkpt>
      <trkpt lat="43.11689" lon="3.03064">
        <ele>1</ele>
        <time>2018-08-28T18:11:02+02:00</time>
      </trkpt>
      <trkpt lat="43.11712" lon="3.03067">
        <ele>1</ele>
        <time>2018-08-28T18:11:07+02:00</time>
      </trkpt>
      <trkpt lat="43.11735" lon="3.03064">
        <ele>1</ele>
        <time>2018-08-28T18:11:11+02:00</time>
      </trkpt>
      <trkpt lat="43.1176" lon="3.03072">
        <ele>1</ele>
        <time>2018-08-28T18:11:17+02:00</time>
      </trkpt>
      <trkpt lat="43.11784" lon="3.03076">
        <ele>1</ele>
        <time>2018-08-28T18:11:22+02:00</time>
      </trkpt>
      <trkpt lat="43.1181" lon="3.0308">
        <ele>1</ele>
        <time>2018-08-28T18:11:27+02:00</time>
      </trkpt>
      <trkpt lat="43.11836" lon="3.0308">
        <ele>1</ele>
        <time>2018-08-28T18:11:32+02:00</time>
      </trkpt>
      <trkpt lat="43.1186" lon="3.03083">
        <ele>1</ele>
        <time>2018-08-28T18:11:37+02:00</time>
      </trkpt>
      <trkpt lat="43.11885" lon="3.03085">
        <ele>1</ele>
        <time>2018-08-28T18:11:42+02:00</time>
      </trkpt>
      <trkpt lat="43.11908" lon="3.03087">
        <ele>1</ele>
        <time>2018-08-28T18:11:47+02:00</time>
      </trkpt>
      <trkpt lat="43.11931" lon="3.03087">
        <ele>1</ele>
        <time>2018-08-28T18:11:52+02:00</time>
      </trkpt>
      <trkpt lat="43.11955" lon="3.03089">
        <ele>1</ele>
        <time>2018-08-28T18:11:57+02:00</time>
      </trkpt>
      <trkpt lat="43.11979" lon="3.03093">
        <ele>1</ele>
        <time>2018-08-28T18:12:02+02:00</time>
      </trkpt>
      <trkpt lat="43.12004" lon="3.03097">
        <ele>1</ele>
        <time>2018-08-28T18:12:07+02:00</time>
      </trkpt>
      <trkpt lat="43.12027" lon="3.03096">
        <ele>1</ele>
        <time>2018-08-28T18:12:12+02:00</time>
      </trkpt>
      <trkpt lat="43.12051" lon="3.03099">
        <ele>1</ele>
        <time>2018-08-28T18:12:17+02:00</time>
      </trkpt>
      <trkpt lat="43.12074" lon="3.03101">
        <ele>1</ele>
        <time>2018-08-28T18:12:22+02:00</time>
      </trkpt>
      <trkpt lat="43.12097" lon="3.03104">
        <ele>1</ele>
        <time>2018-08-28T18:12:27+02:00</time>
      </trkpt>
      <trkpt lat="43.12121" lon="3.03105">
        <ele>2</ele>
        <time>2018-08-28T18:12:32+02:00</time>
      </trkpt>
      <trkpt lat="43.12144" lon="3.03105">
        <ele>2</ele>
        <time>2018-08-28T18:12:37+02:00</time>
      </trkpt>
      <trkpt lat="43.12168" lon="3.03108">
        <ele>2</ele>
        <time>2018-08-28T18:12:43+02:00</time>
      </trkpt>
      <trkpt lat="43.12191" lon="3.03106">
        <ele>2</ele>
        <time>2018-08-28T18:12:53+02:00</time>
      </trkpt>
      <trkpt lat="43.12216" lon="3.0311">
        <ele>2</ele>
        <time>2018-08-28T18:13:00+02:00</time>
      </trkpt>
      <trkpt lat="43.12243" lon="3.03113">
        <ele>2</ele>
        <time>2018-08-28T18:13:06+02:00</time>
      </trkpt>
      <trkpt lat="43.12266" lon="3.03112">
        <ele>2</ele>
        <time>2018-08-28T18:13:11+02:00</time>
      </trkpt>
      <trkpt lat="43.1229" lon="3.03117">
        <ele>2</ele>
        <time>2018-08-28T18:13:18+02:00</time>
      </trkpt>
      <trkpt lat="43.12315" lon="3.03121">
        <ele>2</ele>
        <time>2018-08-28T18:13:25+02:00</time>
      </trkpt>
      <trkpt lat="43.12338" lon="3.03122">
        <ele>2</ele>
        <time>2018-08-28T18:13:31+02:00</time>
      </trkpt>
      <trkpt lat="43.1236" lon="3.03127">
        <ele>2</ele>
        <time>2018-08-28T18:13:38+02:00</time>
      </trkpt>
      <trkpt lat="43.12386" lon="3.03131">
        <ele>2</ele>
        <time>2018-08-28T18:13:46+02:00</time>
      </trkpt>
      <trkpt lat="43.1241" lon="3.03136">
        <ele>2</ele>
        <time>2018-08-28T18:13:53+02:00</time>
      </trkpt>
      <trkpt lat="43.12438" lon="3.03136">
        <ele>2</ele>
        <time>2018-08-28T18:14:00+02:00</time>
      </trkpt>
      <trkpt lat="43.12462" lon="3.03137">
        <ele>2</ele>
        <time>2018-08-28T18:14:06+02:00</time>
      </trkpt>
      <trkpt lat="43.12488" lon="3.03141">
        <ele>2</ele>
        <time>2018-08-28T18:14:12+02:00</time>
      </trkpt>
      <trkpt lat="43.12512" lon="3.03144">
        <ele>2</ele>
        <time>2018-08-28T18:14:18+02:00</time>
      </trkpt>
      <trkpt lat="43.12538" lon="3.03146">
        <ele>2</ele>
        <time>2018-08-28T18:14:24+02:00</time>
      </trkpt>
      <trkpt lat="43.12565" lon="3.03148">
        <ele>2</ele>
        <time>2018-08-28T18:14:30+02:00</time>
      </trkpt>
      <trkpt lat="43.1259" lon="3.03148">
        <ele>2</ele>
        <time>2018-08-28T18:14:36+02:00</time>
      </trkpt>
      <trkpt lat="43.12614" lon="3.03148">
        <ele>2</ele>
        <time>2018-08-28T18:14:42+02:00</time>
      </trkpt>
      <trkpt lat="43.12639" lon="3.03147">
        <ele>2</ele>
        <time>2018-08-28T18:14:48+02:00</time>
      </trkpt>
      <trkpt lat="43.12664" lon="3.03155">
        <ele>2</ele>
        <time>2018-08-28T18:14:54+02:00</time>
      </trkpt>
      <trkpt lat="43.12688" lon="3.03158">
        <ele>2</ele>
        <time>2018-08-28T18:15:00+02:00</time>
      </trkpt>
      <trkpt lat="43.12711" lon="3.03161">
        <ele>2</ele>
        <time>2018-08-28T18:15:05+02:00</time>
      </trkpt>
      <trkpt lat="43.12738" lon="3.03166">
        <ele>2</ele>
        <time>2018-08-28T18:15:11+02:00</time>
      </trkpt>
      <trkpt lat="43.12761" lon="3.03166">
        <ele>2</ele>
        <time>2018-08-28T18:15:17+02:00</time>
      </trkpt>
      <trkpt lat="43.12787" lon="3.03167">
        <ele>2</ele>
        <time>2018-08-28T18:15:22+02:00</time>
      </trkpt>
      <trkpt lat="43.12813" lon="3.03169">
        <ele>2</ele>
        <time>2018-08-28T18:15:28+02:00</time>
      </trkpt>
      <trkpt lat="43.12838" lon="3.03175">
        <ele>2</ele>
        <time>2018-08-28T18:15:34+02:00</time>
      </trkpt>
      <trkpt lat="43.12862" lon="3.03184">
        <ele>2</ele>
        <time>2018-08-28T18:15:39+02:00</time>
      </trkpt>
      <trkpt lat="43.12885" lon="3.03194">
        <ele>2</ele>
        <time>2018-08-28T18:15:44+02:00</time>
      </trkpt>
      <trkpt lat="43.12911" lon="3.032">
        <ele>2</ele>
        <time>2018-08-28T18:15:50+02:00</time>
      </trkpt>
      <trkpt lat="43.12938" lon="3.03202">
        <ele>2</ele>
        <time>2018-08-28T18:15:56+02:00</time>
      </trkpt>
      <trkpt lat="43.12961" lon="3.03201">
        <ele>2</ele>
        <time>2018-08-28T18:16:01+02:00</time>
      </trkpt>
      <trkpt lat="43.12986" lon="3.03194">
        <ele>2</ele>
        <time>2018-08-28T18:16:07+02:00</time>
      </trkpt>
      <trkpt lat="43.13009" lon="3.0319">
        <ele>2</ele>
        <time>2018-08-28T18:16:12+02:00</time>
      </trkpt>
      <trkpt lat="43.13033" lon="3.03191">
        <ele>2</ele>
        <time>2018-08-28T18:16:18+02:00</time>
      </trkpt>
      <trkpt lat="43.1306" lon="3.03193">
        <ele>2</ele>
        <time>2018-08-28T18:16:24+02:00</time>
      </trkpt>
      <trkpt lat="43.13084" lon="3.03198">
        <ele>2</ele>
        <time>2018-08-28T18:16:29+02:00</time>
      </trkpt>
      <trkpt lat="43.13111" lon="3.03202">
        <ele>2</ele>
        <time>2018-08-28T18:16:35+02:00</time>
      </trkpt>
      <trkpt lat="43.13134" lon="3.03205">
        <ele>2</ele>
        <time>2018-08-28T18:16:40+02:00</time>
      </trkpt>
      <trkpt lat="43.13157" lon="3.03207">
        <ele>2</ele>
        <time>2018-08-28T18:16:46+02:00</time>
      </trkpt>
      <trkpt lat="43.13183" lon="3.03215">
        <ele>2</ele>
        <time>2018-08-28T18:16:52+02:00</time>
      </trkpt>
      <trkpt lat="43.13207" lon="3.03211">
        <ele>2</ele>
        <time>2018-08-28T18:16:57+02:00</time>
      </trkpt>
      <trkpt lat="43.1323" lon="3.03216">
        <ele>2</ele>
        <time>2018-08-28T18:17:02+02:00</time>
      </trkpt>
      <trkpt lat="43.13254" lon="3.03212">
        <ele>2</ele>
        <time>2018-08-28T18:17:08+02:00</time>
      </trkpt>
      <trkpt lat="43.13276" lon="3.03197">
        <ele>2</ele>
        <time>2018-08-28T18:17:13+02:00</time>
      </trkpt>
      <trkpt lat="43.13301" lon="3.0318">
        <ele>2</ele>
        <time>2018-08-28T18:17:19+02:00</time>
      </trkpt>
      <trkpt lat="43.13322" lon="3.03165">
        <ele>2</ele>
        <time>2018-08-28T18:17:24+02:00</time>
      </trkpt>
      <trkpt lat="43.13344" lon="3.03156">
        <ele>2</ele>
        <time>2018-08-28T18:17:29+02:00</time>
      </trkpt>
      <trkpt lat="43.13369" lon="3.03149">
        <ele>2</ele>
        <time>2018-08-28T18:17:34+02:00</time>
      </trkpt>
      <trkpt lat="43.13392" lon="3.03145">
        <ele>2</ele>
        <time>2018-08-28T18:17:39+02:00</time>
      </trkpt>
      <trkpt lat="43.13418" lon="3.03144">
        <ele>2</ele>
        <time>2018-08-28T18:17:45+02:00</time>
      </trkpt>
      <trkpt lat="43.13441" lon="3.03141">
        <ele>2</ele>
        <time>2018-08-28T18:17:50+02:00</time>
      </trkpt>
      <trkpt lat="43.13466" lon="3.03134">
        <ele>2</ele>
        <time>2018-08-28T18:17:55+02:00</time>
      </trkpt>
      <trkpt lat="43.1349" lon="3.03134">
        <ele>2</ele>
        <time>2018-08-28T18:18:00+02:00</time>
      </trkpt>
      <trkpt lat="43.13513" lon="3.03135">
        <ele>2</ele>
        <time>2018-08-28T18:18:05+02:00</time>
      </trkpt>
      <trkpt lat="43.13538" lon="3.03134">
        <ele>2</ele>
        <time>2018-08-28T18:18:10+02:00</time>
      </trkpt>
      <trkpt lat="43.13564" lon="3.03137">
        <ele>2</ele>
        <time>2018-08-28T18:18:16+02:00</time>
      </trkpt>
      <trkpt lat="43.13591" lon="3.03139">
        <ele>2</ele>
        <time>2018-08-28T18:18:21+02:00</time>
      </trkpt>
      <trkpt lat="43.13615" lon="3.03141">
        <ele>2</ele>
        <time>2018-08-28T18:18:26+02:00</time>
      </trkpt>
      <trkpt lat="43.13642" lon="3.03137">
        <ele>2</ele>
        <time>2018-08-28T18:18:31+02:00</time>
      </trkpt>
      <trkpt lat="43.13666" lon="3.03137">
        <ele>2</ele>
        <time>2018-08-28T18:18:36+02:00</time>
      </trkpt>
      <trkpt lat="43.13693" lon="3.0314">
        <ele>2</ele>
        <time>2018-08-28T18:18:41+02:00</time>
      </trkpt>
      <trkpt lat="43.13716" lon="3.03141">
        <ele>2</ele>
        <time>2018-08-28T18:18:46+02:00</time>
      </trkpt>
      <trkpt lat="43.13739" lon="3.0314">
        <ele>2</ele>
        <time>2018-08-28T18:18:51+02:00</time>
      </trkpt>
      <trkpt lat="43.13762" lon="3.03145">
        <ele>2</ele>
        <time>2018-08-28T18:18:56+02:00</time>
      </trkpt>
      <trkpt lat="43.13784" lon="3.03144">
        <ele>2</ele>
        <time>2018-08-28T18:19:00+02:00</time>
      </trkpt>
      <trkpt lat="43.13809" lon="3.03138">
        <ele>2</ele>
        <time>2018-08-28T18:19:05+02:00</time>
      </trkpt>
      <trkpt lat="43.13832" lon="3.03124">
        <ele>2</ele>
        <time>2018-08-28T18:19:10+02:00</time>
      </trkpt>
      <trkpt lat="43.13855" lon="3.03108">
        <ele>2</ele>
        <time>2018-08-28T18:19:17+02:00</time>
      </trkpt>
      <trkpt lat="43.13876" lon="3.03091">
        <ele>2</ele>
        <time>2018-08-28T18:19:23+02:00</time>
      </trkpt>
      <trkpt lat="43.13897" lon="3.03077">
        <ele>2</ele>
        <time>2018-08-28T18:19:28+02:00</time>
      </trkpt>
      <trkpt lat="43.13918" lon="3.03059">
        <ele>2</ele>
        <time>2018-08-28T18:19:32+02:00</time>
      </trkpt>
      <trkpt lat="43.13943" lon="3.0306">
        <ele>2</ele>
        <time>2018-08-28T18:19:38+02:00</time>
      </trkpt>
      <trkpt lat="43.13968" lon="3.03056">
        <ele>2</ele>
        <time>2018-08-28T18:19:46+02:00</time>
      </trkpt>
      <trkpt lat="43.13994" lon="3.03058">
        <ele>2</ele>
        <time>2018-08-28T18:19:53+02:00</time>
      </trkpt>
      <trkpt lat="43.1402" lon="3.03052">
        <ele>2</ele>
        <time>2018-08-28T18:19:58+02:00</time>
      </trkpt>
      <trkpt lat="43.14045" lon="3.03049">
        <ele>2</ele>
        <time>2018-08-28T18:20:03+02:00</time>
      </trkpt>
      <trkpt lat="43.14068" lon="3.03041">
        <ele>2</ele>
        <time>2018-08-28T18:20:08+02:00</time>
      </trkpt>
      <trkpt lat="43.14091" lon="3.03035">
        <ele>2</ele>
        <time>2018-08-28T18:20:14+02:00</time>
      </trkpt>
      <trkpt lat="43.14114" lon="3.03029">
        <ele>2</ele>
        <time>2018-08-28T18:20:19+02:00</time>
      </trkpt>
      <trkpt lat="43.14138" lon="3.03021">
        <ele>2</ele>
        <time>2018-08-28T18:20:24+02:00</time>
      </trkpt>
      <trkpt lat="43.14162" lon="3.03022">
        <ele>2</ele>
        <time>2018-08-28T18:20:28+02:00</time>
      </trkpt>
      <trkpt lat="43.14186" lon="3.03023">
        <ele>2</ele>
        <time>2018-08-28T18:20:33+02:00</time>
      </trkpt>
      <trkpt lat="43.14211" lon="3.03026">
        <ele>2</ele>
        <time>2018-08-28T18:20:39+02:00</time>
      </trkpt>
      <trkpt lat="43.14239" lon="3.03025">
        <ele>2</ele>
        <time>2018-08-28T18:20:44+02:00</time>
      </trkpt>
      <trkpt lat="43.14262" lon="3.03019">
        <ele>2</ele>
        <time>2018-08-28T18:20:49+02:00</time>
      </trkpt>
      <trkpt lat="43.14285" lon="3.03008">
        <ele>2</ele>
        <time>2018-08-28T18:20:54+02:00</time>
      </trkpt>
      <trkpt lat="43.14307" lon="3.02995">
        <ele>2</ele>
        <time>2018-08-28T18:20:59+02:00</time>
      </trkpt>
      <trkpt lat="43.14328" lon="3.02982">
        <ele>2</ele>
        <time>2018-08-28T18:21:04+02:00</time>
      </trkpt>
      <trkpt lat="43.14352" lon="3.02972">
        <ele>2</ele>
        <time>2018-08-28T18:21:09+02:00</time>
      </trkpt>
      <trkpt lat="43.14376" lon="3.02963">
        <ele>2</ele>
        <time>2018-08-28T18:21:14+02:00</time>
      </trkpt>
      <trkpt lat="43.14399" lon="3.02953">
        <ele>2</ele>
        <time>2018-08-28T18:21:19+02:00</time>
      </trkpt>
      <trkpt lat="43.14424" lon="3.0294">
        <ele>2</ele>
        <time>2018-08-28T18:21:25+02:00</time>
      </trkpt>
      <trkpt lat="43.14444" lon="3.02924">
        <ele>2</ele>
        <time>2018-08-28T18:21:30+02:00</time>
      </trkpt>
      <trkpt lat="43.14463" lon="3.02907">
        <ele>2</ele>
        <time>2018-08-28T18:21:35+02:00</time>
      </trkpt>
      <trkpt lat="43.14483" lon="3.0289">
        <ele>2</ele>
        <time>2018-08-28T18:21:40+02:00</time>
      </trkpt>
      <trkpt lat="43.14504" lon="3.02874">
        <ele>2</ele>
        <time>2018-08-28T18:21:45+02:00</time>
      </trkpt>
      <trkpt lat="43.14525" lon="3.02861">
        <ele>2</ele>
        <time>2018-08-28T18:21:50+02:00</time>
      </trkpt>
      <trkpt lat="43.14548" lon="3.0285">
        <ele>2</ele>
        <time>2018-08-28T18:21:55+02:00</time>
      </trkpt>
      <trkpt lat="43.14572" lon="3.02842">
        <ele>2</ele>
        <time>2018-08-28T18:22:00+02:00</time>
      </trkpt>
      <trkpt lat="43.14598" lon="3.02844">
        <ele>2</ele>
        <time>2018-08-28T18:22:05+02:00</time>
      </trkpt>
      <trkpt lat="43.14623" lon="3.02846">
        <ele>2</ele>
        <time>2018-08-28T18:22:11+02:00</time>
      </trkpt>
      <trkpt lat="43.14647" lon="3.02843">
        <ele>2</ele>
        <time>2018-08-28T18:22:15+02:00</time>
      </trkpt>
      <trkpt lat="43.1467" lon="3.02837">
        <ele>2</ele>
        <time>2018-08-28T18:22:21+02:00</time>
      </trkpt>
      <trkpt lat="43.14693" lon="3.0283">
        <ele>2</ele>
        <time>2018-08-28T18:22:26+02:00</time>
      </trkpt>
      <trkpt lat="43.1472" lon="3.02829">
        <ele>2</ele>
        <time>2018-08-28T18:22:32+02:00</time>
      </trkpt>
      <trkpt lat="43.14743" lon="3.02839">
        <ele>2</ele>
        <time>2018-08-28T18:22:37+02:00</time>
      </trkpt>
      <trkpt lat="43.14768" lon="3.02855">
        <ele>2</ele>
        <time>2018-08-28T18:22:42+02:00</time>
      </trkpt>
      <trkpt lat="43.14787" lon="3.02872">
        <ele>2</ele>
        <time>2018-08-28T18:22:47+02:00</time>
      </trkpt>
      <trkpt lat="43.14805" lon="3.02892">
        <ele>2</ele>
        <time>2018-08-28T18:22:52+02:00</time>
      </trkpt>
      <trkpt lat="43.14826" lon="3.0291">
        <ele>2</ele>
        <time>2018-08-28T18:22:57+02:00</time>
      </trkpt>
      <trkpt lat="43.14844" lon="3.02929">
        <ele>2</ele>
        <time>2018-08-28T18:23:02+02:00</time>
      </trkpt>
      <trkpt lat="43.14864" lon="3.02949">
        <ele>2</ele>
        <time>2018-08-28T18:23:07+02:00</time>
      </trkpt>
      <trkpt lat="43.14886" lon="3.02968">
        <ele>2</ele>
        <time>2018-08-28T18:23:12+02:00</time>
      </trkpt>
      <trkpt lat="43.14904" lon="3.02988">
        <ele>2</ele>
        <time>2018-08-28T18:23:17+02:00</time>
      </trkpt>
      <trkpt lat="43.14923" lon="3.03006">
        <ele>2</ele>
        <time>2018-08-28T18:23:22+02:00</time>
      </trkpt>
      <trkpt lat="43.14944" lon="3.03028">
        <ele>2</ele>
        <time>2018-08-28T18:23:28+02:00</time>
      </trkpt>
      <trkpt lat="43.14965" lon="3.03041">
        <ele>2</ele>
        <time>2018-08-28T18:23:33+02:00</time>
      </trkpt>
      <trkpt lat="43.14983" lon="3.03059">
        <ele>2</ele>
        <time>2018-08-28T18:23:38+02:00</time>
      </trkpt>
      <trkpt lat="43.15002" lon="3.03081">
        <ele>2</ele>
        <time>2018-08-28T18:23:43+02:00</time>
      </trkpt>
      <trkpt lat="43.15025" lon="3.03098">
        <ele>2</ele>
        <time>2018-08-28T18:23:49+02:00</time>
      </trkpt>
      <trkpt lat="43.15049" lon="3.0311">
        <ele>2</ele>
        <time>2018-08-28T18:23:55+02:00</time>
      </trkpt>
      <trkpt lat="43.15072" lon="3.03119">
        <ele>2</ele>
        <time>2018-08-28T18:24:00+02:00</time>
      </trkpt>
      <trkpt lat="43.15095" lon="3.03135">
        <ele>2</ele>
        <time>2018-08-28T18:24:06+02:00</time>
      </trkpt>
      <trkpt lat="43.15116" lon="3.03152">
        <ele>2</ele>
        <time>2018-08-28T18:24:11+02:00</time>
      </trkpt>
      <trkpt lat="43.15134" lon="3.03174">
        <ele>2</ele>
        <time>2018-08-28T18:24:15+02:00</time>
      </trkpt>
      <trkpt lat="43.1515" lon="3.03196">
        <ele>2</ele>
        <time>2018-08-28T18:24:21+02:00</time>
      </trkpt>
      <trkpt lat="43.15169" lon="3.03221">
        <ele>2</ele>
        <time>2018-08-28T18:24:27+02:00</time>
      </trkpt>
      <trkpt lat="43.15186" lon="3.03246">
        <ele>2</ele>
        <time>2018-08-28T18:24:32+02:00</time>
      </trkpt>
      <trkpt lat="43.15204" lon="3.03273">
        <ele>2</ele>
        <time>2018-08-28T18:24:38+02:00</time>
      </trkpt>
      <trkpt lat="43.15221" lon="3.03296">
        <ele>2</ele>
        <time>2018-08-28T18:24:43+02:00</time>
      </trkpt>
      <trkpt lat="43.15237" lon="3.03319">
        <ele>2</ele>
        <time>2018-08-28T18:24:48+02:00</time>
      </trkpt>
      <trkpt lat="43.15255" lon="3.03345">
        <ele>2</ele>
        <time>2018-08-28T18:24:54+02:00</time>
      </trkpt>
      <trkpt lat="43.15272" lon="3.03366">
        <ele>2</ele>
        <time>2018-08-28T18:24:59+02:00</time>
      </trkpt>
      <trkpt lat="43.15294" lon="3.03385">
        <ele>2</ele>
        <time>2018-08-28T18:25:05+02:00</time>
      </trkpt>
      <trkpt lat="43.15315" lon="3.03399">
        <ele>2</ele>
        <time>2018-08-28T18:25:10+02:00</time>
      </trkpt>
      <trkpt lat="43.15338" lon="3.03411">
        <ele>2</ele>
        <time>2018-08-28T18:25:15+02:00</time>
      </trkpt>
      <trkpt lat="43.15362" lon="3.03423">
        <ele>2</ele>
        <time>2018-08-28T18:25:20+02:00</time>
      </trkpt>
      <trkpt lat="43.15383" lon="3.03432">
        <ele>2</ele>
        <time>2018-08-28T18:25:25+02:00</time>
      </trkpt>
      <trkpt lat="43.15408" lon="3.03442">
        <ele>2</ele>
        <time>2018-08-28T18:25:31+02:00</time>
      </trkpt>
      <trkpt lat="43.1543" lon="3.03452">
        <ele>2</ele>
        <time>2018-08-28T18:25:36+02:00</time>
      </trkpt>
      <trkpt lat="43.15453" lon="3.03462">
        <ele>2</ele>
        <time>2018-08-28T18:25:41+02:00</time>
      </trkpt>
      <trkpt lat="43.15474" lon="3.03474">
        <ele>2</ele>
        <time>2018-08-28T18:25:46+02:00</time>
      </trkpt>
      <trkpt lat="43.15495" lon="3.03487">
        <ele>2</ele>
        <time>2018-08-28T18:25:51+02:00</time>
      </trkpt>
      <trkpt lat="43.15516" lon="3.03502">
        <ele>2</ele>
        <time>2018-08-28T18:25:56+02:00</time>
      </trkpt>
      <trkpt lat="43.15538" lon="3.03515">
        <ele>2</ele>
        <time>2018-08-28T18:26:01+02:00</time>
      </trkpt>
      <trkpt lat="43.15559" lon="3.03533">
        <ele>2</ele>
        <time>2018-08-28T18:26:06+02:00</time>
      </trkpt>
      <trkpt lat="43.15578" lon="3.03552">
        <ele>2</ele>
        <time>2018-08-28T18:26:11+02:00</time>
      </trkpt>
      <trkpt lat="43.156" lon="3.03574">
        <ele>2</ele>
        <time>2018-08-28T18:26:17+02:00</time>
      </trkpt>
      <trkpt lat="43.1562" lon="3.03594">
        <ele>2</ele>
        <time>2018-08-28T18:26:22+02:00</time>
      </trkpt>
      <trkpt lat="43.15639" lon="3.03614">
        <ele>2</ele>
        <time>2018-08-28T18:26:27+02:00</time>
      </trkpt>
      <trkpt lat="43.15657" lon="3.03635">
        <ele>2</ele>
        <time>2018-08-28T18:26:32+02:00</time>
      </trkpt>
      <trkpt lat="43.15675" lon="3.03656">
        <ele>2</ele>
        <time>2018-08-28T18:26:37+02:00</time>
      </trkpt>
      <trkpt lat="43.15695" lon="3.03675">
        <ele>2</ele>
        <time>2018-08-28T18:26:43+02:00</time>
      </trkpt>
      <trkpt lat="43.15718" lon="3.03685">
        <ele>2</ele>
        <time>2018-08-28T18:26:50+02:00</time>
      </trkpt>
      <trkpt lat="43.1574" lon="3.03693">
        <ele>2</ele>
        <time>2018-08-28T18:26:58+02:00</time>
      </trkpt>
      <trkpt lat="43.15763" lon="3.037">
        <ele>2</ele>
        <time>2018-08-28T18:27:06+02:00</time>
      </trkpt>
      <trkpt lat="43.1579" lon="3.03705">
        <ele>2</ele>
        <time>2018-08-28T18:27:12+02:00</time>
      </trkpt>
      <trkpt lat="43.15811" lon="3.03716">
        <ele>2</ele>
        <time>2018-08-28T18:27:18+02:00</time>
      </trkpt>
      <trkpt lat="43.15833" lon="3.03723">
        <ele>2</ele>
        <time>2018-08-28T18:27:22+02:00</time>
      </trkpt>
      <trkpt lat="43.15856" lon="3.03727">
        <ele>2</ele>
        <time>2018-08-28T18:27:27+02:00</time>
      </trkpt>
      <trkpt lat="43.15879" lon="3.03734">
        <ele>2</ele>
        <time>2018-08-28T18:27:33+02:00</time>
      </trkpt>
      <trkpt lat="43.15902" lon="3.03738">
        <ele>2</ele>
        <time>2018-08-28T18:27:38+02:00</time>
      </trkpt>
      <trkpt lat="43.15927" lon="3.03745">
        <ele>2</ele>
        <time>2018-08-28T18:27:44+02:00</time>
      </trkpt>
      <trkpt lat="43.15952" lon="3.03753">
        <ele>2</ele>
        <time>2018-08-28T18:27:50+02:00</time>
      </trkpt>
      <trkpt lat="43.15975" lon="3.03764">
        <ele>2</ele>
        <time>2018-08-28T18:27:56+02:00</time>
      </trkpt>
      <trkpt lat="43.15998" lon="3.03778">
        <ele>2</ele>
        <time>2018-08-28T18:28:02+02:00</time>
      </trkpt>
      <trkpt lat="43.16019" lon="3.03792">
        <ele>2</ele>
        <time>2018-08-28T18:28:07+02:00</time>
      </trkpt>
      <trkpt lat="43.1604" lon="3.03805">
        <ele>2</ele>
        <time>2018-08-28T18:28:12+02:00</time>
      </trkpt>
      <trkpt lat="43.16061" lon="3.03817">
        <ele>2</ele>
        <time>2018-08-28T18:28:17+02:00</time>
      </trkpt>
      <trkpt lat="43.16081" lon="3.03833">
        <ele>2</ele>
        <time>2018-08-28T18:28:22+02:00</time>
      </trkpt>
      <trkpt lat="43.16103" lon="3.03845">
        <ele>2</ele>
        <time>2018-08-28T18:28:27+02:00</time>
      </trkpt>
      <trkpt lat="43.16127" lon="3.03858">
        <ele>2</ele>
        <time>2018-08-28T18:28:32+02:00</time>
      </trkpt>
      <trkpt lat="43.16153" lon="3.03872">
        <ele>2</ele>
        <time>2018-08-28T18:28:38+02:00</time>
      </trkpt>
      <trkpt lat="43.16177" lon="3.03885">
        <ele>2</ele>
        <time>2018-08-28T18:28:44+02:00</time>
      </trkpt>
      <trkpt lat="43.16199" lon="3.03899">
        <ele>2</ele>
        <time>2018-08-28T18:28:49+02:00</time>
      </trkpt>
      <trkpt lat="43.16222" lon="3.03907">
        <ele>2</ele>
        <time>2018-08-28T18:28:54+02:00</time>
      </trkpt>
      <trkpt lat="43.16246" lon="3.0391">
        <ele>2</ele>
        <time>2018-08-28T18:28:59+02:00</time>
      </trkpt>
      <trkpt lat="43.1627" lon="3.0391">
        <ele>2</ele>
        <time>2018-08-28T18:29:04+02:00</time>
      </trkpt>
      <trkpt lat="43.16292" lon="3.03908">
        <ele>2</ele>
        <time>2018-08-28T18:29:09+02:00</time>
      </trkpt>
      <trkpt lat="43.16319" lon="3.03905">
        <ele>2</ele>
        <time>2018-08-28T18:29:15+02:00</time>
      </trkpt>
      <trkpt lat="43.16344" lon="3.03903">
        <ele>2</ele>
        <time>2018-08-28T18:29:22+02:00</time>
      </trkpt>
      <trkpt lat="43.16369" lon="3.03896">
        <ele>2</ele>
        <time>2018-08-28T18:29:28+02:00</time>
      </trkpt>
      <trkpt lat="43.16389" lon="3.03877">
        <ele>2</ele>
        <time>2018-08-28T18:29:35+02:00</time>
      </trkpt>
      <trkpt lat="43.16408" lon="3.03856">
        <ele>2</ele>
        <time>2018-08-28T18:29:41+02:00</time>
      </trkpt>
      <trkpt lat="43.16425" lon="3.03826">
        <ele>2</ele>
        <time>2018-08-28T18:29:47+02:00</time>
      </trkpt>
      <trkpt lat="43.16442" lon="3.03804">
        <ele>2</ele>
        <time>2018-08-28T18:29:53+02:00</time>
      </trkpt>
      <trkpt lat="43.16457" lon="3.03781">
        <ele>2</ele>
        <time>2018-08-28T18:29:58+02:00</time>
      </trkpt>
      <trkpt lat="43.16476" lon="3.03752">
        <ele>2</ele>
        <time>2018-08-28T18:30:03+02:00</time>
      </trkpt>
      <trkpt lat="43.16494" lon="3.03725">
        <ele>2</ele>
        <time>2018-08-28T18:30:09+02:00</time>
      </trkpt>
      <trkpt lat="43.16513" lon="3.03704">
        <ele>2</ele>
        <time>2018-08-28T18:30:14+02:00</time>
      </trkpt>
      <trkpt lat="43.16533" lon="3.03682">
        <ele>2</ele>
        <time>2018-08-28T18:30:20+02:00</time>
      </trkpt>
      <trkpt lat="43.16553" lon="3.03657">
        <ele>2</ele>
        <time>2018-08-28T18:30:26+02:00</time>
      </trkpt>
      <trkpt lat="43.16572" lon="3.03634">
        <ele>2</ele>
        <time>2018-08-28T18:30:32+02:00</time>
      </trkpt>
      <trkpt lat="43.16588" lon="3.03612">
        <ele>2</ele>
        <time>2018-08-28T18:30:38+02:00</time>
      </trkpt>
      <trkpt lat="43.16605" lon="3.03588">
        <ele>2</ele>
        <time>2018-08-28T18:30:43+02:00</time>
      </trkpt>
      <trkpt lat="43.16624" lon="3.03569">
        <ele>2</ele>
        <time>2018-08-28T18:30:48+02:00</time>
      </trkpt>
      <trkpt lat="43.16643" lon="3.03545">
        <ele>2</ele>
        <time>2018-08-28T18:30:53+02:00</time>
      </trkpt>
      <trkpt lat="43.16663" lon="3.0352">
        <ele>3</ele>
        <time>2018-08-28T18:30:58+02:00</time>
      </trkpt>
      <trkpt lat="43.16682" lon="3.03501">
        <ele>3</ele>
        <time>2018-08-28T18:31:03+02:00</time>
      </trkpt>
      <trkpt lat="43.16704" lon="3.03479">
        <ele>2</ele>
        <time>2018-08-28T18:31:09+02:00</time>
      </trkpt>
      <trkpt lat="43.16726" lon="3.03465">
        <ele>2</ele>
        <time>2018-08-28T18:31:15+02:00</time>
      </trkpt>
      <trkpt lat="43.16746" lon="3.03443">
        <ele>2</ele>
        <time>2018-08-28T18:31:21+02:00</time>
      </trkpt>
      <trkpt lat="43.16767" lon="3.03426">
        <ele>2</ele>
        <time>2018-08-28T18:31:26+02:00</time>
      </trkpt>
      <trkpt lat="43.16785" lon="3.03407">
        <ele>2</ele>
        <time>2018-08-28T18:31:31+02:00</time>
      </trkpt>
      <trkpt lat="43.16805" lon="3.03389">
        <ele>2</ele>
        <time>2018-08-28T18:31:36+02:00</time>
      </trkpt>
      <trkpt lat="43.16824" lon="3.03372">
        <ele>2</ele>
        <time>2018-08-28T18:31:41+02:00</time>
      </trkpt>
      <trkpt lat="43.16844" lon="3.03352">
        <ele>2</ele>
        <time>2018-08-28T18:31:46+02:00</time>
      </trkpt>
      <trkpt lat="43.16864" lon="3.03331">
        <ele>2</ele>
        <time>2018-08-28T18:31:51+02:00</time>
      </trkpt>
      <trkpt lat="43.16887" lon="3.03311">
        <ele>2</ele>
        <time>2018-08-28T18:31:57+02:00</time>
      </trkpt>
      <trkpt lat="43.16906" lon="3.03293">
        <ele>2</ele>
        <time>2018-08-28T18:32:02+02:00</time>
      </trkpt>
      <trkpt lat="43.16926" lon="3.03274">
        <ele>2</ele>
        <time>2018-08-28T18:32:07+02:00</time>
      </trkpt>
      <trkpt lat="43.16946" lon="3.03256">
        <ele>2</ele>
        <time>2018-08-28T18:32:12+02:00</time>
      </trkpt>
      <trkpt lat="43.16965" lon="3.0324">
        <ele>2</ele>
        <time>2018-08-28T18:32:17+02:00</time>
      </trkpt>
      <trkpt lat="43.16984" lon="3.03222">
        <ele>2</ele>
        <time>2018-08-28T18:32:22+02:00</time>
      </trkpt>
      <trkpt lat="43.17004" lon="3.03198">
        <ele>2</ele>
        <time>2018-08-28T18:32:28+02:00</time>
      </trkpt>
      <trkpt lat="43.17024" lon="3.03179">
        <ele>2</ele>
        <time>2018-08-28T18:32:33+02:00</time>
      </trkpt>
      <trkpt lat="43.17043" lon="3.03162">
        <ele>2</ele>
        <time>2018-08-28T18:32:38+02:00</time>
      </trkpt>
      <trkpt lat="43.17061" lon="3.03144">
        <ele>2</ele>
        <time>2018-08-28T18:32:43+02:00</time>
      </trkpt>
      <trkpt lat="43.17082" lon="3.03129">
        <ele>2</ele>
        <time>2018-08-28T18:32:48+02:00</time>
      </trkpt>
      <trkpt lat="43.17103" lon="3.03108">
        <ele>2</ele>
        <time>2018-08-28T18:32:54+02:00</time>
      </trkpt>
      <trkpt lat="43.17123" lon="3.03091">
        <ele>2</ele>
        <time>2018-08-28T18:32:59+02:00</time>
      </trkpt>
      <trkpt lat="43.17141" lon="3.03073">
        <ele>2</ele>
        <time>2018-08-28T18:33:04+02:00</time>
      </trkpt>
      <trkpt lat="43.17163" lon="3.03052">
        <ele>2</ele>
        <time>2018-08-28T18:33:10+02:00</time>
      </trkpt>
      <trkpt lat="43.17182" lon="3.03033">
        <ele>2</ele>
        <time>2018-08-28T18:33:15+02:00</time>
      </trkpt>
      <trkpt lat="43.172" lon="3.03014">
        <ele>3</ele>
        <time>2018-08-28T18:33:20+02:00</time>
      </trkpt>
      <trkpt lat="43.1722" lon="3.02995">
        <ele>3</ele>
        <time>2018-08-28T18:33:25+02:00</time>
      </trkpt>
      <trkpt lat="43.17239" lon="3.02978">
        <ele>3</ele>
        <time>2018-08-28T18:33:30+02:00</time>
      </trkpt>
      <trkpt lat="43.17261" lon="3.02956">
        <ele>3</ele>
        <time>2018-08-28T18:33:36+02:00</time>
      </trkpt>
      <trkpt lat="43.17282" lon="3.02935">
        <ele>3</ele>
        <time>2018-08-28T18:33:42+02:00</time>
      </trkpt>
      <trkpt lat="43.17305" lon="3.02917">
        <ele>3</ele>
        <time>2018-08-28T18:33:48+02:00</time>
      </trkpt>
      <trkpt lat="43.17324" lon="3.02899">
        <ele>3</ele>
        <time>2018-08-28T18:33:54+02:00</time>
      </trkpt>
      <trkpt lat="43.17346" lon="3.0288">
        <ele>3</ele>
        <time>2018-08-28T18:34:00+02:00</time>
      </trkpt>
      <trkpt lat="43.17366" lon="3.02866">
        <ele>3</ele>
        <time>2018-08-28T18:34:06+02:00</time>
      </trkpt>
      <trkpt lat="43.17387" lon="3.02849">
        <ele>3</ele>
        <time>2018-08-28T18:34:12+02:00</time>
      </trkpt>
      <trkpt lat="43.17412" lon="3.02824">
        <ele>3</ele>
        <time>2018-08-28T18:34:20+02:00</time>
      </trkpt>
      <trkpt lat="43.17426" lon="3.02793">
        <ele>3</ele>
        <time>2018-08-28T18:34:26+02:00</time>
      </trkpt>
      <trkpt lat="43.17442" lon="3.02762">
        <ele>4</ele>
        <time>2018-08-28T18:34:32+02:00</time>
      </trkpt>
      <trkpt lat="43.17459" lon="3.02733">
        <ele>4</ele>
        <time>2018-08-28T18:34:37+02:00</time>
      </trkpt>
      <trkpt lat="43.17475" lon="3.02712">
        <ele>4</ele>
        <time>2018-08-28T18:34:44+02:00</time>
      </trkpt>
      <trkpt lat="43.17491" lon="3.02683">
        <ele>4</ele>
        <time>2018-08-28T18:34:52+02:00</time>
      </trkpt>
      <trkpt lat="43.17501" lon="3.02653">
        <ele>4</ele>
        <time>2018-08-28T18:34:57+02:00</time>
      </trkpt>
      <trkpt lat="43.17511" lon="3.02621">
        <ele>4</ele>
        <time>2018-08-28T18:35:03+02:00</time>
      </trkpt>
      <trkpt lat="43.1752" lon="3.02588">
        <ele>4</ele>
        <time>2018-08-28T18:35:09+02:00</time>
      </trkpt>
      <trkpt lat="43.1753" lon="3.02559">
        <ele>4</ele>
        <time>2018-08-28T18:35:14+02:00</time>
      </trkpt>
      <trkpt lat="43.17543" lon="3.02526">
        <ele>4</ele>
        <time>2018-08-28T18:35:20+02:00</time>
      </trkpt>
      <trkpt lat="43.17555" lon="3.02493">
        <ele>4</ele>
        <time>2018-08-28T18:35:26+02:00</time>
      </trkpt>
      <trkpt lat="43.17566" lon="3.02461">
        <ele>4</ele>
        <time>2018-08-28T18:35:32+02:00</time>
      </trkpt>
      <trkpt lat="43.17579" lon="3.02428">
        <ele>4</ele>
        <time>2018-08-28T18:35:38+02:00</time>
      </trkpt>
      <trkpt lat="43.17592" lon="3.02397">
        <ele>4</ele>
        <time>2018-08-28T18:35:44+02:00</time>
      </trkpt>
      <trkpt lat="43.17602" lon="3.02368">
        <ele>4</ele>
        <time>2018-08-28T18:35:50+02:00</time>
      </trkpt>
      <trkpt lat="43.17614" lon="3.02337">
        <ele>4</ele>
        <time>2018-08-28T18:35:57+02:00</time>
      </trkpt>
      <trkpt lat="43.17626" lon="3.02308">
        <ele>4</ele>
        <time>2018-08-28T18:36:03+02:00</time>
      </trkpt>
      <trkpt lat="43.17634" lon="3.02279">
        <ele>4</ele>
        <time>2018-08-28T18:36:08+02:00</time>
      </trkpt>
      <trkpt lat="43.17646" lon="3.0225">
        <ele>4</ele>
        <time>2018-08-28T18:36:14+02:00</time>
      </trkpt>
      <trkpt lat="43.17657" lon="3.02222">
        <ele>4</ele>
        <time>2018-08-28T18:36:20+02:00</time>
      </trkpt>
      <trkpt lat="43.17667" lon="3.02192">
        <ele>4</ele>
        <time>2018-08-28T18:36:26+02:00</time>
      </trkpt>
      <trkpt lat="43.17676" lon="3.02162">
        <ele>4</ele>
        <time>2018-08-28T18:36:32+02:00</time>
      </trkpt>
      <trkpt lat="43.17687" lon="3.02132">
        <ele>4</ele>
        <time>2018-08-28T18:36:40+02:00</time>
      </trkpt>
      <trkpt lat="43.17696" lon="3.021">
        <ele>4</ele>
        <time>2018-08-28T18:36:46+02:00</time>
      </trkpt>
      <trkpt lat="43.17706" lon="3.0207">
        <ele>4</ele>
        <time>2018-08-28T18:36:52+02:00</time>
      </trkpt>
      <trkpt lat="43.17717" lon="3.0204">
        <ele>4</ele>
        <time>2018-08-28T18:36:58+02:00</time>
      </trkpt>
      <trkpt lat="43.17727" lon="3.0201">
        <ele>4</ele>
        <time>2018-08-28T18:37:05+02:00</time>
      </trkpt>
      <trkpt lat="43.17741" lon="3.01981">
        <ele>4</ele>
        <time>2018-08-28T18:37:13+02:00</time>
      </trkpt>
      <trkpt lat="43.17751" lon="3.01953">
        <ele>4</ele>
        <time>2018-08-28T18:37:19+02:00</time>
      </trkpt>
      <trkpt lat="43.17761" lon="3.01924">
        <ele>4</ele>
        <time>2018-08-28T18:37:26+02:00</time>
      </trkpt>
      <trkpt lat="43.17773" lon="3.01896">
        <ele>4</ele>
        <time>2018-08-28T18:37:32+02:00</time>
      </trkpt>
      <trkpt lat="43.17785" lon="3.01864">
        <ele>4</ele>
        <time>2018-08-28T18:37:37+02:00</time>
      </trkpt>
      <trkpt lat="43.17796" lon="3.01836">
        <ele>4</ele>
        <time>2018-08-28T18:37:42+02:00</time>
      </trkpt>
      <trkpt lat="43.17807" lon="3.01807">
        <ele>4</ele>
        <time>2018-08-28T18:37:47+02:00</time>
      </trkpt>
      <trkpt lat="43.17816" lon="3.01776">
        <ele>4</ele>
        <time>2018-08-28T18:37:52+02:00</time>
      </trkpt>
      <trkpt lat="43.17826" lon="3.01745">
        <ele>4</ele>
        <time>2018-08-28T18:37:57+02:00</time>
      </trkpt>
      <trkpt lat="43.17838" lon="3.01711">
        <ele>4</ele>
        <time>2018-08-28T18:38:02+02:00</time>
      </trkpt>
      <trkpt lat="43.17848" lon="3.01683">
        <ele>4</ele>
        <time>2018-08-28T18:38:07+02:00</time>
      </trkpt>
      <trkpt lat="43.17861" lon="3.01651">
        <ele>4</ele>
        <time>2018-08-28T18:38:12+02:00</time>
      </trkpt>
      <trkpt lat="43.17869" lon="3.0162">
        <ele>4</ele>
        <time>2018-08-28T18:38:17+02:00</time>
      </trkpt>
      <trkpt lat="43.17876" lon="3.01589">
        <ele>4</ele>
        <time>2018-08-28T18:38:22+02:00</time>
      </trkpt>
      <trkpt lat="43.17887" lon="3.01559">
        <ele>4</ele>
        <time>2018-08-28T18:38:27+02:00</time>
      </trkpt>
      <trkpt lat="43.17896" lon="3.01528">
        <ele>4</ele>
        <time>2018-08-28T18:38:32+02:00</time>
      </trkpt>
      <trkpt lat="43.1791" lon="3.01497">
        <ele>4</ele>
        <time>2018-08-28T18:38:37+02:00</time>
      </trkpt>
      <trkpt lat="43.17926" lon="3.01469">
        <ele>4</ele>
        <time>2018-08-28T18:38:42+02:00</time>
      </trkpt>
      <trkpt lat="43.17944" lon="3.01441">
        <ele>4</ele>
        <time>2018-08-28T18:38:47+02:00</time>
      </trkpt>
      <trkpt lat="43.17961" lon="3.0142">
        <ele>4</ele>
        <time>2018-08-28T18:38:53+02:00</time>
      </trkpt>
      <trkpt lat="43.1798" lon="3.01395">
        <ele>5</ele>
        <time>2018-08-28T18:38:59+02:00</time>
      </trkpt>
      <trkpt lat="43.17993" lon="3.01369">
        <ele>5</ele>
        <time>2018-08-28T18:39:04+02:00</time>
      </trkpt>
      <trkpt lat="43.18004" lon="3.01341">
        <ele>5</ele>
        <time>2018-08-28T18:39:09+02:00</time>
      </trkpt>
      <trkpt lat="43.18021" lon="3.01319">
        <ele>5</ele>
        <time>2018-08-28T18:39:14+02:00</time>
      </trkpt>
      <trkpt lat="43.18027" lon="3.01285">
        <ele>5</ele>
        <time>2018-08-28T18:39:20+02:00</time>
      </trkpt>
      <trkpt lat="43.1803" lon="3.01251">
        <ele>5</ele>
        <time>2018-08-28T18:39:26+02:00</time>
      </trkpt>
      <trkpt lat="43.18038" lon="3.01219">
        <ele>5</ele>
        <time>2018-08-28T18:39:32+02:00</time>
      </trkpt>
      <trkpt lat="43.18044" lon="3.01186">
        <ele>5</ele>
        <time>2018-08-28T18:39:38+02:00</time>
      </trkpt>
      <trkpt lat="43.18053" lon="3.01156">
        <ele>5</ele>
        <time>2018-08-28T18:39:45+02:00</time>
      </trkpt>
      <trkpt lat="43.18052" lon="3.01123">
        <ele>5</ele>
        <time>2018-08-28T18:39:51+02:00</time>
      </trkpt>
      <trkpt lat="43.18049" lon="3.01089">
        <ele>5</ele>
        <time>2018-08-28T18:39:58+02:00</time>
      </trkpt>
      <trkpt lat="43.18056" lon="3.01054">
        <ele>5</ele>
        <time>2018-08-28T18:40:05+02:00</time>
      </trkpt>
      <trkpt lat="43.18062" lon="3.01024">
        <ele>5</ele>
        <time>2018-08-28T18:40:11+02:00</time>
      </trkpt>
      <trkpt lat="43.18075" lon="3.00997">
        <ele>5</ele>
        <time>2018-08-28T18:40:19+02:00</time>
      </trkpt>
      <trkpt lat="43.18079" lon="3.00963">
        <ele>5</ele>
        <time>2018-08-28T18:40:25+02:00</time>
      </trkpt>
      <trkpt lat="43.18086" lon="3.0093">
        <ele>5</ele>
        <time>2018-08-28T18:40:32+02:00</time>
      </trkpt>
      <trkpt lat="43.18097" lon="3.00902">
        <ele>5</ele>
        <time>2018-08-28T18:40:38+02:00</time>
      </trkpt>
      <trkpt lat="43.18107" lon="3.00875">
        <ele>5</ele>
        <time>2018-08-28T18:40:44+02:00</time>
      </trkpt>
      <trkpt lat="43.18115" lon="3.00843">
        <ele>5</ele>
        <time>2018-08-28T18:40:50+02:00</time>
      </trkpt>
      <trkpt lat="43.18117" lon="3.0081">
        <ele>5</ele>
        <time>2018-08-28T18:40:57+02:00</time>
      </trkpt>
      <trkpt lat="43.18132" lon="3.00782">
        <ele>5</ele>
        <time>2018-08-28T18:41:05+02:00</time>
      </trkpt>
      <trkpt lat="43.18145" lon="3.00754">
        <ele>5</ele>
        <time>2018-08-28T18:41:14+02:00</time>
      </trkpt>
      <trkpt lat="43.18154" lon="3.00722">
        <ele>5</ele>
        <time>2018-08-28T18:41:21+02:00</time>
      </trkpt>
      <trkpt lat="43.18167" lon="3.00691">
        <ele>5</ele>
        <time>2018-08-28T18:41:26+02:00</time>
      </trkpt>
      <trkpt lat="43.18184" lon="3.00661">
        <ele>5</ele>
        <time>2018-08-28T18:41:32+02:00</time>
      </trkpt>
      <trkpt lat="43.18198" lon="3.0063">
        <ele>5</ele>
        <time>2018-08-28T18:41:38+02:00</time>
      </trkpt>
      <trkpt lat="43.18212" lon="3.006">
        <ele>5</ele>
        <time>2018-08-28T18:41:44+02:00</time>
      </trkpt>
      <trkpt lat="43.18226" lon="3.00575">
        <ele>5</ele>
        <time>2018-08-28T18:41:50+02:00</time>
      </trkpt>
      <trkpt lat="43.18239" lon="3.00549">
        <ele>5</ele>
        <time>2018-08-28T18:41:56+02:00</time>
      </trkpt>
      <trkpt lat="43.18255" lon="3.00521">
        <ele>5</ele>
        <time>2018-08-28T18:42:03+02:00</time>
      </trkpt>
      <trkpt lat="43.18269" lon="3.00495">
        <ele>5</ele>
        <time>2018-08-28T18:42:09+02:00</time>
      </trkpt>
      <trkpt lat="43.18285" lon="3.00468">
        <ele>5</ele>
        <time>2018-08-28T18:42:16+02:00</time>
      </trkpt>
      <trkpt lat="43.18298" lon="3.00441">
        <ele>5</ele>
        <time>2018-08-28T18:42:23+02:00</time>
      </trkpt>
      <trkpt lat="43.18322" lon="3.00451">
        <ele>6</ele>
        <time>2018-08-28T18:42:35+02:00</time>
      </trkpt>
      <trkpt lat="43.18344" lon="3.00439">
        <ele>7</ele>
        <time>2018-08-28T18:42:43+02:00</time>
      </trkpt>
      <trkpt lat="43.18359" lon="3.00412">
        <ele>7</ele>
        <time>2018-08-28T18:42:51+02:00</time>
      </trkpt>
      <trkpt lat="43.18373" lon="3.00386">
        <ele>7</ele>
        <time>2018-08-28T18:42:57+02:00</time>
      </trkpt>
      <trkpt lat="43.1839" lon="3.00365">
        <ele>8</ele>
        <time>2018-08-28T18:43:03+02:00</time>
      </trkpt>
      <trkpt lat="43.18403" lon="3.00334">
        <ele>8</ele>
        <time>2018-08-28T18:43:10+02:00</time>
      </trkpt>
      <trkpt lat="43.18412" lon="3.00304">
        <ele>8</ele>
        <time>2018-08-28T18:43:17+02:00</time>
      </trkpt>
      <trkpt lat="43.18425" lon="3.00275">
        <ele>8</ele>
        <time>2018-08-28T18:43:25+02:00</time>
      </trkpt>
      <trkpt lat="43.18437" lon="3.00243">
        <ele>8</ele>
        <time>2018-08-28T18:43:30+02:00</time>
      </trkpt>
      <trkpt lat="43.18451" lon="3.00206">
        <ele>8</ele>
        <time>2018-08-28T18:43:36+02:00</time>
      </trkpt>
      <trkpt lat="43.18463" lon="3.00176">
        <ele>8</ele>
        <time>2018-08-28T18:43:43+02:00</time>
      </trkpt>
      <trkpt lat="43.18471" lon="3.00145">
        <ele>7</ele>
        <time>2018-08-28T18:43:50+02:00</time>
      </trkpt>
      <trkpt lat="43.18486" lon="3.00116">
        <ele>8</ele>
        <time>2018-08-28T18:43:57+02:00</time>
      </trkpt>
      <trkpt lat="43.18498" lon="3.00086">
        <ele>8</ele>
        <time>2018-08-28T18:44:04+02:00</time>
      </trkpt>
      <trkpt lat="43.18509" lon="3.00053">
        <ele>8</ele>
        <time>2018-08-28T18:44:13+02:00</time>
      </trkpt>
      <trkpt lat="43.18494" lon="3.00026">
        <ele>7</ele>
        <time>2018-08-28T18:44:20+02:00</time>
      </trkpt>
      <trkpt lat="43.18481" lon="2.99999">
        <ele>7</ele>
        <time>2018-08-28T18:44:27+02:00</time>
      </trkpt>
      <trkpt lat="43.18492" lon="2.99971">
        <ele>7</ele>
        <time>2018-08-28T18:44:37+02:00</time>
      </trkpt>
      <trkpt lat="43.18512" lon="2.99988">
        <ele>7</ele>
        <time>2018-08-28T18:44:58+02:00</time>
      </trkpt>
      <trkpt lat="43.1851" lon="2.99955">
        <ele>7</ele>
        <time>2018-08-28T18:45:28+02:00</time>
      </trkpt>
      <trkpt lat="43.18532" lon="2.99931">
        <ele>7</ele>
        <time>2018-08-28T18:45:34+02:00</time>
      </trkpt>
      <trkpt lat="43.1855" lon="2.9991">
        <ele>7</ele>
        <time>2018-08-28T18:45:38+02:00</time>
      </trkpt>
      <trkpt lat="43.18568" lon="2.99886">
        <ele>7</ele>
        <time>2018-08-28T18:45:42+02:00</time>
      </trkpt>
      <trkpt lat="43.18588" lon="2.99858">
        <ele>7</ele>
        <time>2018-08-28T18:45:46+02:00</time>
      </trkpt>
      <trkpt lat="43.1861" lon="2.99838">
        <ele>7</ele>
        <time>2018-08-28T18:45:50+02:00</time>
      </trkpt>
      <trkpt lat="43.18631" lon="2.99813">
        <ele>7</ele>
        <time>2018-08-28T18:45:54+02:00</time>
      </trkpt>
      <trkpt lat="43.18654" lon="2.99792">
        <ele>7</ele>
        <time>2018-08-28T18:45:58+02:00</time>
      </trkpt>
      <trkpt lat="43.18674" lon="2.9977">
        <ele>7</ele>
        <time>2018-08-28T18:46:02+02:00</time>
      </trkpt>
      <trkpt lat="43.18696" lon="2.99746">
        <ele>7</ele>
        <time>2018-08-28T18:46:06+02:00</time>
      </trkpt>
      <trkpt lat="43.18713" lon="2.99725">
        <ele>7</ele>
        <time>2018-08-28T18:46:09+02:00</time>
      </trkpt>
      <trkpt lat="43.18732" lon="2.99704">
        <ele>7</ele>
        <time>2018-08-28T18:46:13+02:00</time>
      </trkpt>
      <trkpt lat="43.18754" lon="2.99685">
        <ele>7</ele>
        <time>2018-08-28T18:46:17+02:00</time>
      </trkpt>
      <trkpt lat="43.18775" lon="2.99671">
        <ele>7</ele>
        <time>2018-08-28T18:46:21+02:00</time>
      </trkpt>
      <trkpt lat="43.18798" lon="2.99659">
        <ele>7</ele>
        <time>2018-08-28T18:46:25+02:00</time>
      </trkpt>
      <trkpt lat="43.18821" lon="2.99654">
        <ele>7</ele>
        <time>2018-08-28T18:46:29+02:00</time>
      </trkpt>
      <trkpt lat="43.18845" lon="2.99649">
        <ele>7</ele>
        <time>2018-08-28T18:46:33+02:00</time>
      </trkpt>
      <trkpt lat="43.18868" lon="2.99653">
        <ele>7</ele>
        <time>2018-08-28T18:46:37+02:00</time>
      </trkpt>
      <trkpt lat="43.18895" lon="2.9966">
        <ele>7</ele>
        <time>2018-08-28T18:46:42+02:00</time>
      </trkpt>
      <trkpt lat="43.18915" lon="2.99673">
        <ele>7</ele>
        <time>2018-08-28T18:46:46+02:00</time>
      </trkpt>
      <trkpt lat="43.18937" lon="2.99693">
        <ele>7</ele>
        <time>2018-08-28T18:46:51+02:00</time>
      </trkpt>
      <trkpt lat="43.18958" lon="2.99715">
        <ele>7</ele>
        <time>2018-08-28T18:46:56+02:00</time>
      </trkpt>
      <trkpt lat="43.18969" lon="2.99742">
        <ele>7</ele>
        <time>2018-08-28T18:47:02+02:00</time>
      </trkpt>
      <trkpt lat="43.18985" lon="2.9977">
        <ele>7</ele>
        <time>2018-08-28T18:47:07+02:00</time>
      </trkpt>
      <trkpt lat="43.18996" lon="2.99798">
        <ele>7</ele>
        <time>2018-08-28T18:47:13+02:00</time>
      </trkpt>
      <trkpt lat="43.1901" lon="2.99828">
        <ele>7</ele>
        <time>2018-08-28T18:47:18+02:00</time>
      </trkpt>
      <trkpt lat="43.19025" lon="2.99856">
        <ele>7</ele>
        <time>2018-08-28T18:47:23+02:00</time>
      </trkpt>
      <trkpt lat="43.19041" lon="2.99884">
        <ele>7</ele>
        <time>2018-08-28T18:47:28+02:00</time>
      </trkpt>
      <trkpt lat="43.19065" lon="2.999">
        <ele>7</ele>
        <time>2018-08-28T18:47:34+02:00</time>
      </trkpt>
      <trkpt lat="43.19089" lon="2.99904">
        <ele>7</ele>
        <time>2018-08-28T18:47:40+02:00</time>
      </trkpt>
      <trkpt lat="43.19111" lon="2.99889">
        <ele>7</ele>
        <time>2018-08-28T18:47:45+02:00</time>
      </trkpt>
      <trkpt lat="43.19126" lon="2.99862">
        <ele>7</ele>
        <time>2018-08-28T18:47:51+02:00</time>
      </trkpt>
      <trkpt lat="43.19151" lon="2.99861">
        <ele>7</ele>
        <time>2018-08-28T18:47:58+02:00</time>
      </trkpt>
      <trkpt lat="43.19166" lon="2.9989">
        <ele>7</ele>
        <time>2018-08-28T18:48:06+02:00</time>
      </trkpt>
      <trkpt lat="43.19175" lon="2.99924">
        <ele>7</ele>
        <time>2018-08-28T18:48:12+02:00</time>
      </trkpt>
      <trkpt lat="43.19165" lon="2.99954">
        <ele>7</ele>
        <time>2018-08-28T18:48:18+02:00</time>
      </trkpt>
      <trkpt lat="43.19161" lon="2.99991">
        <ele>7</ele>
        <time>2018-08-28T18:48:25+02:00</time>
      </trkpt>
      <trkpt lat="43.19182" lon="3.00012">
        <ele>7</ele>
        <time>2018-08-28T18:48:31+02:00</time>
      </trkpt>
      <trkpt lat="43.19194" lon="3.00042">
        <ele>7</ele>
        <time>2018-08-28T18:48:37+02:00</time>
      </trkpt>
      <trkpt lat="43.19188" lon="3.00073">
        <ele>7</ele>
        <time>2018-08-28T18:48:45+02:00</time>
      </trkpt>
      <trkpt lat="43.19177" lon="3.00105">
        <ele>7</ele>
        <time>2018-08-28T18:48:52+02:00</time>
      </trkpt>
      <trkpt lat="43.19179" lon="3.0014">
        <ele>7</ele>
        <time>2018-08-28T18:48:58+02:00</time>
      </trkpt>
      <trkpt lat="43.19184" lon="3.00171">
        <ele>7</ele>
        <time>2018-08-28T18:49:04+02:00</time>
      </trkpt>
      <trkpt lat="43.19195" lon="3.00202">
        <ele>7</ele>
        <time>2018-08-28T18:49:11+02:00</time>
      </trkpt>
      <trkpt lat="43.19208" lon="3.00233">
        <ele>7</ele>
        <time>2018-08-28T18:49:18+02:00</time>
      </trkpt>
      <trkpt lat="43.19213" lon="3.00264">
        <ele>7</ele>
        <time>2018-08-28T18:51:19+02:00</time>
      </trkpt>
      <trkpt lat="43.19224" lon="3.00294">
        <ele>7</ele>
        <time>2018-08-28T18:51:28+02:00</time>
      </trkpt>
      <trkpt lat="43.19236" lon="3.00322">
        <ele>7</ele>
        <time>2018-08-28T18:51:36+02:00</time>
      </trkpt>
      <trkpt lat="43.19249" lon="3.00351">
        <ele>7</ele>
        <time>2018-08-28T18:51:45+02:00</time>
      </trkpt>
      <trkpt lat="43.19265" lon="3.00375">
        <ele>7</ele>
        <time>2018-08-28T18:51:54+02:00</time>
      </trkpt>
      <trkpt lat="43.19278" lon="3.00401">
        <ele>7</ele>
        <time>2018-08-28T18:52:04+02:00</time>
      </trkpt>
      <trkpt lat="43.19294" lon="3.00424">
        <ele>7</ele>
        <time>2018-08-28T18:52:15+02:00</time>
      </trkpt>
      <trkpt lat="43.1931" lon="3.00448">
        <ele>7</ele>
        <time>2018-08-28T18:52:24+02:00</time>
      </trkpt>
      <trkpt lat="43.19328" lon="3.00467">
        <ele>7</ele>
        <time>2018-08-28T18:52:35+02:00</time>
      </trkpt>
      <trkpt lat="43.19347" lon="3.00487">
        <ele>7</ele>
        <time>2018-08-28T18:53:01+02:00</time>
      </trkpt>
      <trkpt lat="43.19366" lon="3.00505">
        <ele>7</ele>
        <time>2018-08-28T18:53:10+02:00</time>
      </trkpt>
      <trkpt lat="43.19388" lon="3.00522">
        <ele>7</ele>
        <time>2018-08-28T18:53:23+02:00</time>
      </trkpt>
      <trkpt lat="43.19368" lon="3.00502">
        <ele>7</ele>
        <time>2018-08-28T18:53:48+02:00</time>
      </trkpt>
      <trkpt lat="43.19348" lon="3.00478">
        <ele>7</ele>
        <time>2018-08-28T18:53:57+02:00</time>
      </trkpt>
      <trkpt lat="43.19329" lon="3.00457">
        <ele>7</ele>
        <time>2018-08-28T18:54:04+02:00</time>
      </trkpt>
      <trkpt lat="43.19312" lon="3.00432">
        <ele>7</ele>
        <time>2018-08-28T18:54:11+02:00</time>
      </trkpt>
      <trkpt lat="43.19293" lon="3.00409">
        <ele>7</ele>
        <time>2018-08-28T18:54:19+02:00</time>
      </trkpt>
      <trkpt lat="43.19278" lon="3.00382">
        <ele>7</ele>
        <time>2018-08-28T18:54:25+02:00</time>
      </trkpt>
      <trkpt lat="43.19261" lon="3.0036">
        <ele>7</ele>
        <time>2018-08-28T18:54:30+02:00</time>
      </trkpt>
      <trkpt lat="43.19245" lon="3.00336">
        <ele>7</ele>
        <time>2018-08-28T18:54:36+02:00</time>
      </trkpt>
      <trkpt lat="43.19232" lon="3.00308">
        <ele>7</ele>
        <time>2018-08-28T18:54:43+02:00</time>
      </trkpt>
      <trkpt lat="43.19224" lon="3.00276">
        <ele>7</ele>
        <time>2018-08-28T18:54:50+02:00</time>
      </trkpt>
      <trkpt lat="43.1922" lon="3.00243">
        <ele>7</ele>
        <time>2018-08-28T18:54:56+02:00</time>
      </trkpt>
      <trkpt lat="43.19206" lon="3.00213">
        <ele>7</ele>
        <time>2018-08-28T18:55:02+02:00</time>
      </trkpt>
      <trkpt lat="43.19194" lon="3.00186">
        <ele>7</ele>
        <time>2018-08-28T18:55:08+02:00</time>
      </trkpt>
      <trkpt lat="43.19186" lon="3.00151">
        <ele>7</ele>
        <time>2018-08-28T18:55:14+02:00</time>
      </trkpt>
      <trkpt lat="43.19183" lon="3.00115">
        <ele>7</ele>
        <time>2018-08-28T18:55:20+02:00</time>
      </trkpt>
      <trkpt lat="43.19193" lon="3.00085">
        <ele>7</ele>
        <time>2018-08-28T18:55:26+02:00</time>
      </trkpt>
      <trkpt lat="43.19205" lon="3.00051">
        <ele>7</ele>
        <time>2018-08-28T18:55:33+02:00</time>
      </trkpt>
      <trkpt lat="43.19194" lon="3.0002">
        <ele>7</ele>
        <time>2018-08-28T18:55:39+02:00</time>
      </trkpt>
      <trkpt lat="43.19174" lon="3">
        <ele>7</ele>
        <time>2018-08-28T18:55:45+02:00</time>
      </trkpt>
      <trkpt lat="43.19173" lon="2.99966">
        <ele>7</ele>
        <time>2018-08-28T18:55:52+02:00</time>
      </trkpt>
      <trkpt lat="43.19183" lon="2.99933">
        <ele>7</ele>
        <time>2018-08-28T18:55:58+02:00</time>
      </trkpt>
      <trkpt lat="43.19178" lon="2.99899">
        <ele>7</ele>
        <time>2018-08-28T18:56:04+02:00</time>
      </trkpt>
      <trkpt lat="43.19164" lon="2.99871">
        <ele>7</ele>
        <time>2018-08-28T18:56:10+02:00</time>
      </trkpt>
      <trkpt lat="43.1915" lon="2.99846">
        <ele>7</ele>
        <time>2018-08-28T18:56:16+02:00</time>
      </trkpt>
      <trkpt lat="43.19126" lon="2.99858">
        <ele>7</ele>
        <time>2018-08-28T18:56:23+02:00</time>
      </trkpt>
      <trkpt lat="43.19109" lon="2.99883">
        <ele>7</ele>
        <time>2018-08-28T18:56:29+02:00</time>
      </trkpt>
      <trkpt lat="43.19086" lon="2.99896">
        <ele>7</ele>
        <time>2018-08-28T18:56:35+02:00</time>
      </trkpt>
      <trkpt lat="43.19063" lon="2.99891">
        <ele>7</ele>
        <time>2018-08-28T18:56:41+02:00</time>
      </trkpt>
      <trkpt lat="43.19048" lon="2.99864">
        <ele>7</ele>
        <time>2018-08-28T18:56:48+02:00</time>
      </trkpt>
      <trkpt lat="43.19031" lon="2.9984">
        <ele>7</ele>
        <time>2018-08-28T18:56:54+02:00</time>
      </trkpt>
      <trkpt lat="43.19017" lon="2.99812">
        <ele>7</ele>
        <time>2018-08-28T18:57:00+02:00</time>
      </trkpt>
      <trkpt lat="43.19003" lon="2.99783">
        <ele>7</ele>
        <time>2018-08-28T18:57:06+02:00</time>
      </trkpt>
      <trkpt lat="43.1899" lon="2.99754">
        <ele>7</ele>
        <time>2018-08-28T18:57:12+02:00</time>
      </trkpt>
      <trkpt lat="43.18977" lon="2.99727">
        <ele>7</ele>
        <time>2018-08-28T18:57:18+02:00</time>
      </trkpt>
      <trkpt lat="43.18959" lon="2.99701">
        <ele>7</ele>
        <time>2018-08-28T18:57:24+02:00</time>
      </trkpt>
      <trkpt lat="43.18939" lon="2.99681">
        <ele>7</ele>
        <time>2018-08-28T18:57:30+02:00</time>
      </trkpt>
      <trkpt lat="43.18916" lon="2.99662">
        <ele>7</ele>
        <time>2018-08-28T18:57:37+02:00</time>
      </trkpt>
      <trkpt lat="43.18895" lon="2.99648">
        <ele>7</ele>
        <time>2018-08-28T18:57:43+02:00</time>
      </trkpt>
      <trkpt lat="43.18871" lon="2.9964">
        <ele>7</ele>
        <time>2018-08-28T18:57:49+02:00</time>
      </trkpt>
      <trkpt lat="43.18849" lon="2.99635">
        <ele>7</ele>
        <time>2018-08-28T18:57:58+02:00</time>
      </trkpt>
      <trkpt lat="43.18826" lon="2.9964">
        <ele>7</ele>
        <time>2018-08-28T18:58:05+02:00</time>
      </trkpt>
      <trkpt lat="43.18804" lon="2.99644">
        <ele>7</ele>
        <time>2018-08-28T18:58:11+02:00</time>
      </trkpt>
      <trkpt lat="43.1878" lon="2.99656">
        <ele>7</ele>
        <time>2018-08-28T18:58:18+02:00</time>
      </trkpt>
      <trkpt lat="43.18758" lon="2.99672">
        <ele>7</ele>
        <time>2018-08-28T18:58:24+02:00</time>
      </trkpt>
      <trkpt lat="43.18738" lon="2.9969">
        <ele>7</ele>
        <time>2018-08-28T18:58:30+02:00</time>
      </trkpt>
      <trkpt lat="43.18717" lon="2.9971">
        <ele>7</ele>
        <time>2018-08-28T18:58:37+02:00</time>
      </trkpt>
      <trkpt lat="43.18699" lon="2.99731">
        <ele>7</ele>
        <time>2018-08-28T18:58:44+02:00</time>
      </trkpt>
      <trkpt lat="43.1868" lon="2.99748">
        <ele>7</ele>
        <time>2018-08-28T18:58:50+02:00</time>
      </trkpt>
      <trkpt lat="43.18662" lon="2.99768">
        <ele>7</ele>
        <time>2018-08-28T18:58:57+02:00</time>
      </trkpt>
      <trkpt lat="43.18645" lon="2.9979">
        <ele>7</ele>
        <time>2018-08-28T18:59:04+02:00</time>
      </trkpt>
      <trkpt lat="43.18625" lon="2.99808">
        <ele>7</ele>
        <time>2018-08-28T18:59:10+02:00</time>
      </trkpt>
      <trkpt lat="43.18607" lon="2.99828">
        <ele>7</ele>
        <time>2018-08-28T18:59:17+02:00</time>
      </trkpt>
      <trkpt lat="43.18589" lon="2.99848">
        <ele>7</ele>
        <time>2018-08-28T18:59:23+02:00</time>
      </trkpt>
      <trkpt lat="43.18569" lon="2.99867">
        <ele>7</ele>
        <time>2018-08-28T18:59:40+02:00</time>
      </trkpt>
      <trkpt lat="43.18555" lon="2.99895">
        <ele>7</ele>
        <time>2018-08-28T18:59:47+02:00</time>
      </trkpt>
      <trkpt lat="43.18536" lon="2.99912">
        <ele>7</ele>
        <time>2018-08-28T18:59:54+02:00</time>
      </trkpt>
      <trkpt lat="43.18515" lon="2.99927">
        <ele>7</ele>
        <time>2018-08-28T19:00:03+02:00</time>
      </trkpt>
      <trkpt lat="43.18496" lon="2.99948">
        <ele>7</ele>
        <time>2018-08-28T19:00:14+02:00</time>
      </trkpt>
      <trkpt lat="43.18477" lon="2.99969">
        <ele>7</ele>
        <time>2018-08-28T19:00:22+02:00</time>
      </trkpt>
      <trkpt lat="43.18472" lon="3.00001">
        <ele>7</ele>
        <time>2018-08-28T19:00:30+02:00</time>
      </trkpt>
      <trkpt lat="43.18486" lon="3.0003">
        <ele>6</ele>
        <time>2018-08-28T19:00:37+02:00</time>
      </trkpt>
      <trkpt lat="43.18492" lon="3.00062">
        <ele>7</ele>
        <time>2018-08-28T19:00:45+02:00</time>
      </trkpt>
      <trkpt lat="43.1848" lon="3.0009">
        <ele>6</ele>
        <time>2018-08-28T19:00:53+02:00</time>
      </trkpt>
      <trkpt lat="43.18474" lon="3.00121">
        <ele>6</ele>
        <time>2018-08-28T19:01:00+02:00</time>
      </trkpt>
      <trkpt lat="43.18462" lon="3.00151">
        <ele>7</ele>
        <time>2018-08-28T19:01:08+02:00</time>
      </trkpt>
      <trkpt lat="43.18452" lon="3.0018">
        <ele>7</ele>
        <time>2018-08-28T19:01:15+02:00</time>
      </trkpt>
      <trkpt lat="43.18441" lon="3.00211">
        <ele>7</ele>
        <time>2018-08-28T19:02:39+02:00</time>
      </trkpt>
      <trkpt lat="43.18429" lon="3.00241">
        <ele>7</ele>
        <time>2018-08-28T19:02:46+02:00</time>
      </trkpt>
      <trkpt lat="43.18417" lon="3.00269">
        <ele>7</ele>
        <time>2018-08-28T19:02:51+02:00</time>
      </trkpt>
      <trkpt lat="43.18404" lon="3.00299">
        <ele>7</ele>
        <time>2018-08-28T19:02:56+02:00</time>
      </trkpt>
      <trkpt lat="43.18395" lon="3.00332">
        <ele>7</ele>
        <time>2018-08-28T19:03:02+02:00</time>
      </trkpt>
      <trkpt lat="43.18385" lon="3.00362">
        <ele>8</ele>
        <time>2018-08-28T19:03:09+02:00</time>
      </trkpt>
      <trkpt lat="43.18375" lon="3.00394">
        <ele>8</ele>
        <time>2018-08-28T19:03:17+02:00</time>
      </trkpt>
      <trkpt lat="43.18351" lon="3.00414">
        <ele>6</ele>
        <time>2018-08-28T19:03:26+02:00</time>
      </trkpt>
      <trkpt lat="43.18335" lon="3.00439">
        <ele>6</ele>
        <time>2018-08-28T19:03:32+02:00</time>
      </trkpt>
      <trkpt lat="43.18314" lon="3.00459">
        <ele>5</ele>
        <time>2018-08-28T19:03:39+02:00</time>
      </trkpt>
      <trkpt lat="43.18297" lon="3.00481">
        <ele>5</ele>
        <time>2018-08-28T19:03:45+02:00</time>
      </trkpt>
      <trkpt lat="43.18275" lon="3.00502">
        <ele>5</ele>
        <time>2018-08-28T19:03:51+02:00</time>
      </trkpt>
      <trkpt lat="43.18265" lon="3.00531">
        <ele>5</ele>
        <time>2018-08-28T19:03:57+02:00</time>
      </trkpt>
      <trkpt lat="43.1825" lon="3.00561">
        <ele>5</ele>
        <time>2018-08-28T19:04:04+02:00</time>
      </trkpt>
      <trkpt lat="43.18232" lon="3.00581">
        <ele>5</ele>
        <time>2018-08-28T19:04:11+02:00</time>
      </trkpt>
      <trkpt lat="43.18215" lon="3.00605">
        <ele>5</ele>
        <time>2018-08-28T19:04:17+02:00</time>
      </trkpt>
      <trkpt lat="43.182" lon="3.00632">
        <ele>5</ele>
        <time>2018-08-28T19:04:23+02:00</time>
      </trkpt>
      <trkpt lat="43.18187" lon="3.00659">
        <ele>5</ele>
        <time>2018-08-28T19:04:30+02:00</time>
      </trkpt>
      <trkpt lat="43.18187" lon="3.00691">
        <ele>5</ele>
        <time>2018-08-28T19:04:52+02:00</time>
      </trkpt>
      <trkpt lat="43.18178" lon="3.00723">
        <ele>5</ele>
        <time>2018-08-28T19:04:59+02:00</time>
      </trkpt>
      <trkpt lat="43.18164" lon="3.00753">
        <ele>5</ele>
        <time>2018-08-28T19:05:06+02:00</time>
      </trkpt>
      <trkpt lat="43.18151" lon="3.00779">
        <ele>5</ele>
        <time>2018-08-28T19:05:12+02:00</time>
      </trkpt>
      <trkpt lat="43.18137" lon="3.00809">
        <ele>5</ele>
        <time>2018-08-28T19:05:18+02:00</time>
      </trkpt>
      <trkpt lat="43.18125" lon="3.00841">
        <ele>5</ele>
        <time>2018-08-28T19:05:24+02:00</time>
      </trkpt>
      <trkpt lat="43.1811" lon="3.00868">
        <ele>5</ele>
        <time>2018-08-28T19:05:31+02:00</time>
      </trkpt>
      <trkpt lat="43.18097" lon="3.00898">
        <ele>5</ele>
        <time>2018-08-28T19:05:38+02:00</time>
      </trkpt>
      <trkpt lat="43.18084" lon="3.00928">
        <ele>5</ele>
        <time>2018-08-28T19:05:44+02:00</time>
      </trkpt>
      <trkpt lat="43.18075" lon="3.00956">
        <ele>5</ele>
        <time>2018-08-28T19:05:50+02:00</time>
      </trkpt>
      <trkpt lat="43.18074" lon="3.00988">
        <ele>5</ele>
        <time>2018-08-28T19:05:56+02:00</time>
      </trkpt>
      <trkpt lat="43.18065" lon="3.01017">
        <ele>5</ele>
        <time>2018-08-28T19:06:02+02:00</time>
      </trkpt>
      <trkpt lat="43.18058" lon="3.01047">
        <ele>5</ele>
        <time>2018-08-28T19:06:08+02:00</time>
      </trkpt>
      <trkpt lat="43.18051" lon="3.01081">
        <ele>5</ele>
        <time>2018-08-28T19:06:14+02:00</time>
      </trkpt>
      <trkpt lat="43.18046" lon="3.01115">
        <ele>5</ele>
        <time>2018-08-28T19:06:21+02:00</time>
      </trkpt>
      <trkpt lat="43.18049" lon="3.01146">
        <ele>5</ele>
        <time>2018-08-28T19:06:27+02:00</time>
      </trkpt>
      <trkpt lat="43.18045" lon="3.01178">
        <ele>5</ele>
        <time>2018-08-28T19:06:34+02:00</time>
      </trkpt>
      <trkpt lat="43.18038" lon="3.01212">
        <ele>5</ele>
        <time>2018-08-28T19:06:41+02:00</time>
      </trkpt>
      <trkpt lat="43.18031" lon="3.01245">
        <ele>5</ele>
        <time>2018-08-28T19:06:48+02:00</time>
      </trkpt>
      <trkpt lat="43.18026" lon="3.01277">
        <ele>5</ele>
        <time>2018-08-28T19:06:55+02:00</time>
      </trkpt>
      <trkpt lat="43.18019" lon="3.0131">
        <ele>5</ele>
        <time>2018-08-28T19:07:03+02:00</time>
      </trkpt>
      <trkpt lat="43.18004" lon="3.01335">
        <ele>5</ele>
        <time>2018-08-28T19:07:11+02:00</time>
      </trkpt>
      <trkpt lat="43.17991" lon="3.01367">
        <ele>5</ele>
        <time>2018-08-28T19:07:18+02:00</time>
      </trkpt>
      <trkpt lat="43.17978" lon="3.01393">
        <ele>5</ele>
        <time>2018-08-28T19:07:24+02:00</time>
      </trkpt>
      <trkpt lat="43.17961" lon="3.01416">
        <ele>4</ele>
        <time>2018-08-28T19:07:30+02:00</time>
      </trkpt>
      <trkpt lat="43.17943" lon="3.01437">
        <ele>4</ele>
        <time>2018-08-28T19:07:36+02:00</time>
      </trkpt>
      <trkpt lat="43.17926" lon="3.01459">
        <ele>4</ele>
        <time>2018-08-28T19:07:41+02:00</time>
      </trkpt>
      <trkpt lat="43.1791" lon="3.01487">
        <ele>4</ele>
        <time>2018-08-28T19:07:47+02:00</time>
      </trkpt>
      <trkpt lat="43.17898" lon="3.01513">
        <ele>4</ele>
        <time>2018-08-28T19:07:53+02:00</time>
      </trkpt>
      <trkpt lat="43.17889" lon="3.01545">
        <ele>4</ele>
        <time>2018-08-28T19:08:00+02:00</time>
      </trkpt>
      <trkpt lat="43.17878" lon="3.01576">
        <ele>4</ele>
        <time>2018-08-28T19:08:07+02:00</time>
      </trkpt>
      <trkpt lat="43.17869" lon="3.01608">
        <ele>4</ele>
        <time>2018-08-28T19:08:14+02:00</time>
      </trkpt>
      <trkpt lat="43.17862" lon="3.01641">
        <ele>4</ele>
        <time>2018-08-28T19:08:21+02:00</time>
      </trkpt>
      <trkpt lat="43.1785" lon="3.01672">
        <ele>4</ele>
        <time>2018-08-28T19:08:28+02:00</time>
      </trkpt>
      <trkpt lat="43.1784" lon="3.017">
        <ele>4</ele>
        <time>2018-08-28T19:08:34+02:00</time>
      </trkpt>
      <trkpt lat="43.17829" lon="3.01729">
        <ele>4</ele>
        <time>2018-08-28T19:08:41+02:00</time>
      </trkpt>
      <trkpt lat="43.17817" lon="3.01758">
        <ele>4</ele>
        <time>2018-08-28T19:08:48+02:00</time>
      </trkpt>
      <trkpt lat="43.17807" lon="3.01788">
        <ele>4</ele>
        <time>2018-08-28T19:08:57+02:00</time>
      </trkpt>
      <trkpt lat="43.17797" lon="3.01816">
        <ele>4</ele>
        <time>2018-08-28T19:09:04+02:00</time>
      </trkpt>
      <trkpt lat="43.17785" lon="3.01844">
        <ele>4</ele>
        <time>2018-08-28T19:09:12+02:00</time>
      </trkpt>
      <trkpt lat="43.17778" lon="3.01876">
        <ele>4</ele>
        <time>2018-08-28T19:09:19+02:00</time>
      </trkpt>
      <trkpt lat="43.17765" lon="3.01904">
        <ele>4</ele>
        <time>2018-08-28T19:09:25+02:00</time>
      </trkpt>
      <trkpt lat="43.17753" lon="3.01932">
        <ele>4</ele>
        <time>2018-08-28T19:09:33+02:00</time>
      </trkpt>
      <trkpt lat="43.17743" lon="3.01959">
        <ele>4</ele>
        <time>2018-08-28T19:09:39+02:00</time>
      </trkpt>
      <trkpt lat="43.17732" lon="3.01988">
        <ele>4</ele>
        <time>2018-08-28T19:09:45+02:00</time>
      </trkpt>
      <trkpt lat="43.17718" lon="3.02018">
        <ele>4</ele>
        <time>2018-08-28T19:09:52+02:00</time>
      </trkpt>
      <trkpt lat="43.17707" lon="3.02047">
        <ele>4</ele>
        <time>2018-08-28T19:09:58+02:00</time>
      </trkpt>
      <trkpt lat="43.17698" lon="3.02076">
        <ele>4</ele>
        <time>2018-08-28T19:10:06+02:00</time>
      </trkpt>
      <trkpt lat="43.17687" lon="3.02103">
        <ele>4</ele>
        <time>2018-08-28T19:10:14+02:00</time>
      </trkpt>
      <trkpt lat="43.17678" lon="3.02131">
        <ele>4</ele>
        <time>2018-08-28T19:10:28+02:00</time>
      </trkpt>
      <trkpt lat="43.17664" lon="3.02159">
        <ele>4</ele>
        <time>2018-08-28T19:11:50+02:00</time>
      </trkpt>
      <trkpt lat="43.17652" lon="3.02187">
        <ele>4</ele>
        <time>2018-08-28T19:11:57+02:00</time>
      </trkpt>
      <trkpt lat="43.17641" lon="3.02216">
        <ele>4</ele>
        <time>2018-08-28T19:12:04+02:00</time>
      </trkpt>
      <trkpt lat="43.17633" lon="3.02246">
        <ele>4</ele>
        <time>2018-08-28T19:12:08+02:00</time>
      </trkpt>
      <trkpt lat="43.17623" lon="3.02275">
        <ele>4</ele>
        <time>2018-08-28T19:12:13+02:00</time>
      </trkpt>
      <trkpt lat="43.17613" lon="3.02309">
        <ele>4</ele>
        <time>2018-08-28T19:12:20+02:00</time>
      </trkpt>
      <trkpt lat="43.176" lon="3.02341">
        <ele>4</ele>
        <time>2018-08-28T19:12:27+02:00</time>
      </trkpt>
      <trkpt lat="43.1759" lon="3.02372">
        <ele>4</ele>
        <time>2018-08-28T19:12:33+02:00</time>
      </trkpt>
      <trkpt lat="43.17577" lon="3.02401">
        <ele>4</ele>
        <time>2018-08-28T19:12:39+02:00</time>
      </trkpt>
      <trkpt lat="43.17565" lon="3.02427">
        <ele>4</ele>
        <time>2018-08-28T19:12:45+02:00</time>
      </trkpt>
      <trkpt lat="43.17558" lon="3.02459">
        <ele>4</ele>
        <time>2018-08-28T19:12:50+02:00</time>
      </trkpt>
      <trkpt lat="43.17547" lon="3.02488">
        <ele>4</ele>
        <time>2018-08-28T19:12:55+02:00</time>
      </trkpt>
      <trkpt lat="43.17537" lon="3.02518">
        <ele>4</ele>
        <time>2018-08-28T19:13:02+02:00</time>
      </trkpt>
      <trkpt lat="43.17525" lon="3.02549">
        <ele>4</ele>
        <time>2018-08-28T19:13:08+02:00</time>
      </trkpt>
      <trkpt lat="43.17513" lon="3.02575">
        <ele>4</ele>
        <time>2018-08-28T19:13:14+02:00</time>
      </trkpt>
      <trkpt lat="43.175" lon="3.02602">
        <ele>4</ele>
        <time>2018-08-28T19:13:20+02:00</time>
      </trkpt>
      <trkpt lat="43.17488" lon="3.02631">
        <ele>4</ele>
        <time>2018-08-28T19:13:27+02:00</time>
      </trkpt>
      <trkpt lat="43.17479" lon="3.02661">
        <ele>4</ele>
        <time>2018-08-28T19:13:33+02:00</time>
      </trkpt>
      <trkpt lat="43.17467" lon="3.02688">
        <ele>4</ele>
        <time>2018-08-28T19:13:40+02:00</time>
      </trkpt>
      <trkpt lat="43.17457" lon="3.02718">
        <ele>4</ele>
        <time>2018-08-28T19:13:46+02:00</time>
      </trkpt>
      <trkpt lat="43.17444" lon="3.02744">
        <ele>4</ele>
        <time>2018-08-28T19:13:51+02:00</time>
      </trkpt>
      <trkpt lat="43.17429" lon="3.0277">
        <ele>3</ele>
        <time>2018-08-28T19:13:55+02:00</time>
      </trkpt>
      <trkpt lat="43.17417" lon="3.02797">
        <ele>3</ele>
        <time>2018-08-28T19:14:00+02:00</time>
      </trkpt>
      <trkpt lat="43.17401" lon="3.02822">
        <ele>3</ele>
        <time>2018-08-28T19:14:06+02:00</time>
      </trkpt>
      <trkpt lat="43.1738" lon="3.02841">
        <ele>3</ele>
        <time>2018-08-28T19:14:13+02:00</time>
      </trkpt>
      <trkpt lat="43.17358" lon="3.02862">
        <ele>3</ele>
        <time>2018-08-28T19:14:21+02:00</time>
      </trkpt>
      <trkpt lat="43.17338" lon="3.02884">
        <ele>3</ele>
        <time>2018-08-28T19:14:27+02:00</time>
      </trkpt>
      <trkpt lat="43.17316" lon="3.02903">
        <ele>3</ele>
        <time>2018-08-28T19:14:33+02:00</time>
      </trkpt>
      <trkpt lat="43.17297" lon="3.02921">
        <ele>3</ele>
        <time>2018-08-28T19:14:39+02:00</time>
      </trkpt>
      <trkpt lat="43.17278" lon="3.02939">
        <ele>3</ele>
        <time>2018-08-28T19:14:45+02:00</time>
      </trkpt>
      <trkpt lat="43.17259" lon="3.02956">
        <ele>3</ele>
        <time>2018-08-28T19:14:51+02:00</time>
      </trkpt>
      <trkpt lat="43.17239" lon="3.02974">
        <ele>3</ele>
        <time>2018-08-28T19:14:57+02:00</time>
      </trkpt>
      <trkpt lat="43.17221" lon="3.02992">
        <ele>3</ele>
        <time>2018-08-28T19:15:03+02:00</time>
      </trkpt>
      <trkpt lat="43.172" lon="3.03009">
        <ele>3</ele>
        <time>2018-08-28T19:15:09+02:00</time>
      </trkpt>
      <trkpt lat="43.17179" lon="3.03026">
        <ele>2</ele>
        <time>2018-08-28T19:15:15+02:00</time>
      </trkpt>
      <trkpt lat="43.1716" lon="3.03046">
        <ele>2</ele>
        <time>2018-08-28T19:15:21+02:00</time>
      </trkpt>
      <trkpt lat="43.17141" lon="3.03065">
        <ele>2</ele>
        <time>2018-08-28T19:15:27+02:00</time>
      </trkpt>
      <trkpt lat="43.1712" lon="3.03086">
        <ele>2</ele>
        <time>2018-08-28T19:15:33+02:00</time>
      </trkpt>
      <trkpt lat="43.17098" lon="3.03105">
        <ele>2</ele>
        <time>2018-08-28T19:15:39+02:00</time>
      </trkpt>
      <trkpt lat="43.17077" lon="3.03126">
        <ele>2</ele>
        <time>2018-08-28T19:15:45+02:00</time>
      </trkpt>
      <trkpt lat="43.17055" lon="3.03146">
        <ele>2</ele>
        <time>2018-08-28T19:15:51+02:00</time>
      </trkpt>
      <trkpt lat="43.17034" lon="3.03165">
        <ele>2</ele>
        <time>2018-08-28T19:15:57+02:00</time>
      </trkpt>
      <trkpt lat="43.17012" lon="3.03184">
        <ele>2</ele>
        <time>2018-08-28T19:16:03+02:00</time>
      </trkpt>
      <trkpt lat="43.16991" lon="3.03203">
        <ele>2</ele>
        <time>2018-08-28T19:16:09+02:00</time>
      </trkpt>
      <trkpt lat="43.16971" lon="3.03222">
        <ele>2</ele>
        <time>2018-08-28T19:16:15+02:00</time>
      </trkpt>
      <trkpt lat="43.16951" lon="3.0324">
        <ele>2</ele>
        <time>2018-08-28T19:16:21+02:00</time>
      </trkpt>
      <trkpt lat="43.16931" lon="3.03258">
        <ele>2</ele>
        <time>2018-08-28T19:16:27+02:00</time>
      </trkpt>
      <trkpt lat="43.1691" lon="3.03277">
        <ele>2</ele>
        <time>2018-08-28T19:16:33+02:00</time>
      </trkpt>
      <trkpt lat="43.16891" lon="3.03296">
        <ele>2</ele>
        <time>2018-08-28T19:16:39+02:00</time>
      </trkpt>
      <trkpt lat="43.1687" lon="3.03313">
        <ele>2</ele>
        <time>2018-08-28T19:16:45+02:00</time>
      </trkpt>
      <trkpt lat="43.16849" lon="3.03331">
        <ele>2</ele>
        <time>2018-08-28T19:16:51+02:00</time>
      </trkpt>
      <trkpt lat="43.16828" lon="3.03347">
        <ele>2</ele>
        <time>2018-08-28T19:16:57+02:00</time>
      </trkpt>
      <trkpt lat="43.16807" lon="3.03367">
        <ele>2</ele>
        <time>2018-08-28T19:17:03+02:00</time>
      </trkpt>
      <trkpt lat="43.16788" lon="3.03385">
        <ele>2</ele>
        <time>2018-08-28T19:17:08+02:00</time>
      </trkpt>
      <trkpt lat="43.16764" lon="3.03407">
        <ele>2</ele>
        <time>2018-08-28T19:17:15+02:00</time>
      </trkpt>
      <trkpt lat="43.16744" lon="3.03427">
        <ele>2</ele>
        <time>2018-08-28T19:17:21+02:00</time>
      </trkpt>
      <trkpt lat="43.16723" lon="3.03444">
        <ele>2</ele>
        <time>2018-08-28T19:17:27+02:00</time>
      </trkpt>
      <trkpt lat="43.16703" lon="3.03461">
        <ele>2</ele>
        <time>2018-08-28T19:17:33+02:00</time>
      </trkpt>
      <trkpt lat="43.16684" lon="3.03477">
        <ele>2</ele>
        <time>2018-08-28T19:17:39+02:00</time>
      </trkpt>
      <trkpt lat="43.16665" lon="3.035">
        <ele>2</ele>
        <time>2018-08-28T19:17:45+02:00</time>
      </trkpt>
      <trkpt lat="43.16643" lon="3.03519">
        <ele>2</ele>
        <time>2018-08-28T19:17:52+02:00</time>
      </trkpt>
      <trkpt lat="43.16624" lon="3.03538">
        <ele>2</ele>
        <time>2018-08-28T19:17:58+02:00</time>
      </trkpt>
      <trkpt lat="43.16604" lon="3.03559">
        <ele>2</ele>
        <time>2018-08-28T19:18:05+02:00</time>
      </trkpt>
      <trkpt lat="43.16586" lon="3.03587">
        <ele>2</ele>
        <time>2018-08-28T19:18:11+02:00</time>
      </trkpt>
      <trkpt lat="43.16569" lon="3.03611">
        <ele>2</ele>
        <time>2018-08-28T19:18:17+02:00</time>
      </trkpt>
      <trkpt lat="43.16549" lon="3.03635">
        <ele>2</ele>
        <time>2018-08-28T19:18:23+02:00</time>
      </trkpt>
      <trkpt lat="43.16531" lon="3.03661">
        <ele>2</ele>
        <time>2018-08-28T19:18:30+02:00</time>
      </trkpt>
      <trkpt lat="43.16514" lon="3.03684">
        <ele>2</ele>
        <time>2018-08-28T19:18:36+02:00</time>
      </trkpt>
      <trkpt lat="43.16497" lon="3.03704">
        <ele>2</ele>
        <time>2018-08-28T19:18:42+02:00</time>
      </trkpt>
      <trkpt lat="43.16481" lon="3.03727">
        <ele>2</ele>
        <time>2018-08-28T19:18:48+02:00</time>
      </trkpt>
      <trkpt lat="43.16466" lon="3.03751">
        <ele>2</ele>
        <time>2018-08-28T19:18:54+02:00</time>
      </trkpt>
      <trkpt lat="43.16449" lon="3.03777">
        <ele>2</ele>
        <time>2018-08-28T19:19:01+02:00</time>
      </trkpt>
      <trkpt lat="43.16435" lon="3.03801">
        <ele>2</ele>
        <time>2018-08-28T19:19:07+02:00</time>
      </trkpt>
      <trkpt lat="43.16418" lon="3.03826">
        <ele>2</ele>
        <time>2018-08-28T19:19:15+02:00</time>
      </trkpt>
      <trkpt lat="43.16399" lon="3.0385">
        <ele>2</ele>
        <time>2018-08-28T19:19:23+02:00</time>
      </trkpt>
      <trkpt lat="43.16381" lon="3.03869">
        <ele>2</ele>
        <time>2018-08-28T19:19:29+02:00</time>
      </trkpt>
      <trkpt lat="43.16357" lon="3.03879">
        <ele>2</ele>
        <time>2018-08-28T19:19:36+02:00</time>
      </trkpt>
      <trkpt lat="43.16334" lon="3.03886">
        <ele>2</ele>
        <time>2018-08-28T19:19:42+02:00</time>
      </trkpt>
      <trkpt lat="43.1631" lon="3.03894">
        <ele>2</ele>
        <time>2018-08-28T19:19:48+02:00</time>
      </trkpt>
      <trkpt lat="43.16285" lon="3.039">
        <ele>2</ele>
        <time>2018-08-28T19:19:54+02:00</time>
      </trkpt>
      <trkpt lat="43.16261" lon="3.03901">
        <ele>2</ele>
        <time>2018-08-28T19:20:00+02:00</time>
      </trkpt>
      <trkpt lat="43.16236" lon="3.03904">
        <ele>2</ele>
        <time>2018-08-28T19:20:06+02:00</time>
      </trkpt>
      <trkpt lat="43.16211" lon="3.039">
        <ele>2</ele>
        <time>2018-08-28T19:20:12+02:00</time>
      </trkpt>
      <trkpt lat="43.16189" lon="3.03889">
        <ele>2</ele>
        <time>2018-08-28T19:20:18+02:00</time>
      </trkpt>
      <trkpt lat="43.16166" lon="3.03877">
        <ele>2</ele>
        <time>2018-08-28T19:20:24+02:00</time>
      </trkpt>
      <trkpt lat="43.16144" lon="3.03865">
        <ele>2</ele>
        <time>2018-08-28T19:20:30+02:00</time>
      </trkpt>
      <trkpt lat="43.16122" lon="3.03852">
        <ele>2</ele>
        <time>2018-08-28T19:20:36+02:00</time>
      </trkpt>
      <trkpt lat="43.161" lon="3.03838">
        <ele>2</ele>
        <time>2018-08-28T19:20:42+02:00</time>
      </trkpt>
      <trkpt lat="43.16079" lon="3.03825">
        <ele>2</ele>
        <time>2018-08-28T19:20:48+02:00</time>
      </trkpt>
      <trkpt lat="43.16057" lon="3.0381">
        <ele>2</ele>
        <time>2018-08-28T19:20:54+02:00</time>
      </trkpt>
      <trkpt lat="43.16035" lon="3.03796">
        <ele>2</ele>
        <time>2018-08-28T19:21:00+02:00</time>
      </trkpt>
      <trkpt lat="43.16013" lon="3.03782">
        <ele>2</ele>
        <time>2018-08-28T19:21:06+02:00</time>
      </trkpt>
      <trkpt lat="43.15991" lon="3.03768">
        <ele>2</ele>
        <time>2018-08-28T19:21:12+02:00</time>
      </trkpt>
      <trkpt lat="43.15966" lon="3.03754">
        <ele>2</ele>
        <time>2018-08-28T19:21:19+02:00</time>
      </trkpt>
      <trkpt lat="43.15944" lon="3.03744">
        <ele>2</ele>
        <time>2018-08-28T19:21:24+02:00</time>
      </trkpt>
      <trkpt lat="43.15918" lon="3.03737">
        <ele>2</ele>
        <time>2018-08-28T19:21:30+02:00</time>
      </trkpt>
      <trkpt lat="43.15895" lon="3.03732">
        <ele>2</ele>
        <time>2018-08-28T19:21:35+02:00</time>
      </trkpt>
      <trkpt lat="43.15869" lon="3.03728">
        <ele>2</ele>
        <time>2018-08-28T19:21:41+02:00</time>
      </trkpt>
      <trkpt lat="43.15844" lon="3.0372">
        <ele>2</ele>
        <time>2018-08-28T19:21:47+02:00</time>
      </trkpt>
      <trkpt lat="43.15821" lon="3.03711">
        <ele>2</ele>
        <time>2018-08-28T19:21:53+02:00</time>
      </trkpt>
      <trkpt lat="43.15798" lon="3.03703">
        <ele>2</ele>
        <time>2018-08-28T19:21:59+02:00</time>
      </trkpt>
      <trkpt lat="43.15776" lon="3.03696">
        <ele>2</ele>
        <time>2018-08-28T19:22:05+02:00</time>
      </trkpt>
      <trkpt lat="43.15752" lon="3.03691">
        <ele>2</ele>
        <time>2018-08-28T19:22:11+02:00</time>
      </trkpt>
      <trkpt lat="43.15728" lon="3.03686">
        <ele>2</ele>
        <time>2018-08-28T19:22:17+02:00</time>
      </trkpt>
      <trkpt lat="43.15703" lon="3.03677">
        <ele>2</ele>
        <time>2018-08-28T19:22:23+02:00</time>
      </trkpt>
      <trkpt lat="43.15682" lon="3.0366">
        <ele>2</ele>
        <time>2018-08-28T19:22:29+02:00</time>
      </trkpt>
      <trkpt lat="43.15663" lon="3.03637">
        <ele>2</ele>
        <time>2018-08-28T19:22:35+02:00</time>
      </trkpt>
      <trkpt lat="43.15643" lon="3.03615">
        <ele>2</ele>
        <time>2018-08-28T19:22:41+02:00</time>
      </trkpt>
      <trkpt lat="43.15623" lon="3.03595">
        <ele>2</ele>
        <time>2018-08-28T19:22:47+02:00</time>
      </trkpt>
      <trkpt lat="43.15603" lon="3.03575">
        <ele>2</ele>
        <time>2018-08-28T19:22:53+02:00</time>
      </trkpt>
      <trkpt lat="43.15584" lon="3.03552">
        <ele>2</ele>
        <time>2018-08-28T19:22:59+02:00</time>
      </trkpt>
      <trkpt lat="43.15563" lon="3.03534">
        <ele>2</ele>
        <time>2018-08-28T19:23:05+02:00</time>
      </trkpt>
      <trkpt lat="43.15542" lon="3.03518">
        <ele>2</ele>
        <time>2018-08-28T19:23:11+02:00</time>
      </trkpt>
      <trkpt lat="43.15517" lon="3.03499">
        <ele>2</ele>
        <time>2018-08-28T19:23:18+02:00</time>
      </trkpt>
      <trkpt lat="43.15494" lon="3.03484">
        <ele>2</ele>
        <time>2018-08-28T19:23:24+02:00</time>
      </trkpt>
      <trkpt lat="43.15471" lon="3.03471">
        <ele>2</ele>
        <time>2018-08-28T19:23:30+02:00</time>
      </trkpt>
      <trkpt lat="43.15448" lon="3.03459">
        <ele>2</ele>
        <time>2018-08-28T19:23:36+02:00</time>
      </trkpt>
      <trkpt lat="43.15423" lon="3.0345">
        <ele>2</ele>
        <time>2018-08-28T19:23:42+02:00</time>
      </trkpt>
      <trkpt lat="43.15399" lon="3.0344">
        <ele>2</ele>
        <time>2018-08-28T19:23:48+02:00</time>
      </trkpt>
      <trkpt lat="43.15375" lon="3.03429">
        <ele>2</ele>
        <time>2018-08-28T19:23:54+02:00</time>
      </trkpt>
      <trkpt lat="43.15351" lon="3.03419">
        <ele>2</ele>
        <time>2018-08-28T19:24:00+02:00</time>
      </trkpt>
      <trkpt lat="43.15327" lon="3.03408">
        <ele>2</ele>
        <time>2018-08-28T19:24:06+02:00</time>
      </trkpt>
      <trkpt lat="43.15304" lon="3.03392">
        <ele>2</ele>
        <time>2018-08-28T19:24:12+02:00</time>
      </trkpt>
      <trkpt lat="43.15283" lon="3.03376">
        <ele>2</ele>
        <time>2018-08-28T19:24:18+02:00</time>
      </trkpt>
      <trkpt lat="43.15263" lon="3.03355">
        <ele>2</ele>
        <time>2018-08-28T19:24:24+02:00</time>
      </trkpt>
      <trkpt lat="43.15245" lon="3.03332">
        <ele>2</ele>
        <time>2018-08-28T19:24:30+02:00</time>
      </trkpt>
      <trkpt lat="43.15227" lon="3.03306">
        <ele>2</ele>
        <time>2018-08-28T19:24:36+02:00</time>
      </trkpt>
      <trkpt lat="43.15209" lon="3.03279">
        <ele>2</ele>
        <time>2018-08-28T19:24:42+02:00</time>
      </trkpt>
      <trkpt lat="43.15193" lon="3.03254">
        <ele>2</ele>
        <time>2018-08-28T19:24:48+02:00</time>
      </trkpt>
      <trkpt lat="43.15177" lon="3.03231">
        <ele>2</ele>
        <time>2018-08-28T19:24:54+02:00</time>
      </trkpt>
      <trkpt lat="43.15158" lon="3.03207">
        <ele>2</ele>
        <time>2018-08-28T19:25:00+02:00</time>
      </trkpt>
      <trkpt lat="43.15139" lon="3.03185">
        <ele>2</ele>
        <time>2018-08-28T19:25:06+02:00</time>
      </trkpt>
      <trkpt lat="43.15121" lon="3.03165">
        <ele>2</ele>
        <time>2018-08-28T19:25:12+02:00</time>
      </trkpt>
      <trkpt lat="43.15101" lon="3.03145">
        <ele>2</ele>
        <time>2018-08-28T19:25:18+02:00</time>
      </trkpt>
      <trkpt lat="43.1508" lon="3.03128">
        <ele>2</ele>
        <time>2018-08-28T19:25:24+02:00</time>
      </trkpt>
      <trkpt lat="43.15057" lon="3.03117">
        <ele>2</ele>
        <time>2018-08-28T19:25:30+02:00</time>
      </trkpt>
      <trkpt lat="43.15035" lon="3.03106">
        <ele>2</ele>
        <time>2018-08-28T19:25:36+02:00</time>
      </trkpt>
      <trkpt lat="43.15013" lon="3.03094">
        <ele>2</ele>
        <time>2018-08-28T19:25:42+02:00</time>
      </trkpt>
      <trkpt lat="43.14991" lon="3.03074">
        <ele>2</ele>
        <time>2018-08-28T19:25:48+02:00</time>
      </trkpt>
      <trkpt lat="43.14972" lon="3.03054">
        <ele>2</ele>
        <time>2018-08-28T19:25:54+02:00</time>
      </trkpt>
      <trkpt lat="43.14951" lon="3.03037">
        <ele>2</ele>
        <time>2018-08-28T19:26:00+02:00</time>
      </trkpt>
      <trkpt lat="43.1493" lon="3.03018">
        <ele>2</ele>
        <time>2018-08-28T19:26:07+02:00</time>
      </trkpt>
      <trkpt lat="43.14909" lon="3.02999">
        <ele>2</ele>
        <time>2018-08-28T19:26:14+02:00</time>
      </trkpt>
      <trkpt lat="43.14889" lon="3.02979">
        <ele>2</ele>
        <time>2018-08-28T19:26:21+02:00</time>
      </trkpt>
      <trkpt lat="43.14868" lon="3.02959">
        <ele>2</ele>
        <time>2018-08-28T19:26:28+02:00</time>
      </trkpt>
      <trkpt lat="43.14849" lon="3.02942">
        <ele>2</ele>
        <time>2018-08-28T19:26:34+02:00</time>
      </trkpt>
      <trkpt lat="43.1483" lon="3.02921">
        <ele>2</ele>
        <time>2018-08-28T19:26:41+02:00</time>
      </trkpt>
      <trkpt lat="43.14809" lon="3.02902">
        <ele>2</ele>
        <time>2018-08-28T19:26:48+02:00</time>
      </trkpt>
      <trkpt lat="43.14788" lon="3.0288">
        <ele>2</ele>
        <time>2018-08-28T19:26:55+02:00</time>
      </trkpt>
      <trkpt lat="43.1477" lon="3.02861">
        <ele>2</ele>
        <time>2018-08-28T19:27:01+02:00</time>
      </trkpt>
      <trkpt lat="43.14751" lon="3.02844">
        <ele>2</ele>
        <time>2018-08-28T19:27:07+02:00</time>
      </trkpt>
      <trkpt lat="43.14729" lon="3.02829">
        <ele>2</ele>
        <time>2018-08-28T19:27:14+02:00</time>
      </trkpt>
      <trkpt lat="43.14704" lon="3.02825">
        <ele>2</ele>
        <time>2018-08-28T19:27:21+02:00</time>
      </trkpt>
      <trkpt lat="43.14682" lon="3.0283">
        <ele>2</ele>
        <time>2018-08-28T19:27:27+02:00</time>
      </trkpt>
      <trkpt lat="43.14657" lon="3.02836">
        <ele>2</ele>
        <time>2018-08-28T19:27:34+02:00</time>
      </trkpt>
      <trkpt lat="43.14632" lon="3.02841">
        <ele>2</ele>
        <time>2018-08-28T19:27:41+02:00</time>
      </trkpt>
      <trkpt lat="43.14608" lon="3.02842">
        <ele>2</ele>
        <time>2018-08-28T19:27:47+02:00</time>
      </trkpt>
      <trkpt lat="43.14583" lon="3.02842">
        <ele>2</ele>
        <time>2018-08-28T19:27:53+02:00</time>
      </trkpt>
      <trkpt lat="43.14558" lon="3.02848">
        <ele>2</ele>
        <time>2018-08-28T19:27:59+02:00</time>
      </trkpt>
      <trkpt lat="43.14535" lon="3.02855">
        <ele>2</ele>
        <time>2018-08-28T19:28:05+02:00</time>
      </trkpt>
      <trkpt lat="43.14513" lon="3.02866">
        <ele>2</ele>
        <time>2018-08-28T19:28:11+02:00</time>
      </trkpt>
      <trkpt lat="43.14492" lon="3.02882">
        <ele>2</ele>
        <time>2018-08-28T19:28:17+02:00</time>
      </trkpt>
      <trkpt lat="43.14471" lon="3.02898">
        <ele>2</ele>
        <time>2018-08-28T19:28:23+02:00</time>
      </trkpt>
      <trkpt lat="43.14451" lon="3.02916">
        <ele>2</ele>
        <time>2018-08-28T19:28:29+02:00</time>
      </trkpt>
      <trkpt lat="43.14429" lon="3.02932">
        <ele>2</ele>
        <time>2018-08-28T19:28:35+02:00</time>
      </trkpt>
      <trkpt lat="43.14408" lon="3.02946">
        <ele>2</ele>
        <time>2018-08-28T19:28:41+02:00</time>
      </trkpt>
      <trkpt lat="43.14385" lon="3.02956">
        <ele>2</ele>
        <time>2018-08-28T19:28:47+02:00</time>
      </trkpt>
      <trkpt lat="43.1436" lon="3.02965">
        <ele>2</ele>
        <time>2018-08-28T19:28:54+02:00</time>
      </trkpt>
      <trkpt lat="43.14338" lon="3.02974">
        <ele>2</ele>
        <time>2018-08-28T19:29:00+02:00</time>
      </trkpt>
      <trkpt lat="43.14318" lon="3.02986">
        <ele>2</ele>
        <time>2018-08-28T19:29:06+02:00</time>
      </trkpt>
      <trkpt lat="43.14297" lon="3.03002">
        <ele>2</ele>
        <time>2018-08-28T19:29:13+02:00</time>
      </trkpt>
      <trkpt lat="43.14273" lon="3.03014">
        <ele>2</ele>
        <time>2018-08-28T19:29:20+02:00</time>
      </trkpt>
      <trkpt lat="43.14251" lon="3.03022">
        <ele>2</ele>
        <time>2018-08-28T19:29:26+02:00</time>
      </trkpt>
      <trkpt lat="43.14228" lon="3.03024">
        <ele>2</ele>
        <time>2018-08-28T19:29:32+02:00</time>
      </trkpt>
      <trkpt lat="43.14204" lon="3.0302">
        <ele>2</ele>
        <time>2018-08-28T19:29:39+02:00</time>
      </trkpt>
      <trkpt lat="43.14182" lon="3.03016">
        <ele>2</ele>
        <time>2018-08-28T19:29:46+02:00</time>
      </trkpt>
      <trkpt lat="43.14154" lon="3.03012">
        <ele>2</ele>
        <time>2018-08-28T19:29:53+02:00</time>
      </trkpt>
      <trkpt lat="43.1413" lon="3.03021">
        <ele>2</ele>
        <time>2018-08-28T19:29:59+02:00</time>
      </trkpt>
      <trkpt lat="43.14108" lon="3.03028">
        <ele>2</ele>
        <time>2018-08-28T19:30:05+02:00</time>
      </trkpt>
      <trkpt lat="43.14085" lon="3.03042">
        <ele>2</ele>
        <time>2018-08-28T19:30:11+02:00</time>
      </trkpt>
      <trkpt lat="43.14062" lon="3.03049">
        <ele>2</ele>
        <time>2018-08-28T19:30:17+02:00</time>
      </trkpt>
      <trkpt lat="43.14034" lon="3.03051">
        <ele>2</ele>
        <time>2018-08-28T19:30:24+02:00</time>
      </trkpt>
      <trkpt lat="43.14008" lon="3.03052">
        <ele>2</ele>
        <time>2018-08-28T19:30:31+02:00</time>
      </trkpt>
      <trkpt lat="43.13984" lon="3.03049">
        <ele>2</ele>
        <time>2018-08-28T19:30:37+02:00</time>
      </trkpt>
      <trkpt lat="43.13959" lon="3.03052">
        <ele>2</ele>
        <time>2018-08-28T19:30:44+02:00</time>
      </trkpt>
      <trkpt lat="43.13935" lon="3.03053">
        <ele>2</ele>
        <time>2018-08-28T19:30:51+02:00</time>
      </trkpt>
      <trkpt lat="43.13911" lon="3.03057">
        <ele>2</ele>
        <time>2018-08-28T19:30:58+02:00</time>
      </trkpt>
      <trkpt lat="43.13889" lon="3.03067">
        <ele>2</ele>
        <time>2018-08-28T19:31:04+02:00</time>
      </trkpt>
      <trkpt lat="43.13871" lon="3.03086">
        <ele>2</ele>
        <time>2018-08-28T19:31:12+02:00</time>
      </trkpt>
      <trkpt lat="43.13853" lon="3.03108">
        <ele>2</ele>
        <time>2018-08-28T19:31:18+02:00</time>
      </trkpt>
      <trkpt lat="43.13834" lon="3.03125">
        <ele>2</ele>
        <time>2018-08-28T19:31:23+02:00</time>
      </trkpt>
      <trkpt lat="43.13812" lon="3.03141">
        <ele>2</ele>
        <time>2018-08-28T19:31:29+02:00</time>
      </trkpt>
      <trkpt lat="43.13787" lon="3.03141">
        <ele>2</ele>
        <time>2018-08-28T19:31:35+02:00</time>
      </trkpt>
      <trkpt lat="43.1376" lon="3.0314">
        <ele>2</ele>
        <time>2018-08-28T19:31:41+02:00</time>
      </trkpt>
      <trkpt lat="43.13737" lon="3.03139">
        <ele>2</ele>
        <time>2018-08-28T19:31:47+02:00</time>
      </trkpt>
      <trkpt lat="43.13714" lon="3.03138">
        <ele>2</ele>
        <time>2018-08-28T19:31:53+02:00</time>
      </trkpt>
      <trkpt lat="43.13688" lon="3.03137">
        <ele>2</ele>
        <time>2018-08-28T19:31:59+02:00</time>
      </trkpt>
      <trkpt lat="43.13665" lon="3.03135">
        <ele>2</ele>
        <time>2018-08-28T19:32:05+02:00</time>
      </trkpt>
      <trkpt lat="43.13643" lon="3.03136">
        <ele>2</ele>
        <time>2018-08-28T19:32:11+02:00</time>
      </trkpt>
      <trkpt lat="43.13619" lon="3.03134">
        <ele>2</ele>
        <time>2018-08-28T19:32:17+02:00</time>
      </trkpt>
      <trkpt lat="43.13594" lon="3.03133">
        <ele>2</ele>
        <time>2018-08-28T19:32:24+02:00</time>
      </trkpt>
      <trkpt lat="43.13568" lon="3.03131">
        <ele>2</ele>
        <time>2018-08-28T19:32:30+02:00</time>
      </trkpt>
      <trkpt lat="43.13545" lon="3.03129">
        <ele>2</ele>
        <time>2018-08-28T19:32:36+02:00</time>
      </trkpt>
      <trkpt lat="43.13522" lon="3.03131">
        <ele>2</ele>
        <time>2018-08-28T19:32:43+02:00</time>
      </trkpt>
      <trkpt lat="43.13498" lon="3.03135">
        <ele>2</ele>
        <time>2018-08-28T19:32:49+02:00</time>
      </trkpt>
      <trkpt lat="43.13473" lon="3.03135">
        <ele>2</ele>
        <time>2018-08-28T19:32:55+02:00</time>
      </trkpt>
      <trkpt lat="43.13449" lon="3.0314">
        <ele>2</ele>
        <time>2018-08-28T19:33:01+02:00</time>
      </trkpt>
      <trkpt lat="43.13423" lon="3.03143">
        <ele>2</ele>
        <time>2018-08-28T19:33:08+02:00</time>
      </trkpt>
      <trkpt lat="43.13396" lon="3.03143">
        <ele>2</ele>
        <time>2018-08-28T19:33:15+02:00</time>
      </trkpt>
      <trkpt lat="43.1337" lon="3.03145">
        <ele>2</ele>
        <time>2018-08-28T19:33:23+02:00</time>
      </trkpt>
      <trkpt lat="43.13347" lon="3.0315">
        <ele>2</ele>
        <time>2018-08-28T19:33:28+02:00</time>
      </trkpt>
      <trkpt lat="43.13324" lon="3.03162">
        <ele>2</ele>
        <time>2018-08-28T19:33:34+02:00</time>
      </trkpt>
      <trkpt lat="43.13303" lon="3.03174">
        <ele>2</ele>
        <time>2018-08-28T19:33:40+02:00</time>
      </trkpt>
      <trkpt lat="43.13282" lon="3.03186">
        <ele>2</ele>
        <time>2018-08-28T19:33:46+02:00</time>
      </trkpt>
      <trkpt lat="43.13259" lon="3.03197">
        <ele>2</ele>
        <time>2018-08-28T19:33:52+02:00</time>
      </trkpt>
      <trkpt lat="43.13236" lon="3.03205">
        <ele>2</ele>
        <time>2018-08-28T19:33:59+02:00</time>
      </trkpt>
      <trkpt lat="43.13211" lon="3.0321">
        <ele>2</ele>
        <time>2018-08-28T19:34:05+02:00</time>
      </trkpt>
      <trkpt lat="43.13187" lon="3.03212">
        <ele>2</ele>
        <time>2018-08-28T19:34:11+02:00</time>
      </trkpt>
      <trkpt lat="43.13153" lon="3.03205">
        <ele>2</ele>
        <time>2018-08-28T19:34:23+02:00</time>
      </trkpt>
      <trkpt lat="43.13126" lon="3.03197">
        <ele>2</ele>
        <time>2018-08-28T19:34:29+02:00</time>
      </trkpt>
      <trkpt lat="43.13102" lon="3.03195">
        <ele>2</ele>
        <time>2018-08-28T19:34:35+02:00</time>
      </trkpt>
      <trkpt lat="43.13077" lon="3.03189">
        <ele>2</ele>
        <time>2018-08-28T19:34:41+02:00</time>
      </trkpt>
      <trkpt lat="43.13054" lon="3.03182">
        <ele>2</ele>
        <time>2018-08-28T19:34:46+02:00</time>
      </trkpt>
      <trkpt lat="43.13031" lon="3.03183">
        <ele>2</ele>
        <time>2018-08-28T19:34:52+02:00</time>
      </trkpt>
      <trkpt lat="43.13006" lon="3.03187">
        <ele>2</ele>
        <time>2018-08-28T19:35:00+02:00</time>
      </trkpt>
      <trkpt lat="43.12984" lon="3.03187">
        <ele>2</ele>
        <time>2018-08-28T19:35:05+02:00</time>
      </trkpt>
      <trkpt lat="43.12958" lon="3.03194">
        <ele>2</ele>
        <time>2018-08-28T19:35:13+02:00</time>
      </trkpt>
      <trkpt lat="43.12932" lon="3.03196">
        <ele>2</ele>
        <time>2018-08-28T19:35:20+02:00</time>
      </trkpt>
      <trkpt lat="43.12908" lon="3.03186">
        <ele>2</ele>
        <time>2018-08-28T19:35:29+02:00</time>
      </trkpt>
      <trkpt lat="43.12884" lon="3.03177">
        <ele>2</ele>
        <time>2018-08-28T19:35:34+02:00</time>
      </trkpt>
      <trkpt lat="43.12862" lon="3.03167">
        <ele>2</ele>
        <time>2018-08-28T19:35:39+02:00</time>
      </trkpt>
      <trkpt lat="43.12839" lon="3.03161">
        <ele>2</ele>
        <time>2018-08-28T19:35:45+02:00</time>
      </trkpt>
      <trkpt lat="43.12813" lon="3.03159">
        <ele>2</ele>
        <time>2018-08-28T19:35:51+02:00</time>
      </trkpt>
      <trkpt lat="43.1279" lon="3.03159">
        <ele>2</ele>
        <time>2018-08-28T19:35:59+02:00</time>
      </trkpt>
      <trkpt lat="43.12765" lon="3.03158">
        <ele>2</ele>
        <time>2018-08-28T19:36:05+02:00</time>
      </trkpt>
      <trkpt lat="43.12742" lon="3.03155">
        <ele>2</ele>
        <time>2018-08-28T19:36:12+02:00</time>
      </trkpt>
      <trkpt lat="43.12719" lon="3.03154">
        <ele>2</ele>
        <time>2018-08-28T19:36:17+02:00</time>
      </trkpt>
      <trkpt lat="43.12697" lon="3.0315">
        <ele>2</ele>
        <time>2018-08-28T19:36:23+02:00</time>
      </trkpt>
      <trkpt lat="43.12671" lon="3.03146">
        <ele>2</ele>
        <time>2018-08-28T19:36:29+02:00</time>
      </trkpt>
      <trkpt lat="43.12648" lon="3.03144">
        <ele>2</ele>
        <time>2018-08-28T19:36:37+02:00</time>
      </trkpt>
      <trkpt lat="43.12625" lon="3.03142">
        <ele>2</ele>
        <time>2018-08-28T19:36:43+02:00</time>
      </trkpt>
      <trkpt lat="43.126" lon="3.03143">
        <ele>2</ele>
        <time>2018-08-28T19:36:50+02:00</time>
      </trkpt>
      <trkpt lat="43.12573" lon="3.0314">
        <ele>2</ele>
        <time>2018-08-28T19:36:55+02:00</time>
      </trkpt>
      <trkpt lat="43.12547" lon="3.03137">
        <ele>2</ele>
        <time>2018-08-28T19:37:00+02:00</time>
      </trkpt>
      <trkpt lat="43.12519" lon="3.03138">
        <ele>2</ele>
        <time>2018-08-28T19:37:07+02:00</time>
      </trkpt>
      <trkpt lat="43.12492" lon="3.03135">
        <ele>2</ele>
        <time>2018-08-28T19:37:12+02:00</time>
      </trkpt>
      <trkpt lat="43.12467" lon="3.03133">
        <ele>2</ele>
        <time>2018-08-28T19:37:18+02:00</time>
      </trkpt>
      <trkpt lat="43.12444" lon="3.03133">
        <ele>2</ele>
        <time>2018-08-28T19:37:25+02:00</time>
      </trkpt>
      <trkpt lat="43.12419" lon="3.0313">
        <ele>2</ele>
        <time>2018-08-28T19:37:32+02:00</time>
      </trkpt>
      <trkpt lat="43.12395" lon="3.03127">
        <ele>2</ele>
        <time>2018-08-28T19:37:40+02:00</time>
      </trkpt>
      <trkpt lat="43.12369" lon="3.03126">
        <ele>2</ele>
        <time>2018-08-28T19:37:49+02:00</time>
      </trkpt>
      <trkpt lat="43.12346" lon="3.03124">
        <ele>2</ele>
        <time>2018-08-28T19:37:54+02:00</time>
      </trkpt>
      <trkpt lat="43.12322" lon="3.03122">
        <ele>2</ele>
        <time>2018-08-28T19:38:00+02:00</time>
      </trkpt>
      <trkpt lat="43.12298" lon="3.03119">
        <ele>2</ele>
        <time>2018-08-28T19:38:06+02:00</time>
      </trkpt>
      <trkpt lat="43.12275" lon="3.03117">
        <ele>2</ele>
        <time>2018-08-28T19:38:13+02:00</time>
      </trkpt>
      <trkpt lat="43.12251" lon="3.03112">
        <ele>2</ele>
        <time>2018-08-28T19:38:20+02:00</time>
      </trkpt>
      <trkpt lat="43.12225" lon="3.03112">
        <ele>2</ele>
        <time>2018-08-28T19:38:27+02:00</time>
      </trkpt>
      <trkpt lat="43.12202" lon="3.03111">
        <ele>2</ele>
        <time>2018-08-28T19:38:33+02:00</time>
      </trkpt>
      <trkpt lat="43.12178" lon="3.0311">
        <ele>2</ele>
        <time>2018-08-28T19:40:23+02:00</time>
      </trkpt>
      <trkpt lat="43.12151" lon="3.03112">
        <ele>2</ele>
        <time>2018-08-28T19:40:29+02:00</time>
      </trkpt>
      <trkpt lat="43.12128" lon="3.0311">
        <ele>2</ele>
        <time>2018-08-28T19:40:35+02:00</time>
      </trkpt>
      <trkpt lat="43.12101" lon="3.03108">
        <ele>2</ele>
        <time>2018-08-28T19:40:41+02:00</time>
      </trkpt>
      <trkpt lat="43.12076" lon="3.03106">
        <ele>1</ele>
        <time>2018-08-28T19:40:47+02:00</time>
      </trkpt>
      <trkpt lat="43.12048" lon="3.03103">
        <ele>1</ele>
        <time>2018-08-28T19:40:53+02:00</time>
      </trkpt>
      <trkpt lat="43.12023" lon="3.03098">
        <ele>1</ele>
        <time>2018-08-28T19:41:00+02:00</time>
      </trkpt>
      <trkpt lat="43.11998" lon="3.03096">
        <ele>1</ele>
        <time>2018-08-28T19:41:06+02:00</time>
      </trkpt>
      <trkpt lat="43.11973" lon="3.03093">
        <ele>1</ele>
        <time>2018-08-28T19:41:12+02:00</time>
      </trkpt>
      <trkpt lat="43.11949" lon="3.03092">
        <ele>1</ele>
        <time>2018-08-28T19:41:18+02:00</time>
      </trkpt>
      <trkpt lat="43.11925" lon="3.0309">
        <ele>1</ele>
        <time>2018-08-28T19:41:24+02:00</time>
      </trkpt>
      <trkpt lat="43.119" lon="3.03088">
        <ele>1</ele>
        <time>2018-08-28T19:41:30+02:00</time>
      </trkpt>
      <trkpt lat="43.11875" lon="3.03087">
        <ele>1</ele>
        <time>2018-08-28T19:41:35+02:00</time>
      </trkpt>
      <trkpt lat="43.11853" lon="3.03085">
        <ele>1</ele>
        <time>2018-08-28T19:41:40+02:00</time>
      </trkpt>
      <trkpt lat="43.11829" lon="3.03082">
        <ele>1</ele>
        <time>2018-08-28T19:41:46+02:00</time>
      </trkpt>
      <trkpt lat="43.11805" lon="3.03081">
        <ele>1</ele>
        <time>2018-08-28T19:41:53+02:00</time>
      </trkpt>
      <trkpt lat="43.1178" lon="3.03078">
        <ele>1</ele>
        <time>2018-08-28T19:41:59+02:00</time>
      </trkpt>
      <trkpt lat="43.11756" lon="3.03077">
        <ele>1</ele>
        <time>2018-08-28T19:42:05+02:00</time>
      </trkpt>
      <trkpt lat="43.11731" lon="3.03072">
        <ele>1</ele>
        <time>2018-08-28T19:42:11+02:00</time>
      </trkpt>
      <trkpt lat="43.11707" lon="3.03068">
        <ele>1</ele>
        <time>2018-08-28T19:42:17+02:00</time>
      </trkpt>
      <trkpt lat="43.11682" lon="3.03068">
        <ele>1</ele>
        <time>2018-08-28T19:42:22+02:00</time>
      </trkpt>
      <trkpt lat="43.11656" lon="3.0307">
        <ele>1</ele>
        <time>2018-08-28T19:42:29+02:00</time>
      </trkpt>
      <trkpt lat="43.11633" lon="3.03067">
        <ele>1</ele>
        <time>2018-08-28T19:42:34+02:00</time>
      </trkpt>
      <trkpt lat="43.1161" lon="3.03065">
        <ele>1</ele>
        <time>2018-08-28T19:42:40+02:00</time>
      </trkpt>
      <trkpt lat="43.11585" lon="3.03061">
        <ele>1</ele>
        <time>2018-08-28T19:42:46+02:00</time>
      </trkpt>
      <trkpt lat="43.11561" lon="3.03059">
        <ele>1</ele>
        <time>2018-08-28T19:42:52+02:00</time>
      </trkpt>
      <trkpt lat="43.11538" lon="3.03057">
        <ele>1</ele>
        <time>2018-08-28T19:42:58+02:00</time>
      </trkpt>
      <trkpt lat="43.11511" lon="3.03056">
        <ele>1</ele>
        <time>2018-08-28T19:43:05+02:00</time>
      </trkpt>
      <trkpt lat="43.11485" lon="3.03056">
        <ele>1</ele>
        <time>2018-08-28T19:43:11+02:00</time>
      </trkpt>
      <trkpt lat="43.11459" lon="3.03059">
        <ele>1</ele>
        <time>2018-08-28T19:43:17+02:00</time>
      </trkpt>
      <trkpt lat="43.11435" lon="3.03066">
        <ele>1</ele>
        <time>2018-08-28T19:43:23+02:00</time>
      </trkpt>
      <trkpt lat="43.11414" lon="3.03078">
        <ele>1</ele>
        <time>2018-08-28T19:43:29+02:00</time>
      </trkpt>
      <trkpt lat="43.1139" lon="3.03084">
        <ele>1</ele>
        <time>2018-08-28T19:43:34+02:00</time>
      </trkpt>
      <trkpt lat="43.11365" lon="3.0309">
        <ele>1</ele>
        <time>2018-08-28T19:43:40+02:00</time>
      </trkpt>
      <trkpt lat="43.11343" lon="3.03099">
        <ele>1</ele>
        <time>2018-08-28T19:43:46+02:00</time>
      </trkpt>
      <trkpt lat="43.11321" lon="3.03108">
        <ele>1</ele>
        <time>2018-08-28T19:43:52+02:00</time>
      </trkpt>
      <trkpt lat="43.11293" lon="3.03107">
        <ele>1</ele>
        <time>2018-08-28T19:43:58+02:00</time>
      </trkpt>
      <trkpt lat="43.11268" lon="3.03104">
        <ele>1</ele>
        <time>2018-08-28T19:44:04+02:00</time>
      </trkpt>
      <trkpt lat="43.11246" lon="3.0311">
        <ele>1</ele>
        <time>2018-08-28T19:44:10+02:00</time>
      </trkpt>
      <trkpt lat="43.11223" lon="3.03116">
        <ele>1</ele>
        <time>2018-08-28T19:44:16+02:00</time>
      </trkpt>
      <trkpt lat="43.11199" lon="3.03123">
        <ele>1</ele>
        <time>2018-08-28T19:44:22+02:00</time>
      </trkpt>
      <trkpt lat="43.11177" lon="3.03132">
        <ele>1</ele>
        <time>2018-08-28T19:44:28+02:00</time>
      </trkpt>
      <trkpt lat="43.11151" lon="3.0314">
        <ele>1</ele>
        <time>2018-08-28T19:44:35+02:00</time>
      </trkpt>
      <trkpt lat="43.11128" lon="3.03141">
        <ele>1</ele>
        <time>2018-08-28T19:44:40+02:00</time>
      </trkpt>
      <trkpt lat="43.11102" lon="3.03138">
        <ele>1</ele>
        <time>2018-08-28T19:44:46+02:00</time>
      </trkpt>
      <trkpt lat="43.11078" lon="3.0313">
        <ele>1</ele>
        <time>2018-08-28T19:44:52+02:00</time>
      </trkpt>
      <trkpt lat="43.11053" lon="3.03127">
        <ele>1</ele>
        <time>2018-08-28T19:44:58+02:00</time>
      </trkpt>
      <trkpt lat="43.11028" lon="3.03127">
        <ele>1</ele>
        <time>2018-08-28T19:45:04+02:00</time>
      </trkpt>
      <trkpt lat="43.11002" lon="3.03133">
        <ele>1</ele>
        <time>2018-08-28T19:45:10+02:00</time>
      </trkpt>
      <trkpt lat="43.10977" lon="3.0314">
        <ele>1</ele>
        <time>2018-08-28T19:45:16+02:00</time>
      </trkpt>
      <trkpt lat="43.10953" lon="3.03151">
        <ele>1</ele>
        <time>2018-08-28T19:45:22+02:00</time>
      </trkpt>
      <trkpt lat="43.10929" lon="3.03159">
        <ele>1</ele>
        <time>2018-08-28T19:45:28+02:00</time>
      </trkpt>
      <trkpt lat="43.10907" lon="3.03168">
        <ele>1</ele>
        <time>2018-08-28T19:45:34+02:00</time>
      </trkpt>
      <trkpt lat="43.10883" lon="3.03182">
        <ele>1</ele>
        <time>2018-08-28T19:45:40+02:00</time>
      </trkpt>
      <trkpt lat="43.10859" lon="3.03192">
        <ele>1</ele>
        <time>2018-08-28T19:45:46+02:00</time>
      </trkpt>
      <trkpt lat="43.10836" lon="3.03201">
        <ele>1</ele>
        <time>2018-08-28T19:45:51+02:00</time>
      </trkpt>
      <trkpt lat="43.10812" lon="3.03211">
        <ele>1</ele>
        <time>2018-08-28T19:45:57+02:00</time>
      </trkpt>
      <trkpt lat="43.10789" lon="3.03222">
        <ele>1</ele>
        <time>2018-08-28T19:46:03+02:00</time>
      </trkpt>
      <trkpt lat="43.10765" lon="3.03234">
        <ele>1</ele>
        <time>2018-08-28T19:46:09+02:00</time>
      </trkpt>
      <trkpt lat="43.1074" lon="3.0324">
        <ele>1</ele>
        <time>2018-08-28T19:46:15+02:00</time>
      </trkpt>
      <trkpt lat="43.10717" lon="3.03242">
        <ele>1</ele>
        <time>2018-08-28T19:46:20+02:00</time>
      </trkpt>
      <trkpt lat="43.10691" lon="3.03242">
        <ele>1</ele>
        <time>2018-08-28T19:46:26+02:00</time>
      </trkpt>
      <trkpt lat="43.10666" lon="3.0324">
        <ele>1</ele>
        <time>2018-08-28T19:46:32+02:00</time>
      </trkpt>
      <trkpt lat="43.1064" lon="3.03237">
        <ele>1</ele>
        <time>2018-08-28T19:46:38+02:00</time>
      </trkpt>
      <trkpt lat="43.10615" lon="3.0324">
        <ele>1</ele>
        <time>2018-08-28T19:46:44+02:00</time>
      </trkpt>
      <trkpt lat="43.1059" lon="3.03242">
        <ele>1</ele>
        <time>2018-08-28T19:46:50+02:00</time>
      </trkpt>
      <trkpt lat="43.10564" lon="3.03243">
        <ele>1</ele>
        <time>2018-08-28T19:46:56+02:00</time>
      </trkpt>
      <trkpt lat="43.10541" lon="3.03238">
        <ele>1</ele>
        <time>2018-08-28T19:47:02+02:00</time>
      </trkpt>
      <trkpt lat="43.10517" lon="3.03229">
        <ele>1</ele>
        <time>2018-08-28T19:47:08+02:00</time>
      </trkpt>
      <trkpt lat="43.10496" lon="3.03218">
        <ele>1</ele>
        <time>2018-08-28T19:47:14+02:00</time>
      </trkpt>
      <trkpt lat="43.10471" lon="3.03205">
        <ele>1</ele>
        <time>2018-08-28T19:47:20+02:00</time>
      </trkpt>
      <trkpt lat="43.10447" lon="3.03191">
        <ele>1</ele>
        <time>2018-08-28T19:47:26+02:00</time>
      </trkpt>
      <trkpt lat="43.10423" lon="3.03178">
        <ele>1</ele>
        <time>2018-08-28T19:47:32+02:00</time>
      </trkpt>
      <trkpt lat="43.104" lon="3.03167">
        <ele>2</ele>
        <time>2018-08-28T19:47:38+02:00</time>
      </trkpt>
      <trkpt lat="43.10375" lon="3.03151">
        <ele>1</ele>
        <time>2018-08-28T19:47:45+02:00</time>
      </trkpt>
      <trkpt lat="43.10353" lon="3.03141">
        <ele>1</ele>
        <time>2018-08-28T19:47:50+02:00</time>
      </trkpt>
      <trkpt lat="43.10327" lon="3.03137">
        <ele>1</ele>
        <time>2018-08-28T19:47:56+02:00</time>
      </trkpt>
      <trkpt lat="43.10303" lon="3.03145">
        <ele>1</ele>
        <time>2018-08-28T19:48:02+02:00</time>
      </trkpt>
      <trkpt lat="43.1028" lon="3.03156">
        <ele>1</ele>
        <time>2018-08-28T19:48:08+02:00</time>
      </trkpt>
      <trkpt lat="43.10255" lon="3.03161">
        <ele>1</ele>
        <time>2018-08-28T19:48:14+02:00</time>
      </trkpt>
      <trkpt lat="43.10229" lon="3.03159">
        <ele>1</ele>
        <time>2018-08-28T19:48:20+02:00</time>
      </trkpt>
      <trkpt lat="43.10204" lon="3.03149">
        <ele>1</ele>
        <time>2018-08-28T19:48:26+02:00</time>
      </trkpt>
      <trkpt lat="43.10183" lon="3.03135">
        <ele>1</ele>
        <time>2018-08-28T19:48:32+02:00</time>
      </trkpt>
      <trkpt lat="43.10162" lon="3.03121">
        <ele>1</ele>
        <time>2018-08-28T19:48:38+02:00</time>
      </trkpt>
      <trkpt lat="43.1014" lon="3.03108">
        <ele>1</ele>
        <time>2018-08-28T19:48:44+02:00</time>
      </trkpt>
      <trkpt lat="43.10118" lon="3.03093">
        <ele>1</ele>
        <time>2018-08-28T19:48:50+02:00</time>
      </trkpt>
      <trkpt lat="43.10094" lon="3.03083">
        <ele>1</ele>
        <time>2018-08-28T19:48:56+02:00</time>
      </trkpt>
      <trkpt lat="43.10068" lon="3.0308">
        <ele>1</ele>
        <time>2018-08-28T19:49:02+02:00</time>
      </trkpt>
      <trkpt lat="43.10042" lon="3.03078">
        <ele>1</ele>
        <time>2018-08-28T19:49:08+02:00</time>
      </trkpt>
      <trkpt lat="43.10018" lon="3.03078">
        <ele>1</ele>
        <time>2018-08-28T19:49:14+02:00</time>
      </trkpt>
      <trkpt lat="43.09994" lon="3.03075">
        <ele>1</ele>
        <time>2018-08-28T19:49:20+02:00</time>
      </trkpt>
      <trkpt lat="43.0997" lon="3.03072">
        <ele>1</ele>
        <time>2018-08-28T19:49:26+02:00</time>
      </trkpt>
      <trkpt lat="43.09944" lon="3.03069">
        <ele>1</ele>
        <time>2018-08-28T19:49:32+02:00</time>
      </trkpt>
      <trkpt lat="43.09921" lon="3.03063">
        <ele>1</ele>
        <time>2018-08-28T19:49:38+02:00</time>
      </trkpt>
      <trkpt lat="43.099" lon="3.03047">
        <ele>1</ele>
        <time>2018-08-28T19:49:44+02:00</time>
      </trkpt>
      <trkpt lat="43.09879" lon="3.03032">
        <ele>1</ele>
        <time>2018-08-28T19:49:50+02:00</time>
      </trkpt>
      <trkpt lat="43.09853" lon="3.0302">
        <ele>1</ele>
        <time>2018-08-28T19:49:56+02:00</time>
      </trkpt>
      <trkpt lat="43.09827" lon="3.03021">
        <ele>1</ele>
        <time>2018-08-28T19:50:02+02:00</time>
      </trkpt>
      <trkpt lat="43.09802" lon="3.0303">
        <ele>1</ele>
        <time>2018-08-28T19:50:08+02:00</time>
      </trkpt>
      <trkpt lat="43.09779" lon="3.03048">
        <ele>1</ele>
        <time>2018-08-28T19:50:14+02:00</time>
      </trkpt>
      <trkpt lat="43.09755" lon="3.03063">
        <ele>1</ele>
        <time>2018-08-28T19:50:20+02:00</time>
      </trkpt>
      <trkpt lat="43.09732" lon="3.03076">
        <ele>1</ele>
        <time>2018-08-28T19:50:26+02:00</time>
      </trkpt>
      <trkpt lat="43.09707" lon="3.03078">
        <ele>1</ele>
        <time>2018-08-28T19:50:32+02:00</time>
      </trkpt>
      <trkpt lat="43.0968" lon="3.03078">
        <ele>1</ele>
        <time>2018-08-28T19:50:38+02:00</time>
      </trkpt>
      <trkpt lat="43.09656" lon="3.03075">
        <ele>1</ele>
        <time>2018-08-28T19:50:44+02:00</time>
      </trkpt>
      <trkpt lat="43.09632" lon="3.03061">
        <ele>1</ele>
        <time>2018-08-28T19:50:50+02:00</time>
      </trkpt>
      <trkpt lat="43.0961" lon="3.03049">
        <ele>1</ele>
        <time>2018-08-28T19:50:56+02:00</time>
      </trkpt>
      <trkpt lat="43.09586" lon="3.03048">
        <ele>1</ele>
        <time>2018-08-28T19:51:02+02:00</time>
      </trkpt>
      <trkpt lat="43.09561" lon="3.03055">
        <ele>1</ele>
        <time>2018-08-28T19:51:08+02:00</time>
      </trkpt>
      <trkpt lat="43.09537" lon="3.03065">
        <ele>1</ele>
        <time>2018-08-28T19:51:14+02:00</time>
      </trkpt>
      <trkpt lat="43.09513" lon="3.03077">
        <ele>1</ele>
        <time>2018-08-28T19:51:20+02:00</time>
      </trkpt>
      <trkpt lat="43.0949" lon="3.03092">
        <ele>1</ele>
        <time>2018-08-28T19:51:26+02:00</time>
      </trkpt>
      <trkpt lat="43.09466" lon="3.03107">
        <ele>1</ele>
        <time>2018-08-28T19:51:32+02:00</time>
      </trkpt>
      <trkpt lat="43.09442" lon="3.0311">
        <ele>1</ele>
        <time>2018-08-28T19:51:38+02:00</time>
      </trkpt>
      <trkpt lat="43.09417" lon="3.03104">
        <ele>1</ele>
        <time>2018-08-28T19:51:44+02:00</time>
      </trkpt>
      <trkpt lat="43.09392" lon="3.03096">
        <ele>1</ele>
        <time>2018-08-28T19:51:50+02:00</time>
      </trkpt>
      <trkpt lat="43.09368" lon="3.03085">
        <ele>1</ele>
        <time>2018-08-28T19:51:56+02:00</time>
      </trkpt>
      <trkpt lat="43.09344" lon="3.03073">
        <ele>1</ele>
        <time>2018-08-28T19:52:02+02:00</time>
      </trkpt>
      <trkpt lat="43.09316" lon="3.03065">
        <ele>1</ele>
        <time>2018-08-28T19:52:09+02:00</time>
      </trkpt>
      <trkpt lat="43.09291" lon="3.03069">
        <ele>1</ele>
        <time>2018-08-28T19:52:15+02:00</time>
      </trkpt>
      <trkpt lat="43.09266" lon="3.03079">
        <ele>1</ele>
        <time>2018-08-28T19:52:21+02:00</time>
      </trkpt>
      <trkpt lat="43.09243" lon="3.03097">
        <ele>1</ele>
        <time>2018-08-28T19:52:27+02:00</time>
      </trkpt>
      <trkpt lat="43.09224" lon="3.03113">
        <ele>1</ele>
        <time>2018-08-28T19:52:32+02:00</time>
      </trkpt>
      <trkpt lat="43.092" lon="3.03131">
        <ele>1</ele>
        <time>2018-08-28T19:52:38+02:00</time>
      </trkpt>
      <trkpt lat="43.09179" lon="3.03142">
        <ele>1</ele>
        <time>2018-08-28T19:52:43+02:00</time>
      </trkpt>
      <trkpt lat="43.09154" lon="3.03145">
        <ele>1</ele>
        <time>2018-08-28T19:52:49+02:00</time>
      </trkpt>
      <trkpt lat="43.09129" lon="3.03141">
        <ele>1</ele>
        <time>2018-08-28T19:52:55+02:00</time>
      </trkpt>
      <trkpt lat="43.09105" lon="3.03134">
        <ele>1</ele>
        <time>2018-08-28T19:53:01+02:00</time>
      </trkpt>
      <trkpt lat="43.09082" lon="3.03131">
        <ele>1</ele>
        <time>2018-08-28T19:53:06+02:00</time>
      </trkpt>
      <trkpt lat="43.09057" lon="3.03124">
        <ele>1</ele>
        <time>2018-08-28T19:53:12+02:00</time>
      </trkpt>
      <trkpt lat="43.09032" lon="3.03119">
        <ele>1</ele>
        <time>2018-08-28T19:53:18+02:00</time>
      </trkpt>
      <trkpt lat="43.09007" lon="3.03114">
        <ele>1</ele>
        <time>2018-08-28T19:53:24+02:00</time>
      </trkpt>
      <trkpt lat="43.08981" lon="3.03113">
        <ele>1</ele>
        <time>2018-08-28T19:53:30+02:00</time>
      </trkpt>
      <trkpt lat="43.08956" lon="3.03111">
        <ele>1</ele>
        <time>2018-08-28T19:53:36+02:00</time>
      </trkpt>
      <trkpt lat="43.0893" lon="3.0311">
        <ele>1</ele>
        <time>2018-08-28T19:53:42+02:00</time>
      </trkpt>
      <trkpt lat="43.08905" lon="3.03108">
        <ele>1</ele>
        <time>2018-08-28T19:53:48+02:00</time>
      </trkpt>
      <trkpt lat="43.08879" lon="3.03106">
        <ele>1</ele>
        <time>2018-08-28T19:53:54+02:00</time>
      </trkpt>
      <trkpt lat="43.08856" lon="3.03098">
        <ele>1</ele>
        <time>2018-08-28T19:54:00+02:00</time>
      </trkpt>
      <trkpt lat="43.08833" lon="3.03084">
        <ele>1</ele>
        <time>2018-08-28T19:54:06+02:00</time>
      </trkpt>
      <trkpt lat="43.0881" lon="3.0307">
        <ele>1</ele>
        <time>2018-08-28T19:54:12+02:00</time>
      </trkpt>
      <trkpt lat="43.08789" lon="3.03052">
        <ele>1</ele>
        <time>2018-08-28T19:54:18+02:00</time>
      </trkpt>
      <trkpt lat="43.08765" lon="3.03038">
        <ele>1</ele>
        <time>2018-08-28T19:54:24+02:00</time>
      </trkpt>
      <trkpt lat="43.08741" lon="3.03026">
        <ele>1</ele>
        <time>2018-08-28T19:54:30+02:00</time>
      </trkpt>
      <trkpt lat="43.08715" lon="3.03017">
        <ele>1</ele>
        <time>2018-08-28T19:54:36+02:00</time>
      </trkpt>
      <trkpt lat="43.08689" lon="3.0301">
        <ele>1</ele>
        <time>2018-08-28T19:54:42+02:00</time>
      </trkpt>
      <trkpt lat="43.08664" lon="3.03001">
        <ele>1</ele>
        <time>2018-08-28T19:54:48+02:00</time>
      </trkpt>
      <trkpt lat="43.08639" lon="3.02996">
        <ele>1</ele>
        <time>2018-08-28T19:54:54+02:00</time>
      </trkpt>
      <trkpt lat="43.08615" lon="3.02991">
        <ele>1</ele>
        <time>2018-08-28T19:55:00+02:00</time>
      </trkpt>
      <trkpt lat="43.08591" lon="3.02984">
        <ele>1</ele>
        <time>2018-08-28T19:55:06+02:00</time>
      </trkpt>
      <trkpt lat="43.08566" lon="3.02976">
        <ele>1</ele>
        <time>2018-08-28T19:55:12+02:00</time>
      </trkpt>
      <trkpt lat="43.08542" lon="3.02965">
        <ele>1</ele>
        <time>2018-08-28T19:55:18+02:00</time>
      </trkpt>
      <trkpt lat="43.08516" lon="3.02958">
        <ele>1</ele>
        <time>2018-08-28T19:55:24+02:00</time>
      </trkpt>
      <trkpt lat="43.0849" lon="3.02954">
        <ele>1</ele>
        <time>2018-08-28T19:55:30+02:00</time>
      </trkpt>
      <trkpt lat="43.08465" lon="3.02952">
        <ele>1</ele>
        <time>2018-08-28T19:55:36+02:00</time>
      </trkpt>
      <trkpt lat="43.08442" lon="3.02949">
        <ele>1</ele>
        <time>2018-08-28T19:55:41+02:00</time>
      </trkpt>
      <trkpt lat="43.08417" lon="3.02939">
        <ele>1</ele>
        <time>2018-08-28T19:55:47+02:00</time>
      </trkpt>
      <trkpt lat="43.08394" lon="3.02924">
        <ele>1</ele>
        <time>2018-08-28T19:55:53+02:00</time>
      </trkpt>
      <trkpt lat="43.08375" lon="3.02905">
        <ele>1</ele>
        <time>2018-08-28T19:55:58+02:00</time>
      </trkpt>
      <trkpt lat="43.08354" lon="3.02883">
        <ele>1</ele>
        <time>2018-08-28T19:56:04+02:00</time>
      </trkpt>
      <trkpt lat="43.08329" lon="3.02858">
        <ele>1</ele>
        <time>2018-08-28T19:56:11+02:00</time>
      </trkpt>
      <trkpt lat="43.08307" lon="3.0284">
        <ele>1</ele>
        <time>2018-08-28T19:56:17+02:00</time>
      </trkpt>
      <trkpt lat="43.08284" lon="3.02829">
        <ele>1</ele>
        <time>2018-08-28T19:56:22+02:00</time>
      </trkpt>
      <trkpt lat="43.08263" lon="3.02818">
        <ele>1</ele>
        <time>2018-08-28T19:56:27+02:00</time>
      </trkpt>
      <trkpt lat="43.08242" lon="3.02804">
        <ele>1</ele>
        <time>2018-08-28T19:56:32+02:00</time>
      </trkpt>
      <trkpt lat="43.08221" lon="3.02791">
        <ele>1</ele>
        <time>2018-08-28T19:56:37+02:00</time>
      </trkpt>
      <trkpt lat="43.08199" lon="3.02775">
        <ele>1</ele>
        <time>2018-08-28T19:56:42+02:00</time>
      </trkpt>
      <trkpt lat="43.08177" lon="3.02757">
        <ele>1</ele>
        <time>2018-08-28T19:56:48+02:00</time>
      </trkpt>
      <trkpt lat="43.08154" lon="3.02739">
        <ele>1</ele>
        <time>2018-08-28T19:56:54+02:00</time>
      </trkpt>
      <trkpt lat="43.08131" lon="3.02721">
        <ele>1</ele>
        <time>2018-08-28T19:57:00+02:00</time>
      </trkpt>
      <trkpt lat="43.08108" lon="3.02704">
        <ele>1</ele>
        <time>2018-08-28T19:57:06+02:00</time>
      </trkpt>
      <trkpt lat="43.08085" lon="3.02688">
        <ele>1</ele>
        <time>2018-08-28T19:57:12+02:00</time>
      </trkpt>
      <trkpt lat="43.08061" lon="3.02669">
        <ele>1</ele>
        <time>2018-08-28T19:57:18+02:00</time>
      </trkpt>
      <trkpt lat="43.08041" lon="3.02654">
        <ele>1</ele>
        <time>2018-08-28T19:57:23+02:00</time>
      </trkpt>
      <trkpt lat="43.08018" lon="3.02636">
        <ele>1</ele>
        <time>2018-08-28T19:57:29+02:00</time>
      </trkpt>
      <trkpt lat="43.07995" lon="3.02619">
        <ele>1</ele>
        <time>2018-08-28T19:57:35+02:00</time>
      </trkpt>
      <trkpt lat="43.07976" lon="3.02604">
        <ele>1</ele>
        <time>2018-08-28T19:57:40+02:00</time>
      </trkpt>
      <trkpt lat="43.07953" lon="3.02586">
        <ele>1</ele>
        <time>2018-08-28T19:57:46+02:00</time>
      </trkpt>
      <trkpt lat="43.0793" lon="3.02568">
        <ele>1</ele>
        <time>2018-08-28T19:57:52+02:00</time>
      </trkpt>
      <trkpt lat="43.07907" lon="3.02551">
        <ele>1</ele>
        <time>2018-08-28T19:57:58+02:00</time>
      </trkpt>
      <trkpt lat="43.07888" lon="3.02535">
        <ele>1</ele>
        <time>2018-08-28T19:58:03+02:00</time>
      </trkpt>
      <trkpt lat="43.07864" lon="3.02518">
        <ele>1</ele>
        <time>2018-08-28T19:58:09+02:00</time>
      </trkpt>
      <trkpt lat="43.07842" lon="3.02501">
        <ele>1</ele>
        <time>2018-08-28T19:58:15+02:00</time>
      </trkpt>
      <trkpt lat="43.07819" lon="3.02484">
        <ele>1</ele>
        <time>2018-08-28T19:58:21+02:00</time>
      </trkpt>
      <trkpt lat="43.07798" lon="3.02467">
        <ele>1</ele>
        <time>2018-08-28T19:58:27+02:00</time>
      </trkpt>
      <trkpt lat="43.07776" lon="3.02451">
        <ele>1</ele>
        <time>2018-08-28T19:58:33+02:00</time>
      </trkpt>
      <trkpt lat="43.07753" lon="3.02436">
        <ele>1</ele>
        <time>2018-08-28T19:58:39+02:00</time>
      </trkpt>
      <trkpt lat="43.07729" lon="3.02424">
        <ele>1</ele>
        <time>2018-08-28T19:58:45+02:00</time>
      </trkpt>
      <trkpt lat="43.07704" lon="3.02415">
        <ele>1</ele>
        <time>2018-08-28T19:58:51+02:00</time>
      </trkpt>
      <trkpt lat="43.07678" lon="3.02408">
        <ele>1</ele>
        <time>2018-08-28T19:58:57+02:00</time>
      </trkpt>
      <trkpt lat="43.07652" lon="3.02402">
        <ele>1</ele>
        <time>2018-08-28T19:59:03+02:00</time>
      </trkpt>
      <trkpt lat="43.07626" lon="3.02401">
        <ele>1</ele>
        <time>2018-08-28T19:59:09+02:00</time>
      </trkpt>
      <trkpt lat="43.076" lon="3.02399">
        <ele>1</ele>
        <time>2018-08-28T19:59:15+02:00</time>
      </trkpt>
      <trkpt lat="43.07577" lon="3.02394">
        <ele>1</ele>
        <time>2018-08-28T19:59:20+02:00</time>
      </trkpt>
      <trkpt lat="43.07552" lon="3.02382">
        <ele>1</ele>
        <time>2018-08-28T19:59:26+02:00</time>
      </trkpt>
      <trkpt lat="43.07531" lon="3.02369">
        <ele>1</ele>
        <time>2018-08-28T19:59:31+02:00</time>
      </trkpt>
      <trkpt lat="43.07511" lon="3.02354">
        <ele>1</ele>
        <time>2018-08-28T19:59:36+02:00</time>
      </trkpt>
      <trkpt lat="43.07489" lon="3.02337">
        <ele>1</ele>
        <time>2018-08-28T19:59:42+02:00</time>
      </trkpt>
      <trkpt lat="43.07469" lon="3.0232">
        <ele>1</ele>
        <time>2018-08-28T19:59:48+02:00</time>
      </trkpt>
      <trkpt lat="43.07447" lon="3.02307">
        <ele>1</ele>
        <time>2018-08-28T19:59:54+02:00</time>
      </trkpt>
      <trkpt lat="43.07424" lon="3.02296">
        <ele>1</ele>
        <time>2018-08-28T20:00:01+02:00</time>
      </trkpt>
      <trkpt lat="43.07403" lon="3.02285">
        <ele>1</ele>
        <time>2018-08-28T20:00:09+02:00</time>
      </trkpt>
      <trkpt lat="43.07379" lon="3.02275">
        <ele>1</ele>
        <time>2018-08-28T20:00:17+02:00</time>
      </trkpt>
      <trkpt lat="43.07354" lon="3.02271">
        <ele>1</ele>
        <time>2018-08-28T20:00:24+02:00</time>
      </trkpt>
      <trkpt lat="43.07332" lon="3.02276">
        <ele>1</ele>
        <time>2018-08-28T20:00:32+02:00</time>
      </trkpt>
      <trkpt lat="43.0731" lon="3.02292">
        <ele>1</ele>
        <time>2018-08-28T20:00:39+02:00</time>
      </trkpt>
      <trkpt lat="43.07292" lon="3.02316">
        <ele>1</ele>
        <time>2018-08-28T20:00:46+02:00</time>
      </trkpt>
      <trkpt lat="43.0728" lon="3.02344">
        <ele>1</ele>
        <time>2018-08-28T20:00:53+02:00</time>
      </trkpt>
      <trkpt lat="43.07267" lon="3.02375">
        <ele>1</ele>
        <time>2018-08-28T20:01:00+02:00</time>
      </trkpt>
      <trkpt lat="43.07256" lon="3.02404">
        <ele>1</ele>
        <time>2018-08-28T20:01:06+02:00</time>
      </trkpt>
      <trkpt lat="43.07244" lon="3.02435">
        <ele>1</ele>
        <time>2018-08-28T20:01:12+02:00</time>
      </trkpt>
      <trkpt lat="43.0723" lon="3.02465">
        <ele>1</ele>
        <time>2018-08-28T20:01:19+02:00</time>
      </trkpt>
      <trkpt lat="43.07216" lon="3.02488">
        <ele>1</ele>
        <time>2018-08-28T20:01:25+02:00</time>
      </trkpt>
      <trkpt lat="43.07199" lon="3.02512">
        <ele>1</ele>
        <time>2018-08-28T20:01:31+02:00</time>
      </trkpt>
      <trkpt lat="43.07182" lon="3.02532">
        <ele>1</ele>
        <time>2018-08-28T20:01:37+02:00</time>
      </trkpt>
      <trkpt lat="43.07165" lon="3.02558">
        <ele>1</ele>
        <time>2018-08-28T20:01:43+02:00</time>
      </trkpt>
      <trkpt lat="43.07149" lon="3.02581">
        <ele>1</ele>
        <time>2018-08-28T20:01:49+02:00</time>
      </trkpt>
      <trkpt lat="43.07135" lon="3.02606">
        <ele>1</ele>
        <time>2018-08-28T20:01:55+02:00</time>
      </trkpt>
      <trkpt lat="43.07121" lon="3.02632">
        <ele>1</ele>
        <time>2018-08-28T20:02:01+02:00</time>
      </trkpt>
      <trkpt lat="43.07107" lon="3.02656">
        <ele>1</ele>
        <time>2018-08-28T20:02:07+02:00</time>
      </trkpt>
      <trkpt lat="43.07088" lon="3.02683">
        <ele>1</ele>
        <time>2018-08-28T20:02:14+02:00</time>
      </trkpt>
      <trkpt lat="43.0707" lon="3.02709">
        <ele>1</ele>
        <time>2018-08-28T20:02:21+02:00</time>
      </trkpt>
      <trkpt lat="43.07055" lon="3.02732">
        <ele>1</ele>
        <time>2018-08-28T20:02:27+02:00</time>
      </trkpt>
      <trkpt lat="43.07039" lon="3.02758">
        <ele>1</ele>
        <time>2018-08-28T20:02:33+02:00</time>
      </trkpt>
      <trkpt lat="43.07024" lon="3.02783">
        <ele>1</ele>
        <time>2018-08-28T20:02:39+02:00</time>
      </trkpt>
      <trkpt lat="43.07003" lon="3.02803">
        <ele>1</ele>
        <time>2018-08-28T20:02:46+02:00</time>
      </trkpt>
      <trkpt lat="43.06985" lon="3.02822">
        <ele>1</ele>
        <time>2018-08-28T20:02:52+02:00</time>
      </trkpt>
      <trkpt lat="43.06965" lon="3.02843">
        <ele>1</ele>
        <time>2018-08-28T20:02:58+02:00</time>
      </trkpt>
      <trkpt lat="43.06942" lon="3.02862">
        <ele>1</ele>
        <time>2018-08-28T20:03:05+02:00</time>
      </trkpt>
      <trkpt lat="43.06922" lon="3.02879">
        <ele>1</ele>
        <time>2018-08-28T20:03:11+02:00</time>
      </trkpt>
      <trkpt lat="43.069" lon="3.029">
        <ele>1</ele>
        <time>2018-08-28T20:03:18+02:00</time>
      </trkpt>
      <trkpt lat="43.06879" lon="3.0292">
        <ele>1</ele>
        <time>2018-08-28T20:03:25+02:00</time>
      </trkpt>
      <trkpt lat="43.06861" lon="3.02942">
        <ele>1</ele>
        <time>2018-08-28T20:03:31+02:00</time>
      </trkpt>
      <trkpt lat="43.06842" lon="3.02959">
        <ele>1</ele>
        <time>2018-08-28T20:03:37+02:00</time>
      </trkpt>
      <trkpt lat="43.06822" lon="3.02976">
        <ele>1</ele>
        <time>2018-08-28T20:03:43+02:00</time>
      </trkpt>
      <trkpt lat="43.06801" lon="3.02988">
        <ele>1</ele>
        <time>2018-08-28T20:03:49+02:00</time>
      </trkpt>
      <trkpt lat="43.0678" lon="3.03">
        <ele>1</ele>
        <time>2018-08-28T20:03:55+02:00</time>
      </trkpt>
      <trkpt lat="43.06758" lon="3.03013">
        <ele>1</ele>
        <time>2018-08-28T20:04:01+02:00</time>
      </trkpt>
      <trkpt lat="43.06736" lon="3.03027">
        <ele>1</ele>
        <time>2018-08-28T20:04:07+02:00</time>
      </trkpt>
      <trkpt lat="43.06715" lon="3.03045">
        <ele>1</ele>
        <time>2018-08-28T20:04:13+02:00</time>
      </trkpt>
      <trkpt lat="43.06693" lon="3.03062">
        <ele>1</ele>
        <time>2018-08-28T20:04:19+02:00</time>
      </trkpt>
      <trkpt lat="43.0667" lon="3.03079">
        <ele>1</ele>
        <time>2018-08-28T20:04:25+02:00</time>
      </trkpt>
      <trkpt lat="43.06646" lon="3.03094">
        <ele>1</ele>
        <time>2018-08-28T20:04:31+02:00</time>
      </trkpt>
      <trkpt lat="43.06622" lon="3.03105">
        <ele>1</ele>
        <time>2018-08-28T20:04:37+02:00</time>
      </trkpt>
      <trkpt lat="43.06598" lon="3.03116">
        <ele>1</ele>
        <time>2018-08-28T20:04:43+02:00</time>
      </trkpt>
      <trkpt lat="43.06573" lon="3.03129">
        <ele>1</ele>
        <time>2018-08-28T20:04:49+02:00</time>
      </trkpt>
      <trkpt lat="43.06551" lon="3.03148">
        <ele>1</ele>
        <time>2018-08-28T20:04:55+02:00</time>
      </trkpt>
      <trkpt lat="43.06531" lon="3.03168">
        <ele>1</ele>
        <time>2018-08-28T20:05:01+02:00</time>
      </trkpt>
      <trkpt lat="43.06511" lon="3.03187">
        <ele>1</ele>
        <time>2018-08-28T20:05:07+02:00</time>
      </trkpt>
      <trkpt lat="43.06492" lon="3.0321">
        <ele>1</ele>
        <time>2018-08-28T20:05:13+02:00</time>
      </trkpt>
      <trkpt lat="43.06473" lon="3.03229">
        <ele>1</ele>
        <time>2018-08-28T20:05:18+02:00</time>
      </trkpt>
      <trkpt lat="43.06452" lon="3.03246">
        <ele>1</ele>
        <time>2018-08-28T20:05:24+02:00</time>
      </trkpt>
      <trkpt lat="43.06431" lon="3.03265">
        <ele>1</ele>
        <time>2018-08-28T20:05:30+02:00</time>
      </trkpt>
      <trkpt lat="43.06408" lon="3.03281">
        <ele>1</ele>
        <time>2018-08-28T20:05:36+02:00</time>
      </trkpt>
      <trkpt lat="43.06387" lon="3.03301">
        <ele>1</ele>
        <time>2018-08-28T20:05:42+02:00</time>
      </trkpt>
      <trkpt lat="43.06365" lon="3.03318">
        <ele>1</ele>
        <time>2018-08-28T20:05:48+02:00</time>
      </trkpt>
      <trkpt lat="43.06344" lon="3.03336">
        <ele>1</ele>
        <time>2018-08-28T20:05:54+02:00</time>
      </trkpt>
      <trkpt lat="43.06323" lon="3.03353">
        <ele>1</ele>
        <time>2018-08-28T20:06:00+02:00</time>
      </trkpt>
      <trkpt lat="43.063" lon="3.03368">
        <ele>1</ele>
        <time>2018-08-28T20:06:06+02:00</time>
      </trkpt>
      <trkpt lat="43.06281" lon="3.03389">
        <ele>1</ele>
        <time>2018-08-28T20:06:12+02:00</time>
      </trkpt>
      <trkpt lat="43.06263" lon="3.03409">
        <ele>1</ele>
        <time>2018-08-28T20:06:18+02:00</time>
      </trkpt>
      <trkpt lat="43.06244" lon="3.03428">
        <ele>1</ele>
        <time>2018-08-28T20:06:24+02:00</time>
      </trkpt>
      <trkpt lat="43.06225" lon="3.03448">
        <ele>1</ele>
        <time>2018-08-28T20:06:30+02:00</time>
      </trkpt>
      <trkpt lat="43.06209" lon="3.0347">
        <ele>1</ele>
        <time>2018-08-28T20:06:36+02:00</time>
      </trkpt>
      <trkpt lat="43.06193" lon="3.03494">
        <ele>1</ele>
        <time>2018-08-28T20:06:42+02:00</time>
      </trkpt>
      <trkpt lat="43.06177" lon="3.03518">
        <ele>1</ele>
        <time>2018-08-28T20:06:48+02:00</time>
      </trkpt>
      <trkpt lat="43.06162" lon="3.03543">
        <ele>1</ele>
        <time>2018-08-28T20:06:54+02:00</time>
      </trkpt>
      <trkpt lat="43.06145" lon="3.03567">
        <ele>1</ele>
        <time>2018-08-28T20:07:00+02:00</time>
      </trkpt>
      <trkpt lat="43.06129" lon="3.03593">
        <ele>1</ele>
        <time>2018-08-28T20:07:06+02:00</time>
      </trkpt>
      <trkpt lat="43.06111" lon="3.03616">
        <ele>1</ele>
        <time>2018-08-28T20:07:12+02:00</time>
      </trkpt>
      <trkpt lat="43.06096" lon="3.03644">
        <ele>1</ele>
        <time>2018-08-28T20:07:18+02:00</time>
      </trkpt>
      <trkpt lat="43.06078" lon="3.03668">
        <ele>1</ele>
        <time>2018-08-28T20:07:24+02:00</time>
      </trkpt>
      <trkpt lat="43.06063" lon="3.03695">
        <ele>1</ele>
        <time>2018-08-28T20:07:30+02:00</time>
      </trkpt>
      <trkpt lat="43.06047" lon="3.03718">
        <ele>1</ele>
        <time>2018-08-28T20:07:36+02:00</time>
      </trkpt>
      <trkpt lat="43.0603" lon="3.03747">
        <ele>1</ele>
        <time>2018-08-28T20:07:42+02:00</time>
      </trkpt>
      <trkpt lat="43.06016" lon="3.03773">
        <ele>1</ele>
        <time>2018-08-28T20:07:48+02:00</time>
      </trkpt>
      <trkpt lat="43.05999" lon="3.03798">
        <ele>1</ele>
        <time>2018-08-28T20:07:54+02:00</time>
      </trkpt>
      <trkpt lat="43.05983" lon="3.03823">
        <ele>1</ele>
        <time>2018-08-28T20:08:00+02:00</time>
      </trkpt>
      <trkpt lat="43.05967" lon="3.03851">
        <ele>1</ele>
        <time>2018-08-28T20:08:06+02:00</time>
      </trkpt>
      <trkpt lat="43.05949" lon="3.03878">
        <ele>1</ele>
        <time>2018-08-28T20:08:12+02:00</time>
      </trkpt>
      <trkpt lat="43.05933" lon="3.03904">
        <ele>1</ele>
        <time>2018-08-28T20:08:18+02:00</time>
      </trkpt>
      <trkpt lat="43.05916" lon="3.03928">
        <ele>1</ele>
        <time>2018-08-28T20:08:24+02:00</time>
      </trkpt>
      <trkpt lat="43.05899" lon="3.03952">
        <ele>1</ele>
        <time>2018-08-28T20:08:30+02:00</time>
      </trkpt>
      <trkpt lat="43.05884" lon="3.03978">
        <ele>1.1</ele>
        <time>2018-08-28T20:08:36+02:00</time>
      </trkpt>
      <trkpt lat="43.05868" lon="3.04004">
        <ele>1</ele>
        <time>2018-08-28T20:08:42+02:00</time>
      </trkpt>
      <trkpt lat="43.05851" lon="3.04029">
        <ele>1</ele>
        <time>2018-08-28T20:08:48+02:00</time>
      </trkpt>
      <trkpt lat="43.05835" lon="3.04055">
        <ele>1</ele>
        <time>2018-08-28T20:08:54+02:00</time>
      </trkpt>
      <trkpt lat="43.05819" lon="3.04081">
        <ele>1</ele>
        <time>2018-08-28T20:09:00+02:00</time>
      </trkpt>
      <trkpt lat="43.05804" lon="3.04107">
        <ele>1</ele>
        <time>2018-08-28T20:09:06+02:00</time>
      </trkpt>
      <trkpt lat="43.05786" lon="3.04132">
        <ele>1</ele>
        <time>2018-08-28T20:09:13+02:00</time>
      </trkpt>
      <trkpt lat="43.05772" lon="3.04157">
        <ele>1</ele>
        <time>2018-08-28T20:09:19+02:00</time>
      </trkpt>
      <trkpt lat="43.05756" lon="3.04181">
        <ele>1</ele>
        <time>2018-08-28T20:09:25+02:00</time>
      </trkpt>
      <trkpt lat="43.05739" lon="3.04208">
        <ele>1</ele>
        <time>2018-08-28T20:09:32+02:00</time>
      </trkpt>
      <trkpt lat="43.05723" lon="3.04233">
        <ele>1</ele>
        <time>2018-08-28T20:09:38+02:00</time>
      </trkpt>
      <trkpt lat="43.05707" lon="3.04258">
        <ele>1</ele>
        <time>2018-08-28T20:09:44+02:00</time>
      </trkpt>
      <trkpt lat="43.05691" lon="3.04281">
        <ele>1</ele>
        <time>2018-08-28T20:09:50+02:00</time>
      </trkpt>
      <trkpt lat="43.05675" lon="3.04309">
        <ele>1</ele>
        <time>2018-08-28T20:09:57+02:00</time>
      </trkpt>
      <trkpt lat="43.05662" lon="3.04339">
        <ele>1</ele>
        <time>2018-08-28T20:10:04+02:00</time>
      </trkpt>
      <trkpt lat="43.05654" lon="3.04368">
        <ele>1</ele>
        <time>2018-08-28T20:11:24+02:00</time>
      </trkpt>
      <trkpt lat="43.05648" lon="3.04399">
        <ele>1</ele>
        <time>2018-08-28T20:11:30+02:00</time>
      </trkpt>
      <trkpt lat="43.05639" lon="3.0443">
        <ele>1</ele>
        <time>2018-08-28T20:11:36+02:00</time>
      </trkpt>
      <trkpt lat="43.05632" lon="3.04465">
        <ele>1</ele>
        <time>2018-08-28T20:11:42+02:00</time>
      </trkpt>
      <trkpt lat="43.05625" lon="3.04498">
        <ele>1</ele>
        <time>2018-08-28T20:11:49+02:00</time>
      </trkpt>
      <trkpt lat="43.05621" lon="3.04532">
        <ele>1</ele>
        <time>2018-08-28T20:11:55+02:00</time>
      </trkpt>
      <trkpt lat="43.05619" lon="3.04563">
        <ele>1</ele>
        <time>2018-08-28T20:12:01+02:00</time>
      </trkpt>
      <trkpt lat="43.05616" lon="3.04597">
        <ele>1</ele>
        <time>2018-08-28T20:12:07+02:00</time>
      </trkpt>
      <trkpt lat="43.05613" lon="3.0463">
        <ele>1</ele>
        <time>2018-08-28T20:12:13+02:00</time>
      </trkpt>
      <trkpt lat="43.05608" lon="3.04664">
        <ele>1</ele>
        <time>2018-08-28T20:12:19+02:00</time>
      </trkpt>
      <trkpt lat="43.05601" lon="3.04698">
        <ele>1.1</ele>
        <time>2018-08-28T20:12:25+02:00</time>
      </trkpt>
      <trkpt lat="43.05592" lon="3.04731">
        <ele>1</ele>
        <time>2018-08-28T20:12:31+02:00</time>
      </trkpt>
      <trkpt lat="43.05583" lon="3.0476">
        <ele>1</ele>
        <time>2018-08-28T20:12:36+02:00</time>
      </trkpt>
      <trkpt lat="43.05573" lon="3.04791">
        <ele>1</ele>
        <time>2018-08-28T20:12:42+02:00</time>
      </trkpt>
      <trkpt lat="43.05561" lon="3.04823">
        <ele>1</ele>
        <time>2018-08-28T20:12:48+02:00</time>
      </trkpt>
      <trkpt lat="43.0555" lon="3.0485">
        <ele>1</ele>
        <time>2018-08-28T20:12:53+02:00</time>
      </trkpt>
      <trkpt lat="43.05537" lon="3.0488">
        <ele>1</ele>
        <time>2018-08-28T20:12:59+02:00</time>
      </trkpt>
      <trkpt lat="43.05522" lon="3.04906">
        <ele>1</ele>
        <time>2018-08-28T20:13:05+02:00</time>
      </trkpt>
      <trkpt lat="43.05509" lon="3.04936">
        <ele>1</ele>
        <time>2018-08-28T20:13:11+02:00</time>
      </trkpt>
      <trkpt lat="43.05495" lon="3.04964">
        <ele>1</ele>
        <time>2018-08-28T20:13:17+02:00</time>
      </trkpt>
      <trkpt lat="43.05483" lon="3.04991">
        <ele>1</ele>
        <time>2018-08-28T20:13:23+02:00</time>
      </trkpt>
      <trkpt lat="43.05469" lon="3.05017">
        <ele>1</ele>
        <time>2018-08-28T20:13:29+02:00</time>
      </trkpt>
      <trkpt lat="43.05457" lon="3.05047">
        <ele>1</ele>
        <time>2018-08-28T20:13:35+02:00</time>
      </trkpt>
      <trkpt lat="43.05444" lon="3.05075">
        <ele>1</ele>
        <time>2018-08-28T20:13:41+02:00</time>
      </trkpt>
      <trkpt lat="43.05431" lon="3.05105">
        <ele>1</ele>
        <time>2018-08-28T20:13:47+02:00</time>
      </trkpt>
      <trkpt lat="43.05418" lon="3.05133">
        <ele>1</ele>
        <time>2018-08-28T20:13:53+02:00</time>
      </trkpt>
      <trkpt lat="43.05405" lon="3.05161">
        <ele>1</ele>
        <time>2018-08-28T20:13:59+02:00</time>
      </trkpt>
      <trkpt lat="43.05392" lon="3.05189">
        <ele>1</ele>
        <time>2018-08-28T20:14:05+02:00</time>
      </trkpt>
      <trkpt lat="43.05378" lon="3.05216">
        <ele>1</ele>
        <time>2018-08-28T20:14:11+02:00</time>
      </trkpt>
      <trkpt lat="43.05366" lon="3.05248">
        <ele>1</ele>
        <time>2018-08-28T20:14:17+02:00</time>
      </trkpt>
      <trkpt lat="43.05358" lon="3.05279">
        <ele>1</ele>
        <time>2018-08-28T20:14:23+02:00</time>
      </trkpt>
      <trkpt lat="43.05359" lon="3.05312">
        <ele>1</ele>
        <time>2018-08-28T20:14:29+02:00</time>
      </trkpt>
      <trkpt lat="43.05361" lon="3.05342">
        <ele>1</ele>
        <time>2018-08-28T20:14:35+02:00</time>
      </trkpt>
      <trkpt lat="43.05368" lon="3.05377">
        <ele>1</ele>
        <time>2018-08-28T20:14:42+02:00</time>
      </trkpt>
      <trkpt lat="43.05376" lon="3.05409">
        <ele>1</ele>
        <time>2018-08-28T20:14:49+02:00</time>
      </trkpt>
      <trkpt lat="43.05383" lon="3.05439">
        <ele>1</ele>
        <time>2018-08-28T20:14:55+02:00</time>
      </trkpt>
      <trkpt lat="43.0539" lon="3.05473">
        <ele>1</ele>
        <time>2018-08-28T20:15:02+02:00</time>
      </trkpt>
      <trkpt lat="43.05396" lon="3.05503">
        <ele>1</ele>
        <time>2018-08-28T20:15:08+02:00</time>
      </trkpt>
      <trkpt lat="43.05403" lon="3.05537">
        <ele>1</ele>
        <time>2018-08-28T20:15:15+02:00</time>
      </trkpt>
      <trkpt lat="43.05409" lon="3.05567">
        <ele>1</ele>
        <time>2018-08-28T20:15:21+02:00</time>
      </trkpt>
      <trkpt lat="43.05412" lon="3.05603">
        <ele>1</ele>
        <time>2018-08-28T20:15:27+02:00</time>
      </trkpt>
      <trkpt lat="43.0541" lon="3.05637">
        <ele>1</ele>
        <time>2018-08-28T20:15:33+02:00</time>
      </trkpt>
      <trkpt lat="43.05403" lon="3.05669">
        <ele>1</ele>
        <time>2018-08-28T20:15:39+02:00</time>
      </trkpt>
      <trkpt lat="43.05391" lon="3.05698">
        <ele>1</ele>
        <time>2018-08-28T20:15:45+02:00</time>
      </trkpt>
      <trkpt lat="43.05375" lon="3.05725">
        <ele>1</ele>
        <time>2018-08-28T20:15:52+02:00</time>
      </trkpt>
      <trkpt lat="43.05358" lon="3.05746">
        <ele>1</ele>
        <time>2018-08-28T20:15:58+02:00</time>
      </trkpt>
      <trkpt lat="43.05337" lon="3.05763">
        <ele>1</ele>
        <time>2018-08-28T20:16:04+02:00</time>
      </trkpt>
      <trkpt lat="43.05315" lon="3.05772">
        <ele>1</ele>
        <time>2018-08-28T20:16:10+02:00</time>
      </trkpt>
      <trkpt lat="43.0529" lon="3.05778">
        <ele>1</ele>
        <time>2018-08-28T20:16:17+02:00</time>
      </trkpt>
      <trkpt lat="43.05267" lon="3.05779">
        <ele>1</ele>
        <time>2018-08-28T20:16:23+02:00</time>
      </trkpt>
      <trkpt lat="43.05243" lon="3.05788">
        <ele>1</ele>
        <time>2018-08-28T20:16:29+02:00</time>
      </trkpt>
      <trkpt lat="43.05217" lon="3.05791">
        <ele>1</ele>
        <time>2018-08-28T20:16:35+02:00</time>
      </trkpt>
      <trkpt lat="43.05194" lon="3.05797">
        <ele>1</ele>
        <time>2018-08-28T20:16:41+02:00</time>
      </trkpt>
      <trkpt lat="43.05168" lon="3.05805">
        <ele>1</ele>
        <time>2018-08-28T20:16:48+02:00</time>
      </trkpt>
      <trkpt lat="43.05142" lon="3.05811">
        <ele>1</ele>
        <time>2018-08-28T20:16:54+02:00</time>
      </trkpt>
      <trkpt lat="43.05118" lon="3.05811">
        <ele>1</ele>
        <time>2018-08-28T20:17:00+02:00</time>
      </trkpt>
      <trkpt lat="43.05091" lon="3.05811">
        <ele>1</ele>
        <time>2018-08-28T20:17:07+02:00</time>
      </trkpt>
      <trkpt lat="43.05068" lon="3.05809">
        <ele>1</ele>
        <time>2018-08-28T20:17:13+02:00</time>
      </trkpt>
      <trkpt lat="43.05045" lon="3.05797">
        <ele>1</ele>
        <time>2018-08-28T20:17:19+02:00</time>
      </trkpt>
      <trkpt lat="43.05023" lon="3.05791">
        <ele>1</ele>
        <time>2018-08-28T20:17:24+02:00</time>
      </trkpt>
      <trkpt lat="43.05001" lon="3.05782">
        <ele>1</ele>
        <time>2018-08-28T20:17:30+02:00</time>
      </trkpt>
      <trkpt lat="43.0498" lon="3.05766">
        <ele>1</ele>
        <time>2018-08-28T20:17:36+02:00</time>
      </trkpt>
      <trkpt lat="43.04957" lon="3.05752">
        <ele>1</ele>
        <time>2018-08-28T20:17:42+02:00</time>
      </trkpt>
      <trkpt lat="43.04935" lon="3.05737">
        <ele>1</ele>
        <time>2018-08-28T20:17:49+02:00</time>
      </trkpt>
      <trkpt lat="43.04914" lon="3.05721">
        <ele>1</ele>
        <time>2018-08-28T20:17:55+02:00</time>
      </trkpt>
      <trkpt lat="43.0489" lon="3.05705">
        <ele>1</ele>
        <time>2018-08-28T20:18:02+02:00</time>
      </trkpt>
      <trkpt lat="43.04866" lon="3.0569">
        <ele>1</ele>
        <time>2018-08-28T20:18:09+02:00</time>
      </trkpt>
      <trkpt lat="43.04842" lon="3.05673">
        <ele>1</ele>
        <time>2018-08-28T20:18:16+02:00</time>
      </trkpt>
      <trkpt lat="43.04821" lon="3.05657">
        <ele>1</ele>
        <time>2018-08-28T20:18:22+02:00</time>
      </trkpt>
      <trkpt lat="43.04797" lon="3.05645">
        <ele>1</ele>
        <time>2018-08-28T20:18:28+02:00</time>
      </trkpt>
      <trkpt lat="43.04775" lon="3.05635">
        <ele>1</ele>
        <time>2018-08-28T20:18:34+02:00</time>
      </trkpt>
      <trkpt lat="43.04755" lon="3.05618">
        <ele>1</ele>
        <time>2018-08-28T20:18:40+02:00</time>
      </trkpt>
      <trkpt lat="43.04732" lon="3.05607">
        <ele>1</ele>
        <time>2018-08-28T20:18:46+02:00</time>
      </trkpt>
      <trkpt lat="43.04711" lon="3.05593">
        <ele>1</ele>
        <time>2018-08-28T20:18:52+02:00</time>
      </trkpt>
      <trkpt lat="43.0469" lon="3.05581">
        <ele>1</ele>
        <time>2018-08-28T20:18:58+02:00</time>
      </trkpt>
      <trkpt lat="43.04668" lon="3.05563">
        <ele>1</ele>
        <time>2018-08-28T20:19:05+02:00</time>
      </trkpt>
      <trkpt lat="43.04646" lon="3.05551">
        <ele>1</ele>
        <time>2018-08-28T20:19:11+02:00</time>
      </trkpt>
      <trkpt lat="43.04622" lon="3.05538">
        <ele>1</ele>
        <time>2018-08-28T20:19:17+02:00</time>
      </trkpt>
      <trkpt lat="43.04598" lon="3.05525">
        <ele>1</ele>
        <time>2018-08-28T20:19:23+02:00</time>
      </trkpt>
      <trkpt lat="43.04577" lon="3.05511">
        <ele>1</ele>
        <time>2018-08-28T20:19:29+02:00</time>
      </trkpt>
      <trkpt lat="43.04553" lon="3.05496">
        <ele>1</ele>
        <time>2018-08-28T20:19:35+02:00</time>
      </trkpt>
      <trkpt lat="43.04529" lon="3.05481">
        <ele>1</ele>
        <time>2018-08-28T20:19:41+02:00</time>
      </trkpt>
      <trkpt lat="43.04504" lon="3.05466">
        <ele>1</ele>
        <time>2018-08-28T20:19:47+02:00</time>
      </trkpt>
      <trkpt lat="43.04482" lon="3.05449">
        <ele>1</ele>
        <time>2018-08-28T20:19:53+02:00</time>
      </trkpt>
      <trkpt lat="43.04462" lon="3.05434">
        <ele>1</ele>
        <time>2018-08-28T20:19:58+02:00</time>
      </trkpt>
      <trkpt lat="43.04439" lon="3.05421">
        <ele>1</ele>
        <time>2018-08-28T20:20:04+02:00</time>
      </trkpt>
      <trkpt lat="43.04414" lon="3.05409">
        <ele>1</ele>
        <time>2018-08-28T20:20:10+02:00</time>
      </trkpt>
      <trkpt lat="43.04391" lon="3.05391">
        <ele>1</ele>
        <time>2018-08-28T20:20:16+02:00</time>
      </trkpt>
      <trkpt lat="43.04369" lon="3.05376">
        <ele>1</ele>
        <time>2018-08-28T20:20:22+02:00</time>
      </trkpt>
      <trkpt lat="43.04346" lon="3.05364">
        <ele>1</ele>
        <time>2018-08-28T20:20:28+02:00</time>
      </trkpt>
      <trkpt lat="43.04322" lon="3.05347">
        <ele>1</ele>
        <time>2018-08-28T20:20:34+02:00</time>
      </trkpt>
      <trkpt lat="43.043" lon="3.05333">
        <ele>1</ele>
        <time>2018-08-28T20:20:40+02:00</time>
      </trkpt>
      <trkpt lat="43.04276" lon="3.05323">
        <ele>1</ele>
        <time>2018-08-28T20:20:46+02:00</time>
      </trkpt>
      <trkpt lat="43.04255" lon="3.05312">
        <ele>1</ele>
        <time>2018-08-28T20:20:52+02:00</time>
      </trkpt>
      <trkpt lat="43.04236" lon="3.05292">
        <ele>1</ele>
        <time>2018-08-28T20:20:58+02:00</time>
      </trkpt>
      <trkpt lat="43.04212" lon="3.05279">
        <ele>1</ele>
        <time>2018-08-28T20:21:04+02:00</time>
      </trkpt>
      <trkpt lat="43.04192" lon="3.05266">
        <ele>1</ele>
        <time>2018-08-28T20:21:09+02:00</time>
      </trkpt>
      <trkpt lat="43.04169" lon="3.05251">
        <ele>1</ele>
        <time>2018-08-28T20:21:15+02:00</time>
      </trkpt>
      <trkpt lat="43.04145" lon="3.05236">
        <ele>1</ele>
        <time>2018-08-28T20:21:21+02:00</time>
      </trkpt>
      <trkpt lat="43.04121" lon="3.05219">
        <ele>1</ele>
        <time>2018-08-28T20:21:27+02:00</time>
      </trkpt>
      <trkpt lat="43.04097" lon="3.05202">
        <ele>1</ele>
        <time>2018-08-28T20:21:33+02:00</time>
      </trkpt>
      <trkpt lat="43.04072" lon="3.05188">
        <ele>1</ele>
        <time>2018-08-28T20:21:39+02:00</time>
      </trkpt>
      <trkpt lat="43.04051" lon="3.05179">
        <ele>1</ele>
        <time>2018-08-28T20:21:44+02:00</time>
      </trkpt>
      <trkpt lat="43.04027" lon="3.05164">
        <ele>1</ele>
        <time>2018-08-28T20:21:50+02:00</time>
      </trkpt>
      <trkpt lat="43.04003" lon="3.0515">
        <ele>1</ele>
        <time>2018-08-28T20:21:56+02:00</time>
      </trkpt>
      <trkpt lat="43.0398" lon="3.05136">
        <ele>1</ele>
        <time>2018-08-28T20:22:02+02:00</time>
      </trkpt>
      <trkpt lat="43.03959" lon="3.05122">
        <ele>1</ele>
        <time>2018-08-28T20:22:08+02:00</time>
      </trkpt>
      <trkpt lat="43.0394" lon="3.05106">
        <ele>1</ele>
        <time>2018-08-28T20:22:13+02:00</time>
      </trkpt>
      <trkpt lat="43.03915" lon="3.05089">
        <ele>1</ele>
        <time>2018-08-28T20:22:19+02:00</time>
      </trkpt>
      <trkpt lat="43.03894" lon="3.05075">
        <ele>1</ele>
        <time>2018-08-28T20:22:24+02:00</time>
      </trkpt>
      <trkpt lat="43.03874" lon="3.05062">
        <ele>1</ele>
        <time>2018-08-28T20:22:29+02:00</time>
      </trkpt>
      <trkpt lat="43.03853" lon="3.05048">
        <ele>1</ele>
        <time>2018-08-28T20:22:34+02:00</time>
      </trkpt>
      <trkpt lat="43.03829" lon="3.05034">
        <ele>1</ele>
        <time>2018-08-28T20:22:40+02:00</time>
      </trkpt>
      <trkpt lat="43.03808" lon="3.05022">
        <ele>1</ele>
        <time>2018-08-28T20:22:45+02:00</time>
      </trkpt>
      <trkpt lat="43.03788" lon="3.05009">
        <ele>1</ele>
        <time>2018-08-28T20:22:50+02:00</time>
      </trkpt>
      <trkpt lat="43.03767" lon="3.04994">
        <ele>1</ele>
        <time>2018-08-28T20:22:55+02:00</time>
      </trkpt>
      <trkpt lat="43.03746" lon="3.04983">
        <ele>1</ele>
        <time>2018-08-28T20:23:00+02:00</time>
      </trkpt>
      <trkpt lat="43.03726" lon="3.04969">
        <ele>1</ele>
        <time>2018-08-28T20:23:05+02:00</time>
      </trkpt>
      <trkpt lat="43.03706" lon="3.04955">
        <ele>1</ele>
        <time>2018-08-28T20:23:10+02:00</time>
      </trkpt>
      <trkpt lat="43.03684" lon="3.04941">
        <ele>1</ele>
        <time>2018-08-28T20:23:15+02:00</time>
      </trkpt>
      <trkpt lat="43.03663" lon="3.04927">
        <ele>1</ele>
        <time>2018-08-28T20:23:20+02:00</time>
      </trkpt>
      <trkpt lat="43.03642" lon="3.04911">
        <ele>1</ele>
        <time>2018-08-28T20:23:25+02:00</time>
      </trkpt>
      <trkpt lat="43.0362" lon="3.04901">
        <ele>1</ele>
        <time>2018-08-28T20:23:30+02:00</time>
      </trkpt>
      <trkpt lat="43.03597" lon="3.04883">
        <ele>1</ele>
        <time>2018-08-28T20:23:36+02:00</time>
      </trkpt>
      <trkpt lat="43.03576" lon="3.04868">
        <ele>1</ele>
        <time>2018-08-28T20:23:41+02:00</time>
      </trkpt>
      <trkpt lat="43.03555" lon="3.04855">
        <ele>1</ele>
        <time>2018-08-28T20:23:46+02:00</time>
      </trkpt>
      <trkpt lat="43.03533" lon="3.04843">
        <ele>1</ele>
        <time>2018-08-28T20:23:51+02:00</time>
      </trkpt>
      <trkpt lat="43.03511" lon="3.04829">
        <ele>1</ele>
        <time>2018-08-28T20:23:56+02:00</time>
      </trkpt>
      <trkpt lat="43.0349" lon="3.04816">
        <ele>1</ele>
        <time>2018-08-28T20:24:01+02:00</time>
      </trkpt>
      <trkpt lat="43.03466" lon="3.048">
        <ele>1</ele>
        <time>2018-08-28T20:24:07+02:00</time>
      </trkpt>
      <trkpt lat="43.03445" lon="3.04788">
        <ele>1</ele>
        <time>2018-08-28T20:24:12+02:00</time>
      </trkpt>
      <trkpt lat="43.03421" lon="3.04771">
        <ele>1</ele>
        <time>2018-08-28T20:24:18+02:00</time>
      </trkpt>
      <trkpt lat="43.03397" lon="3.04757">
        <ele>1</ele>
        <time>2018-08-28T20:24:24+02:00</time>
      </trkpt>
      <trkpt lat="43.03374" lon="3.04743">
        <ele>1</ele>
        <time>2018-08-28T20:24:30+02:00</time>
      </trkpt>
      <trkpt lat="43.03354" lon="3.04728">
        <ele>1</ele>
        <time>2018-08-28T20:24:35+02:00</time>
      </trkpt>
      <trkpt lat="43.0333" lon="3.04713">
        <ele>1</ele>
        <time>2018-08-28T20:24:41+02:00</time>
      </trkpt>
      <trkpt lat="43.03306" lon="3.04697">
        <ele>1</ele>
        <time>2018-08-28T20:24:47+02:00</time>
      </trkpt>
      <trkpt lat="43.03281" lon="3.04682">
        <ele>1</ele>
        <time>2018-08-28T20:24:53+02:00</time>
      </trkpt>
      <trkpt lat="43.03257" lon="3.04667">
        <ele>1</ele>
        <time>2018-08-28T20:24:59+02:00</time>
      </trkpt>
      <trkpt lat="43.03235" lon="3.04651">
        <ele>1</ele>
        <time>2018-08-28T20:25:05+02:00</time>
      </trkpt>
      <trkpt lat="43.03212" lon="3.04637">
        <ele>1</ele>
        <time>2018-08-28T20:25:11+02:00</time>
      </trkpt>
      <trkpt lat="43.03188" lon="3.04623">
        <ele>1</ele>
        <time>2018-08-28T20:25:17+02:00</time>
      </trkpt>
      <trkpt lat="43.03167" lon="3.04608">
        <ele>1</ele>
        <time>2018-08-28T20:25:23+02:00</time>
      </trkpt>
      <trkpt lat="43.03143" lon="3.04592">
        <ele>1</ele>
        <time>2018-08-28T20:25:29+02:00</time>
      </trkpt>
      <trkpt lat="43.03121" lon="3.04577">
        <ele>1</ele>
        <time>2018-08-28T20:25:35+02:00</time>
      </trkpt>
      <trkpt lat="43.03099" lon="3.04565">
        <ele>1</ele>
        <time>2018-08-28T20:25:41+02:00</time>
      </trkpt>
      <trkpt lat="43.03074" lon="3.04549">
        <ele>1</ele>
        <time>2018-08-28T20:25:47+02:00</time>
      </trkpt>
      <trkpt lat="43.03051" lon="3.04534">
        <ele>1</ele>
        <time>2018-08-28T20:25:53+02:00</time>
      </trkpt>
      <trkpt lat="43.03027" lon="3.04521">
        <ele>1</ele>
        <time>2018-08-28T20:25:59+02:00</time>
      </trkpt>
      <trkpt lat="43.03003" lon="3.04506">
        <ele>1</ele>
        <time>2018-08-28T20:26:05+02:00</time>
      </trkpt>
      <trkpt lat="43.02979" lon="3.04491">
        <ele>1</ele>
        <time>2018-08-28T20:26:11+02:00</time>
      </trkpt>
      <trkpt lat="43.02956" lon="3.04475">
        <ele>1</ele>
        <time>2018-08-28T20:26:17+02:00</time>
      </trkpt>
      <trkpt lat="43.02932" lon="3.04459">
        <ele>1</ele>
        <time>2018-08-28T20:26:23+02:00</time>
      </trkpt>
      <trkpt lat="43.02908" lon="3.04446">
        <ele>1</ele>
        <time>2018-08-28T20:26:29+02:00</time>
      </trkpt>
      <trkpt lat="43.02887" lon="3.04432">
        <ele>1</ele>
        <time>2018-08-28T20:26:35+02:00</time>
      </trkpt>
      <trkpt lat="43.02866" lon="3.04416">
        <ele>1</ele>
        <time>2018-08-28T20:26:41+02:00</time>
      </trkpt>
      <trkpt lat="43.02842" lon="3.04403">
        <ele>1</ele>
        <time>2018-08-28T20:26:47+02:00</time>
      </trkpt>
      <trkpt lat="43.02821" lon="3.04391">
        <ele>1</ele>
        <time>2018-08-28T20:26:53+02:00</time>
      </trkpt>
      <trkpt lat="43.02799" lon="3.04379">
        <ele>1</ele>
        <time>2018-08-28T20:26:59+02:00</time>
      </trkpt>
      <trkpt lat="43.02779" lon="3.04365">
        <ele>1</ele>
        <time>2018-08-28T20:27:05+02:00</time>
      </trkpt>
      <trkpt lat="43.02759" lon="3.04348">
        <ele>1</ele>
        <time>2018-08-28T20:27:12+02:00</time>
      </trkpt>
      <trkpt lat="43.02731" lon="3.04331">
        <ele>1</ele>
        <time>2018-08-28T20:27:19+02:00</time>
      </trkpt>
      <trkpt lat="43.02711" lon="3.04316">
        <ele>1</ele>
        <time>2018-08-28T20:27:25+02:00</time>
      </trkpt>
      <trkpt lat="43.02687" lon="3.04301">
        <ele>1</ele>
        <time>2018-08-28T20:27:32+02:00</time>
      </trkpt>
      <trkpt lat="43.02666" lon="3.04288">
        <ele>1</ele>
        <time>2018-08-28T20:27:38+02:00</time>
      </trkpt>
      <trkpt lat="43.02644" lon="3.04272">
        <ele>1</ele>
        <time>2018-08-28T20:27:45+02:00</time>
      </trkpt>
      <trkpt lat="43.02626" lon="3.04254">
        <ele>1</ele>
        <time>2018-08-28T20:27:51+02:00</time>
      </trkpt>
      <trkpt lat="43.02602" lon="3.04241">
        <ele>1</ele>
        <time>2018-08-28T20:27:59+02:00</time>
      </trkpt>
      <trkpt lat="43.0258" lon="3.04228">
        <ele>1</ele>
        <time>2018-08-28T20:28:06+02:00</time>
      </trkpt>
      <trkpt lat="43.02555" lon="3.04232">
        <ele>1</ele>
        <time>2018-08-28T20:28:13+02:00</time>
      </trkpt>
      <trkpt lat="43.02533" lon="3.04237">
        <ele>1</ele>
        <time>2018-08-28T20:28:21+02:00</time>
      </trkpt>
      <trkpt lat="43.0251" lon="3.04226">
        <ele>1</ele>
        <time>2018-08-28T20:28:28+02:00</time>
      </trkpt>
      <trkpt lat="43.0249" lon="3.04209">
        <ele>1</ele>
        <time>2018-08-28T20:28:36+02:00</time>
      </trkpt>
      <trkpt lat="43.02466" lon="3.0422">
        <ele>1</ele>
        <time>2018-08-28T20:28:44+02:00</time>
      </trkpt>
      <trkpt lat="43.02442" lon="3.04233">
        <ele>1</ele>
        <time>2018-08-28T20:28:51+02:00</time>
      </trkpt>
      <trkpt lat="43.02417" lon="3.0422">
        <ele>1</ele>
        <time>2018-08-28T20:28:57+02:00</time>
      </trkpt>
      <trkpt lat="43.02396" lon="3.04209">
        <ele>3</ele>
        <time>2018-08-28T20:29:03+02:00</time>
      </trkpt>
      <trkpt lat="43.02373" lon="3.04198">
        <time>2018-08-28T20:29:10+02:00</time>
      </trkpt>
      <trkpt lat="43.02351" lon="3.04191">
        <ele>2</ele>
        <time>2018-08-28T20:29:17+02:00</time>
      </trkpt>
      <trkpt lat="43.02336" lon="3.04219">
        <ele>1</ele>
        <time>2018-08-28T20:29:23+02:00</time>
      </trkpt>
      <trkpt lat="43.02324" lon="3.04246">
        <ele>2.1</ele>
        <time>2018-08-28T20:29:27+02:00</time>
      </trkpt>
      <trkpt lat="43.02309" lon="3.04274">
        <ele>1</ele>
        <time>2018-08-28T20:29:32+02:00</time>
      </trkpt>
      <trkpt lat="43.02302" lon="3.04304">
        <ele>1</ele>
        <time>2018-08-28T20:29:37+02:00</time>
      </trkpt>
      <trkpt lat="43.02292" lon="3.04336">
        <ele>1.5</ele>
        <time>2018-08-28T20:29:42+02:00</time>
      </trkpt>
      <trkpt lat="43.02282" lon="3.04367">
        <ele>1</ele>
        <time>2018-08-28T20:29:47+02:00</time>
      </trkpt>
      <trkpt lat="43.02273" lon="3.044">
        <ele>1</ele>
        <time>2018-08-28T20:29:52+02:00</time>
      </trkpt>
      <trkpt lat="43.02263" lon="3.04432">
        <ele>1</ele>
        <time>2018-08-28T20:29:57+02:00</time>
      </trkpt>
      <trkpt lat="43.02253" lon="3.04465">
        <ele>1</ele>
        <time>2018-08-28T20:30:02+02:00</time>
      </trkpt>
      <trkpt lat="43.02242" lon="3.04497">
        <ele>1.4</ele>
        <time>2018-08-28T20:30:07+02:00</time>
      </trkpt>
      <trkpt lat="43.02231" lon="3.04526">
        <ele>1</ele>
        <time>2018-08-28T20:30:12+02:00</time>
      </trkpt>
      <trkpt lat="43.02222" lon="3.04559">
        <ele>1</ele>
        <time>2018-08-28T20:30:18+02:00</time>
      </trkpt>
      <trkpt lat="43.02216" lon="3.0459">
        <ele>1.4</ele>
        <time>2018-08-28T20:30:23+02:00</time>
      </trkpt>
      <trkpt lat="43.02205" lon="3.04617">
        <ele>1</ele>
        <time>2018-08-28T20:30:27+02:00</time>
      </trkpt>
      <trkpt lat="43.02198" lon="3.04649">
        <ele>1</ele>
        <time>2018-08-28T20:30:32+02:00</time>
      </trkpt>
      <trkpt lat="43.02185" lon="3.04676">
        <ele>1</ele>
        <time>2018-08-28T20:30:37+02:00</time>
      </trkpt>
      <trkpt lat="43.02175" lon="3.04708">
        <ele>1</ele>
        <time>2018-08-28T20:30:42+02:00</time>
      </trkpt>
      <trkpt lat="43.02162" lon="3.04736">
        <ele>1</ele>
        <time>2018-08-28T20:30:47+02:00</time>
      </trkpt>
      <trkpt lat="43.02154" lon="3.04766">
        <ele>1</ele>
        <time>2018-08-28T20:30:52+02:00</time>
      </trkpt>
      <trkpt lat="43.02143" lon="3.04799">
        <ele>1</ele>
        <time>2018-08-28T20:30:58+02:00</time>
      </trkpt>
      <trkpt lat="43.02136" lon="3.04833">
        <ele>1</ele>
        <time>2018-08-28T20:31:03+02:00</time>
      </trkpt>
      <trkpt lat="43.02119" lon="3.04859">
        <ele>1</ele>
        <time>2018-08-28T20:31:09+02:00</time>
      </trkpt>
      <trkpt lat="43.02107" lon="3.04887">
        <ele>1</ele>
        <time>2018-08-28T20:31:14+02:00</time>
      </trkpt>
      <trkpt lat="43.02101" lon="3.04922">
        <ele>1</ele>
        <time>2018-08-28T20:31:19+02:00</time>
      </trkpt>
      <trkpt lat="43.02094" lon="3.04956">
        <ele>1</ele>
        <time>2018-08-28T20:31:25+02:00</time>
      </trkpt>
      <trkpt lat="43.02084" lon="3.04984">
        <ele>1</ele>
        <time>2018-08-28T20:31:30+02:00</time>
      </trkpt>
      <trkpt lat="43.02078" lon="3.05015">
        <ele>1</ele>
        <time>2018-08-28T20:31:35+02:00</time>
      </trkpt>
      <trkpt lat="43.02072" lon="3.05049">
        <ele>1</ele>
        <time>2018-08-28T20:31:40+02:00</time>
      </trkpt>
      <trkpt lat="43.02066" lon="3.05083">
        <ele>1</ele>
        <time>2018-08-28T20:31:45+02:00</time>
      </trkpt>
      <trkpt lat="43.02056" lon="3.05117">
        <ele>1</ele>
        <time>2018-08-28T20:31:51+02:00</time>
      </trkpt>
      <trkpt lat="43.02045" lon="3.05151">
        <ele>1</ele>
        <time>2018-08-28T20:31:57+02:00</time>
      </trkpt>
      <trkpt lat="43.02037" lon="3.0518">
        <ele>1</ele>
        <time>2018-08-28T20:32:02+02:00</time>
      </trkpt>
      <trkpt lat="43.02031" lon="3.0521">
        <ele>1</ele>
        <time>2018-08-28T20:32:07+02:00</time>
      </trkpt>
      <trkpt lat="43.02023" lon="3.05242">
        <ele>1</ele>
        <time>2018-08-28T20:32:12+02:00</time>
      </trkpt>
      <trkpt lat="43.02018" lon="3.05272">
        <ele>2.3</ele>
        <time>2018-08-28T20:32:17+02:00</time>
      </trkpt>
      <trkpt lat="43.02011" lon="3.05305">
        <ele>1</ele>
        <time>2018-08-28T20:32:22+02:00</time>
      </trkpt>
      <trkpt lat="43.02005" lon="3.0534">
        <ele>1</ele>
        <time>2018-08-28T20:32:28+02:00</time>
      </trkpt>
      <trkpt lat="43.01994" lon="3.05373">
        <ele>1</ele>
        <time>2018-08-28T20:32:33+02:00</time>
      </trkpt>
      <trkpt lat="43.0198" lon="3.05404">
        <ele>1</ele>
        <time>2018-08-28T20:32:39+02:00</time>
      </trkpt>
      <trkpt lat="43.01975" lon="3.05439">
        <ele>1</ele>
        <time>2018-08-28T20:32:45+02:00</time>
      </trkpt>
      <trkpt lat="43.01964" lon="3.05468">
        <ele>1.4</ele>
        <time>2018-08-28T20:32:50+02:00</time>
      </trkpt>
      <trkpt lat="43.01951" lon="3.055">
        <ele>1</ele>
        <time>2018-08-28T20:32:55+02:00</time>
      </trkpt>
      <trkpt lat="43.01941" lon="3.05529">
        <ele>1</ele>
        <time>2018-08-28T20:33:00+02:00</time>
      </trkpt>
      <trkpt lat="43.01928" lon="3.05561">
        <ele>1</ele>
        <time>2018-08-28T20:33:05+02:00</time>
      </trkpt>
      <trkpt lat="43.01918" lon="3.05591">
        <ele>1</ele>
        <time>2018-08-28T20:33:10+02:00</time>
      </trkpt>
      <trkpt lat="43.01905" lon="3.05618">
        <ele>1</ele>
        <time>2018-08-28T20:33:15+02:00</time>
      </trkpt>
      <trkpt lat="43.01892" lon="3.0565">
        <ele>1</ele>
        <time>2018-08-28T20:33:21+02:00</time>
      </trkpt>
      <trkpt lat="43.01881" lon="3.0568">
        <ele>1</ele>
        <time>2018-08-28T20:33:27+02:00</time>
      </trkpt>
      <trkpt lat="43.01857" lon="3.05682">
        <ele>1</ele>
        <time>2018-08-28T20:33:34+02:00</time>
      </trkpt>
      <trkpt lat="43.01836" lon="3.05671">
        <ele>1</ele>
        <time>2018-08-28T20:33:39+02:00</time>
      </trkpt>
      <trkpt lat="43.01815" lon="3.05652">
        <ele>1</ele>
        <time>2018-08-28T20:33:47+02:00</time>
      </trkpt>
      <trkpt lat="43.01793" lon="3.0564">
        <ele>1</ele>
        <time>2018-08-28T20:33:53+02:00</time>
      </trkpt>
      <trkpt lat="43.01771" lon="3.05629">
        <ele>1</ele>
        <time>2018-08-28T20:33:59+02:00</time>
      </trkpt>
      <trkpt lat="43.01748" lon="3.05613">
        <ele>1</ele>
        <time>2018-08-28T20:34:05+02:00</time>
      </trkpt>
      <trkpt lat="43.01727" lon="3.05601">
        <ele>1</ele>
        <time>2018-08-28T20:34:10+02:00</time>
      </trkpt>
      <trkpt lat="43.01706" lon="3.05589">
        <ele>1</ele>
        <time>2018-08-28T20:34:14+02:00</time>
      </trkpt>
      <trkpt lat="43.01685" lon="3.05574">
        <ele>1</ele>
        <time>2018-08-28T20:34:18+02:00</time>
      </trkpt>
      <trkpt lat="43.01661" lon="3.0556">
        <ele>1</ele>
        <time>2018-08-28T20:34:24+02:00</time>
      </trkpt>
      <trkpt lat="43.01639" lon="3.05552">
        <ele>1</ele>
        <time>2018-08-28T20:34:28+02:00</time>
      </trkpt>
      <trkpt lat="43.01618" lon="3.05538">
        <ele>1</ele>
        <time>2018-08-28T20:34:32+02:00</time>
      </trkpt>
      <trkpt lat="43.01596" lon="3.05527">
        <ele>1</ele>
        <time>2018-08-28T20:34:36+02:00</time>
      </trkpt>
      <trkpt lat="43.01574" lon="3.05511">
        <ele>1</ele>
        <time>2018-08-28T20:34:41+02:00</time>
      </trkpt>
      <trkpt lat="43.01562" lon="3.0548">
        <ele>1</ele>
        <time>2018-08-28T20:34:46+02:00</time>
      </trkpt>
      <trkpt lat="43.0154" lon="3.05456">
        <ele>1</ele>
        <time>2018-08-28T20:34:51+02:00</time>
      </trkpt>
      <trkpt lat="43.01514" lon="3.05461">
        <ele>1</ele>
        <time>2018-08-28T20:34:55+02:00</time>
      </trkpt>
      <trkpt lat="43.01487" lon="3.05456">
        <ele>1</ele>
        <time>2018-08-28T20:35:00+02:00</time>
      </trkpt>
      <trkpt lat="43.01464" lon="3.05437">
        <ele>1</ele>
        <time>2018-08-28T20:35:05+02:00</time>
      </trkpt>
      <trkpt lat="43.0145" lon="3.05406">
        <ele>1</ele>
        <time>2018-08-28T20:35:10+02:00</time>
      </trkpt>
      <trkpt lat="43.01427" lon="3.05405">
        <ele>1</ele>
        <time>2018-08-28T20:35:14+02:00</time>
      </trkpt>
      <trkpt lat="43.01406" lon="3.05392">
        <ele>1</ele>
        <time>2018-08-28T20:35:18+02:00</time>
      </trkpt>
      <trkpt lat="43.01388" lon="3.05372">
        <ele>1</ele>
        <time>2018-08-28T20:35:23+02:00</time>
      </trkpt>
      <trkpt lat="43.01377" lon="3.05344">
        <ele>1</ele>
        <time>2018-08-28T20:35:28+02:00</time>
      </trkpt>
      <trkpt lat="43.01368" lon="3.05311">
        <ele>1</ele>
        <time>2018-08-28T20:35:34+02:00</time>
      </trkpt>
      <trkpt lat="43.01362" lon="3.05278">
        <ele>1</ele>
        <time>2018-08-28T20:35:40+02:00</time>
      </trkpt>
      <trkpt lat="43.01355" lon="3.05247">
        <ele>1</ele>
        <time>2018-08-28T20:35:46+02:00</time>
      </trkpt>
      <trkpt lat="43.01376" lon="3.05232">
        <ele>1</ele>
        <time>2018-08-28T20:35:54+02:00</time>
      </trkpt>
      <trkpt lat="43.01398" lon="3.05241">
        <ele>1</ele>
        <time>2018-08-28T20:36:06+02:00</time>
      </trkpt>
    </trkseg>
  </trk>
</gpx>